<?xml version="1.0" encoding="UTF-8" standalone="no" ?>
<gpx xmlns="http://www.topografix.com/GPX/1/1" xmlns:xsi="http://www.w3.org/2001/XMLSchema-instance" xsi:schemaLocation="http://www.topografix.com/GPX/1/1 http://www.topografix.com/GPX/1/1/gpx.xsd" version="1.1" creator="VisuGPX - https://www.visugpx.com">
  <metadata>
    <name>club vtt des rochers</name>
    <desc><![CDATA[club vtt des rochers à saint vite]]></desc>
  </metadata>
  <trk>
    <name><![CDATA[23-JAN-16 17:55:17]]></name>
    <trkseg>
      <trkpt lat="44.47208" lon="0.93418">
        <ele>83.77</ele>
        <time>2016-01-23T13:08:17Z</time>
      </trkpt>
      <trkpt lat="44.47207" lon="0.93422">
        <ele>71.27</ele>
        <time>2016-01-23T13:08:55Z</time>
      </trkpt>
      <trkpt lat="44.47208" lon="0.93424">
        <ele>69.35</ele>
        <time>2016-01-23T13:09:32Z</time>
      </trkpt>
      <trkpt lat="44.47208" lon="0.93423">
        <ele>69.83</ele>
        <time>2016-01-23T13:10:06Z</time>
      </trkpt>
      <trkpt lat="44.47208" lon="0.93423">
        <ele>69.35</ele>
        <time>2016-01-23T13:10:46Z</time>
      </trkpt>
      <trkpt lat="44.47208" lon="0.93422">
        <ele>69.83</ele>
        <time>2016-01-23T13:11:12Z</time>
      </trkpt>
      <trkpt lat="44.47208" lon="0.93423">
        <ele>68.87</ele>
        <time>2016-01-23T13:11:45Z</time>
      </trkpt>
      <trkpt lat="44.47209" lon="0.93422">
        <ele>68.39</ele>
        <time>2016-01-23T13:12:08Z</time>
      </trkpt>
      <trkpt lat="44.47209" lon="0.93423">
        <ele>69.35</ele>
        <time>2016-01-23T13:12:36Z</time>
      </trkpt>
      <trkpt lat="44.47208" lon="0.93422">
        <ele>70.79</ele>
        <time>2016-01-23T13:13:10Z</time>
      </trkpt>
      <trkpt lat="44.47207" lon="0.93422">
        <ele>70.31</ele>
        <time>2016-01-23T13:13:52Z</time>
      </trkpt>
      <trkpt lat="44.47208" lon="0.93422">
        <ele>69.83</ele>
        <time>2016-01-23T13:14:22Z</time>
      </trkpt>
      <trkpt lat="44.47208" lon="0.93423">
        <ele>69.83</ele>
        <time>2016-01-23T13:14:44Z</time>
      </trkpt>
      <trkpt lat="44.47208" lon="0.93423">
        <ele>68.87</ele>
        <time>2016-01-23T13:15:05Z</time>
      </trkpt>
      <trkpt lat="44.47209" lon="0.93422">
        <ele>68.39</ele>
        <time>2016-01-23T13:15:17Z</time>
      </trkpt>
      <trkpt lat="44.47209" lon="0.93421">
        <ele>67.43</ele>
        <time>2016-01-23T13:15:43Z</time>
      </trkpt>
      <trkpt lat="44.4721" lon="0.93421">
        <ele>68.39</ele>
        <time>2016-01-23T13:15:59Z</time>
      </trkpt>
      <trkpt lat="44.47209" lon="0.9342">
        <ele>69.35</ele>
        <time>2016-01-23T13:16:13Z</time>
      </trkpt>
      <trkpt lat="44.47209" lon="0.93422">
        <ele>69.83</ele>
        <time>2016-01-23T13:16:32Z</time>
      </trkpt>
      <trkpt lat="44.4721" lon="0.93426">
        <ele>68.87</ele>
        <time>2016-01-23T13:16:36Z</time>
      </trkpt>
      <trkpt lat="44.47209" lon="0.93428">
        <ele>68.39</ele>
        <time>2016-01-23T13:16:38Z</time>
      </trkpt>
      <trkpt lat="44.47207" lon="0.93427">
        <ele>68.39</ele>
        <time>2016-01-23T13:16:40Z</time>
      </trkpt>
      <trkpt lat="44.4721" lon="0.93429">
        <ele>67.43</ele>
        <time>2016-01-23T13:16:50Z</time>
      </trkpt>
      <trkpt lat="44.47209" lon="0.93431">
        <ele>66.95</ele>
        <time>2016-01-23T13:16:52Z</time>
      </trkpt>
      <trkpt lat="44.4721" lon="0.93442">
        <ele>65.99</ele>
        <time>2016-01-23T13:17:06Z</time>
      </trkpt>
      <trkpt lat="44.47212" lon="0.93436">
        <ele>65.99</ele>
        <time>2016-01-23T13:17:11Z</time>
      </trkpt>
      <trkpt lat="44.47209" lon="0.93425">
        <ele>65.99</ele>
        <time>2016-01-23T13:17:24Z</time>
      </trkpt>
      <trkpt lat="44.47209" lon="0.93426">
        <ele>65.99</ele>
        <time>2016-01-23T13:17:44Z</time>
      </trkpt>
      <trkpt lat="44.47209" lon="0.93428">
        <ele>65.99</ele>
        <time>2016-01-23T13:18:13Z</time>
      </trkpt>
      <trkpt lat="44.47205" lon="0.93428">
        <ele>66.47</ele>
        <time>2016-01-23T13:18:17Z</time>
      </trkpt>
      <trkpt lat="44.47196" lon="0.93428">
        <ele>67.43</ele>
        <time>2016-01-23T13:18:23Z</time>
      </trkpt>
      <trkpt lat="44.47194" lon="0.9343">
        <ele>67.43</ele>
        <time>2016-01-23T13:18:35Z</time>
      </trkpt>
      <trkpt lat="44.47194" lon="0.93431">
        <ele>67.43</ele>
        <time>2016-01-23T13:18:53Z</time>
      </trkpt>
      <trkpt lat="44.47195" lon="0.93431">
        <ele>67.91</ele>
        <time>2016-01-23T13:19:13Z</time>
      </trkpt>
      <trkpt lat="44.47195" lon="0.93431">
        <ele>67.91</ele>
        <time>2016-01-23T13:19:36Z</time>
      </trkpt>
      <trkpt lat="44.47195" lon="0.93431">
        <ele>67.43</ele>
        <time>2016-01-23T13:19:56Z</time>
      </trkpt>
      <trkpt lat="44.47195" lon="0.93431">
        <ele>67.43</ele>
        <time>2016-01-23T13:20:14Z</time>
      </trkpt>
      <trkpt lat="44.47195" lon="0.93431">
        <ele>67.43</ele>
        <time>2016-01-23T13:20:35Z</time>
      </trkpt>
      <trkpt lat="44.47195" lon="0.93431">
        <ele>67.43</ele>
        <time>2016-01-23T13:20:57Z</time>
      </trkpt>
      <trkpt lat="44.47195" lon="0.93431">
        <ele>67.91</ele>
        <time>2016-01-23T13:21:15Z</time>
      </trkpt>
      <trkpt lat="44.47195" lon="0.93431">
        <ele>67.91</ele>
        <time>2016-01-23T13:21:36Z</time>
      </trkpt>
      <trkpt lat="44.47196" lon="0.9343">
        <ele>68.87</ele>
        <time>2016-01-23T13:22:04Z</time>
      </trkpt>
      <trkpt lat="44.47196" lon="0.9343">
        <ele>67.91</ele>
        <time>2016-01-23T13:22:28Z</time>
      </trkpt>
      <trkpt lat="44.47195" lon="0.9343">
        <ele>67.43</ele>
        <time>2016-01-23T13:22:51Z</time>
      </trkpt>
      <trkpt lat="44.47195" lon="0.9343">
        <ele>67.43</ele>
        <time>2016-01-23T13:23:14Z</time>
      </trkpt>
      <trkpt lat="44.47195" lon="0.93432">
        <ele>66.95</ele>
        <time>2016-01-23T13:23:36Z</time>
      </trkpt>
      <trkpt lat="44.47195" lon="0.93432">
        <ele>66.95</ele>
        <time>2016-01-23T13:23:52Z</time>
      </trkpt>
      <trkpt lat="44.47195" lon="0.93433">
        <ele>66.47</ele>
        <time>2016-01-23T13:24:09Z</time>
      </trkpt>
      <trkpt lat="44.47195" lon="0.93433">
        <ele>66.95</ele>
        <time>2016-01-23T13:24:33Z</time>
      </trkpt>
      <trkpt lat="44.47195" lon="0.9344">
        <ele>67.43</ele>
        <time>2016-01-23T13:24:37Z</time>
      </trkpt>
      <trkpt lat="44.47196" lon="0.93442">
        <ele>66.95</ele>
        <time>2016-01-23T13:24:38Z</time>
      </trkpt>
      <trkpt lat="44.47198" lon="0.93444">
        <ele>66.95</ele>
        <time>2016-01-23T13:24:39Z</time>
      </trkpt>
      <trkpt lat="44.472" lon="0.93446">
        <ele>66.95</ele>
        <time>2016-01-23T13:24:40Z</time>
      </trkpt>
      <trkpt lat="44.47216" lon="0.93478">
        <ele>66.47</ele>
        <time>2016-01-23T13:24:51Z</time>
      </trkpt>
      <trkpt lat="44.47227" lon="0.93527">
        <ele>65.51</ele>
        <time>2016-01-23T13:25:03Z</time>
      </trkpt>
      <trkpt lat="44.47235" lon="0.9358">
        <ele>64.07</ele>
        <time>2016-01-23T13:25:17Z</time>
      </trkpt>
      <trkpt lat="44.47261" lon="0.93631">
        <ele>62.14</ele>
        <time>2016-01-23T13:25:31Z</time>
      </trkpt>
      <trkpt lat="44.47282" lon="0.93665">
        <ele>62.14</ele>
        <time>2016-01-23T13:25:40Z</time>
      </trkpt>
      <trkpt lat="44.47285" lon="0.93669">
        <ele>62.14</ele>
        <time>2016-01-23T13:25:41Z</time>
      </trkpt>
      <trkpt lat="44.47288" lon="0.93671">
        <ele>62.14</ele>
        <time>2016-01-23T13:25:42Z</time>
      </trkpt>
      <trkpt lat="44.47291" lon="0.93674">
        <ele>62.14</ele>
        <time>2016-01-23T13:25:43Z</time>
      </trkpt>
      <trkpt lat="44.47293" lon="0.93678">
        <ele>62.62</ele>
        <time>2016-01-23T13:25:44Z</time>
      </trkpt>
      <trkpt lat="44.47295" lon="0.93682">
        <ele>62.62</ele>
        <time>2016-01-23T13:25:45Z</time>
      </trkpt>
      <trkpt lat="44.47296" lon="0.93686">
        <ele>62.62</ele>
        <time>2016-01-23T13:25:46Z</time>
      </trkpt>
      <trkpt lat="44.47298" lon="0.9369">
        <ele>63.1</ele>
        <time>2016-01-23T13:25:47Z</time>
      </trkpt>
      <trkpt lat="44.47299" lon="0.93693">
        <ele>63.1</ele>
        <time>2016-01-23T13:25:48Z</time>
      </trkpt>
      <trkpt lat="44.47317" lon="0.93734">
        <ele>64.55</ele>
        <time>2016-01-23T13:25:59Z</time>
      </trkpt>
      <trkpt lat="44.47338" lon="0.93772">
        <ele>64.55</ele>
        <time>2016-01-23T13:26:09Z</time>
      </trkpt>
      <trkpt lat="44.47343" lon="0.93792">
        <ele>64.55</ele>
        <time>2016-01-23T13:26:13Z</time>
      </trkpt>
      <trkpt lat="44.47347" lon="0.93808">
        <ele>64.55</ele>
        <time>2016-01-23T13:26:16Z</time>
      </trkpt>
      <trkpt lat="44.4735" lon="0.93811">
        <ele>64.55</ele>
        <time>2016-01-23T13:26:17Z</time>
      </trkpt>
      <trkpt lat="44.47357" lon="0.93819">
        <ele>64.55</ele>
        <time>2016-01-23T13:26:20Z</time>
      </trkpt>
      <trkpt lat="44.47362" lon="0.93832">
        <ele>64.07</ele>
        <time>2016-01-23T13:26:23Z</time>
      </trkpt>
      <trkpt lat="44.47374" lon="0.93877">
        <ele>63.1</ele>
        <time>2016-01-23T13:26:31Z</time>
      </trkpt>
      <trkpt lat="44.47387" lon="0.93938">
        <ele>63.1</ele>
        <time>2016-01-23T13:26:44Z</time>
      </trkpt>
      <trkpt lat="44.47394" lon="0.93958">
        <ele>63.1</ele>
        <time>2016-01-23T13:26:51Z</time>
      </trkpt>
      <trkpt lat="44.47395" lon="0.93959">
        <ele>63.1</ele>
        <time>2016-01-23T13:26:52Z</time>
      </trkpt>
      <trkpt lat="44.47397" lon="0.93958">
        <ele>62.62</ele>
        <time>2016-01-23T13:26:53Z</time>
      </trkpt>
      <trkpt lat="44.47403" lon="0.93957">
        <ele>64.55</ele>
        <time>2016-01-23T13:27:01Z</time>
      </trkpt>
      <trkpt lat="44.47404" lon="0.93955">
        <ele>65.03</ele>
        <time>2016-01-23T13:27:02Z</time>
      </trkpt>
      <trkpt lat="44.47405" lon="0.93954">
        <ele>65.03</ele>
        <time>2016-01-23T13:27:03Z</time>
      </trkpt>
      <trkpt lat="44.47406" lon="0.93953">
        <ele>65.51</ele>
        <time>2016-01-23T13:27:04Z</time>
      </trkpt>
      <trkpt lat="44.47408" lon="0.93952">
        <ele>65.51</ele>
        <time>2016-01-23T13:27:05Z</time>
      </trkpt>
      <trkpt lat="44.4741" lon="0.93951">
        <ele>65.51</ele>
        <time>2016-01-23T13:27:06Z</time>
      </trkpt>
      <trkpt lat="44.47413" lon="0.93949">
        <ele>65.99</ele>
        <time>2016-01-23T13:27:07Z</time>
      </trkpt>
      <trkpt lat="44.47416" lon="0.93947">
        <ele>65.99</ele>
        <time>2016-01-23T13:27:08Z</time>
      </trkpt>
      <trkpt lat="44.4742" lon="0.93944">
        <ele>65.99</ele>
        <time>2016-01-23T13:27:09Z</time>
      </trkpt>
      <trkpt lat="44.47438" lon="0.93929">
        <ele>65.51</ele>
        <time>2016-01-23T13:27:13Z</time>
      </trkpt>
      <trkpt lat="44.47482" lon="0.93898">
        <ele>62.62</ele>
        <time>2016-01-23T13:27:21Z</time>
      </trkpt>
      <trkpt lat="44.47487" lon="0.93898">
        <ele>62.62</ele>
        <time>2016-01-23T13:27:22Z</time>
      </trkpt>
      <trkpt lat="44.47492" lon="0.93901">
        <ele>62.14</ele>
        <time>2016-01-23T13:27:23Z</time>
      </trkpt>
      <trkpt lat="44.47495" lon="0.93906">
        <ele>62.14</ele>
        <time>2016-01-23T13:27:24Z</time>
      </trkpt>
      <trkpt lat="44.47497" lon="0.93912">
        <ele>62.14</ele>
        <time>2016-01-23T13:27:25Z</time>
      </trkpt>
      <trkpt lat="44.475" lon="0.93918">
        <ele>62.14</ele>
        <time>2016-01-23T13:27:26Z</time>
      </trkpt>
      <trkpt lat="44.47506" lon="0.93928">
        <ele>61.66</ele>
        <time>2016-01-23T13:27:28Z</time>
      </trkpt>
      <trkpt lat="44.47509" lon="0.93934">
        <ele>61.18</ele>
        <time>2016-01-23T13:27:29Z</time>
      </trkpt>
      <trkpt lat="44.47511" lon="0.93939">
        <ele>61.18</ele>
        <time>2016-01-23T13:27:30Z</time>
      </trkpt>
      <trkpt lat="44.47514" lon="0.93944">
        <ele>60.7</ele>
        <time>2016-01-23T13:27:31Z</time>
      </trkpt>
      <trkpt lat="44.47517" lon="0.93949">
        <ele>60.22</ele>
        <time>2016-01-23T13:27:32Z</time>
      </trkpt>
      <trkpt lat="44.47521" lon="0.93954">
        <ele>60.22</ele>
        <time>2016-01-23T13:27:33Z</time>
      </trkpt>
      <trkpt lat="44.47526" lon="0.93957">
        <ele>60.22</ele>
        <time>2016-01-23T13:27:34Z</time>
      </trkpt>
      <trkpt lat="44.47531" lon="0.9396">
        <ele>60.22</ele>
        <time>2016-01-23T13:27:35Z</time>
      </trkpt>
      <trkpt lat="44.47536" lon="0.93962">
        <ele>60.22</ele>
        <time>2016-01-23T13:27:36Z</time>
      </trkpt>
      <trkpt lat="44.47552" lon="0.93967">
        <ele>60.22</ele>
        <time>2016-01-23T13:27:39Z</time>
      </trkpt>
      <trkpt lat="44.47569" lon="0.93983">
        <ele>59.26</ele>
        <time>2016-01-23T13:27:43Z</time>
      </trkpt>
      <trkpt lat="44.47574" lon="0.93987">
        <ele>59.26</ele>
        <time>2016-01-23T13:27:44Z</time>
      </trkpt>
      <trkpt lat="44.47582" lon="0.93995">
        <ele>59.26</ele>
        <time>2016-01-23T13:27:46Z</time>
      </trkpt>
      <trkpt lat="44.47591" lon="0.94002">
        <ele>58.78</ele>
        <time>2016-01-23T13:27:48Z</time>
      </trkpt>
      <trkpt lat="44.47605" lon="0.94015">
        <ele>59.26</ele>
        <time>2016-01-23T13:27:52Z</time>
      </trkpt>
      <trkpt lat="44.47643" lon="0.94041">
        <ele>59.74</ele>
        <time>2016-01-23T13:28:04Z</time>
      </trkpt>
      <trkpt lat="44.4769" lon="0.94072">
        <ele>58.3</ele>
        <time>2016-01-23T13:28:20Z</time>
      </trkpt>
      <trkpt lat="44.4773" lon="0.94109">
        <ele>57.82</ele>
        <time>2016-01-23T13:28:33Z</time>
      </trkpt>
      <trkpt lat="44.47756" lon="0.94134">
        <ele>58.3</ele>
        <time>2016-01-23T13:28:41Z</time>
      </trkpt>
      <trkpt lat="44.47792" lon="0.94182">
        <ele>59.26</ele>
        <time>2016-01-23T13:28:54Z</time>
      </trkpt>
      <trkpt lat="44.47801" lon="0.94207">
        <ele>58.78</ele>
        <time>2016-01-23T13:29:03Z</time>
      </trkpt>
      <trkpt lat="44.47815" lon="0.94224">
        <ele>58.3</ele>
        <time>2016-01-23T13:29:09Z</time>
      </trkpt>
      <trkpt lat="44.47843" lon="0.94284">
        <ele>59.74</ele>
        <time>2016-01-23T13:29:22Z</time>
      </trkpt>
      <trkpt lat="44.4787" lon="0.94349">
        <ele>60.22</ele>
        <time>2016-01-23T13:29:36Z</time>
      </trkpt>
      <trkpt lat="44.479" lon="0.94429">
        <ele>61.18</ele>
        <time>2016-01-23T13:29:53Z</time>
      </trkpt>
      <trkpt lat="44.4791" lon="0.94467">
        <ele>61.66</ele>
        <time>2016-01-23T13:30:03Z</time>
      </trkpt>
      <trkpt lat="44.47923" lon="0.94508">
        <ele>61.18</ele>
        <time>2016-01-23T13:30:11Z</time>
      </trkpt>
      <trkpt lat="44.47928" lon="0.94524">
        <ele>62.14</ele>
        <time>2016-01-23T13:30:14Z</time>
      </trkpt>
      <trkpt lat="44.47929" lon="0.94529">
        <ele>62.14</ele>
        <time>2016-01-23T13:30:15Z</time>
      </trkpt>
      <trkpt lat="44.47931" lon="0.94534">
        <ele>62.14</ele>
        <time>2016-01-23T13:30:16Z</time>
      </trkpt>
      <trkpt lat="44.47934" lon="0.94544">
        <ele>62.14</ele>
        <time>2016-01-23T13:30:18Z</time>
      </trkpt>
      <trkpt lat="44.47955" lon="0.94614">
        <ele>60.22</ele>
        <time>2016-01-23T13:30:31Z</time>
      </trkpt>
      <trkpt lat="44.47973" lon="0.94669">
        <ele>59.74</ele>
        <time>2016-01-23T13:30:40Z</time>
      </trkpt>
      <trkpt lat="44.47979" lon="0.94687">
        <ele>59.74</ele>
        <time>2016-01-23T13:30:43Z</time>
      </trkpt>
      <trkpt lat="44.47984" lon="0.94699">
        <ele>59.74</ele>
        <time>2016-01-23T13:30:45Z</time>
      </trkpt>
      <trkpt lat="44.47996" lon="0.94728">
        <ele>59.26</ele>
        <time>2016-01-23T13:30:50Z</time>
      </trkpt>
      <trkpt lat="44.48005" lon="0.94744">
        <ele>59.74</ele>
        <time>2016-01-23T13:30:53Z</time>
      </trkpt>
      <trkpt lat="44.48007" lon="0.9475">
        <ele>59.74</ele>
        <time>2016-01-23T13:30:54Z</time>
      </trkpt>
      <trkpt lat="44.48009" lon="0.94755">
        <ele>59.74</ele>
        <time>2016-01-23T13:30:55Z</time>
      </trkpt>
      <trkpt lat="44.48015" lon="0.94769">
        <ele>59.74</ele>
        <time>2016-01-23T13:31:04Z</time>
      </trkpt>
      <trkpt lat="44.48015" lon="0.94769">
        <ele>60.7</ele>
        <time>2016-01-23T13:31:19Z</time>
      </trkpt>
      <trkpt lat="44.48016" lon="0.9477">
        <ele>61.18</ele>
        <time>2016-01-23T13:31:43Z</time>
      </trkpt>
      <trkpt lat="44.48015" lon="0.9477">
        <ele>62.14</ele>
        <time>2016-01-23T13:32:03Z</time>
      </trkpt>
      <trkpt lat="44.48015" lon="0.94771">
        <ele>62.62</ele>
        <time>2016-01-23T13:32:24Z</time>
      </trkpt>
      <trkpt lat="44.48021" lon="0.94774">
        <ele>63.58</ele>
        <time>2016-01-23T13:32:39Z</time>
      </trkpt>
      <trkpt lat="44.48023" lon="0.94772">
        <ele>63.58</ele>
        <time>2016-01-23T13:32:40Z</time>
      </trkpt>
      <trkpt lat="44.48054" lon="0.94745">
        <ele>64.07</ele>
        <time>2016-01-23T13:32:50Z</time>
      </trkpt>
      <trkpt lat="44.48131" lon="0.94683">
        <ele>62.14</ele>
        <time>2016-01-23T13:33:09Z</time>
      </trkpt>
      <trkpt lat="44.48172" lon="0.94661">
        <ele>58.78</ele>
        <time>2016-01-23T13:33:21Z</time>
      </trkpt>
      <trkpt lat="44.48192" lon="0.94647">
        <ele>57.34</ele>
        <time>2016-01-23T13:33:29Z</time>
      </trkpt>
      <trkpt lat="44.48194" lon="0.94646">
        <ele>57.34</ele>
        <time>2016-01-23T13:33:30Z</time>
      </trkpt>
      <trkpt lat="44.48196" lon="0.94644">
        <ele>56.86</ele>
        <time>2016-01-23T13:33:31Z</time>
      </trkpt>
      <trkpt lat="44.48199" lon="0.94641">
        <ele>56.86</ele>
        <time>2016-01-23T13:33:32Z</time>
      </trkpt>
      <trkpt lat="44.48201" lon="0.94637">
        <ele>56.37</ele>
        <time>2016-01-23T13:33:33Z</time>
      </trkpt>
      <trkpt lat="44.48204" lon="0.94633">
        <ele>56.37</ele>
        <time>2016-01-23T13:33:34Z</time>
      </trkpt>
      <trkpt lat="44.48222" lon="0.94601">
        <ele>52.53</ele>
        <time>2016-01-23T13:33:41Z</time>
      </trkpt>
      <trkpt lat="44.48224" lon="0.94595">
        <ele>52.05</ele>
        <time>2016-01-23T13:33:42Z</time>
      </trkpt>
      <trkpt lat="44.48227" lon="0.94591">
        <ele>51.57</ele>
        <time>2016-01-23T13:33:43Z</time>
      </trkpt>
      <trkpt lat="44.4823" lon="0.94586">
        <ele>51.09</ele>
        <time>2016-01-23T13:33:44Z</time>
      </trkpt>
      <trkpt lat="44.48232" lon="0.94581">
        <ele>50.61</ele>
        <time>2016-01-23T13:33:45Z</time>
      </trkpt>
      <trkpt lat="44.48237" lon="0.94571">
        <ele>49.16</ele>
        <time>2016-01-23T13:33:48Z</time>
      </trkpt>
      <trkpt lat="44.48241" lon="0.94574">
        <ele>49.65</ele>
        <time>2016-01-23T13:33:49Z</time>
      </trkpt>
      <trkpt lat="44.48245" lon="0.94578">
        <ele>49.65</ele>
        <time>2016-01-23T13:33:50Z</time>
      </trkpt>
      <trkpt lat="44.48248" lon="0.94582">
        <ele>49.65</ele>
        <time>2016-01-23T13:33:51Z</time>
      </trkpt>
      <trkpt lat="44.48252" lon="0.94585">
        <ele>49.65</ele>
        <time>2016-01-23T13:33:52Z</time>
      </trkpt>
      <trkpt lat="44.48256" lon="0.94586">
        <ele>49.65</ele>
        <time>2016-01-23T13:33:53Z</time>
      </trkpt>
      <trkpt lat="44.4826" lon="0.94584">
        <ele>49.16</ele>
        <time>2016-01-23T13:33:54Z</time>
      </trkpt>
      <trkpt lat="44.48264" lon="0.94582">
        <ele>49.65</ele>
        <time>2016-01-23T13:33:55Z</time>
      </trkpt>
      <trkpt lat="44.48269" lon="0.94582">
        <ele>50.13</ele>
        <time>2016-01-23T13:33:56Z</time>
      </trkpt>
      <trkpt lat="44.48273" lon="0.94581">
        <ele>50.61</ele>
        <time>2016-01-23T13:33:57Z</time>
      </trkpt>
      <trkpt lat="44.48278" lon="0.9458">
        <ele>51.09</ele>
        <time>2016-01-23T13:33:58Z</time>
      </trkpt>
      <trkpt lat="44.48283" lon="0.94576">
        <ele>51.09</ele>
        <time>2016-01-23T13:33:59Z</time>
      </trkpt>
      <trkpt lat="44.48287" lon="0.94572">
        <ele>51.09</ele>
        <time>2016-01-23T13:34:00Z</time>
      </trkpt>
      <trkpt lat="44.48292" lon="0.94568">
        <ele>51.09</ele>
        <time>2016-01-23T13:34:01Z</time>
      </trkpt>
      <trkpt lat="44.48301" lon="0.94558">
        <ele>51.57</ele>
        <time>2016-01-23T13:34:03Z</time>
      </trkpt>
      <trkpt lat="44.48306" lon="0.94555">
        <ele>52.05</ele>
        <time>2016-01-23T13:34:04Z</time>
      </trkpt>
      <trkpt lat="44.48311" lon="0.94552">
        <ele>52.05</ele>
        <time>2016-01-23T13:34:05Z</time>
      </trkpt>
      <trkpt lat="44.48315" lon="0.94549">
        <ele>51.57</ele>
        <time>2016-01-23T13:34:06Z</time>
      </trkpt>
      <trkpt lat="44.48319" lon="0.94545">
        <ele>51.57</ele>
        <time>2016-01-23T13:34:07Z</time>
      </trkpt>
      <trkpt lat="44.48321" lon="0.94539">
        <ele>51.57</ele>
        <time>2016-01-23T13:34:08Z</time>
      </trkpt>
      <trkpt lat="44.48324" lon="0.94533">
        <ele>52.53</ele>
        <time>2016-01-23T13:34:09Z</time>
      </trkpt>
      <trkpt lat="44.48326" lon="0.94526">
        <ele>53.01</ele>
        <time>2016-01-23T13:34:10Z</time>
      </trkpt>
      <trkpt lat="44.48328" lon="0.9452">
        <ele>53.49</ele>
        <time>2016-01-23T13:34:11Z</time>
      </trkpt>
      <trkpt lat="44.48328" lon="0.94513">
        <ele>53.97</ele>
        <time>2016-01-23T13:34:12Z</time>
      </trkpt>
      <trkpt lat="44.48327" lon="0.94507">
        <ele>54.93</ele>
        <time>2016-01-23T13:34:13Z</time>
      </trkpt>
      <trkpt lat="44.48326" lon="0.94501">
        <ele>55.41</ele>
        <time>2016-01-23T13:34:14Z</time>
      </trkpt>
      <trkpt lat="44.48323" lon="0.94494">
        <ele>56.37</ele>
        <time>2016-01-23T13:34:15Z</time>
      </trkpt>
      <trkpt lat="44.48321" lon="0.94487">
        <ele>56.86</ele>
        <time>2016-01-23T13:34:16Z</time>
      </trkpt>
      <trkpt lat="44.48319" lon="0.9448">
        <ele>57.82</ele>
        <time>2016-01-23T13:34:17Z</time>
      </trkpt>
      <trkpt lat="44.48317" lon="0.94475">
        <ele>58.3</ele>
        <time>2016-01-23T13:34:18Z</time>
      </trkpt>
      <trkpt lat="44.48312" lon="0.94458">
        <ele>61.66</ele>
        <time>2016-01-23T13:34:26Z</time>
      </trkpt>
      <trkpt lat="44.48313" lon="0.94454">
        <ele>62.14</ele>
        <time>2016-01-23T13:34:33Z</time>
      </trkpt>
      <trkpt lat="44.48315" lon="0.94452">
        <ele>62.62</ele>
        <time>2016-01-23T13:34:34Z</time>
      </trkpt>
      <trkpt lat="44.48324" lon="0.94447">
        <ele>62.62</ele>
        <time>2016-01-23T13:34:37Z</time>
      </trkpt>
      <trkpt lat="44.48378" lon="0.94413">
        <ele>63.58</ele>
        <time>2016-01-23T13:34:49Z</time>
      </trkpt>
      <trkpt lat="44.48405" lon="0.94395">
        <ele>64.07</ele>
        <time>2016-01-23T13:34:57Z</time>
      </trkpt>
      <trkpt lat="44.48437" lon="0.94378">
        <ele>65.03</ele>
        <time>2016-01-23T13:35:05Z</time>
      </trkpt>
      <trkpt lat="44.48444" lon="0.94371">
        <ele>65.03</ele>
        <time>2016-01-23T13:35:07Z</time>
      </trkpt>
      <trkpt lat="44.48505" lon="0.94335">
        <ele>65.99</ele>
        <time>2016-01-23T13:35:22Z</time>
      </trkpt>
      <trkpt lat="44.48517" lon="0.94326">
        <ele>65.99</ele>
        <time>2016-01-23T13:35:25Z</time>
      </trkpt>
      <trkpt lat="44.48521" lon="0.94324">
        <ele>65.99</ele>
        <time>2016-01-23T13:35:26Z</time>
      </trkpt>
      <trkpt lat="44.48525" lon="0.94324">
        <ele>66.47</ele>
        <time>2016-01-23T13:35:27Z</time>
      </trkpt>
      <trkpt lat="44.48534" lon="0.94326">
        <ele>66.47</ele>
        <time>2016-01-23T13:35:29Z</time>
      </trkpt>
      <trkpt lat="44.48539" lon="0.94328">
        <ele>65.99</ele>
        <time>2016-01-23T13:35:30Z</time>
      </trkpt>
      <trkpt lat="44.48544" lon="0.94328">
        <ele>65.51</ele>
        <time>2016-01-23T13:35:31Z</time>
      </trkpt>
      <trkpt lat="44.48549" lon="0.94328">
        <ele>65.51</ele>
        <time>2016-01-23T13:35:32Z</time>
      </trkpt>
      <trkpt lat="44.48554" lon="0.94328">
        <ele>65.51</ele>
        <time>2016-01-23T13:35:33Z</time>
      </trkpt>
      <trkpt lat="44.48559" lon="0.94329">
        <ele>65.03</ele>
        <time>2016-01-23T13:35:34Z</time>
      </trkpt>
      <trkpt lat="44.48565" lon="0.94331">
        <ele>65.03</ele>
        <time>2016-01-23T13:35:35Z</time>
      </trkpt>
      <trkpt lat="44.48625" lon="0.94356">
        <ele>65.51</ele>
        <time>2016-01-23T13:35:48Z</time>
      </trkpt>
      <trkpt lat="44.48629" lon="0.94358">
        <ele>65.51</ele>
        <time>2016-01-23T13:35:49Z</time>
      </trkpt>
      <trkpt lat="44.48634" lon="0.9436">
        <ele>65.51</ele>
        <time>2016-01-23T13:35:50Z</time>
      </trkpt>
      <trkpt lat="44.48646" lon="0.94368">
        <ele>65.99</ele>
        <time>2016-01-23T13:35:53Z</time>
      </trkpt>
      <trkpt lat="44.4865" lon="0.94371">
        <ele>65.99</ele>
        <time>2016-01-23T13:35:54Z</time>
      </trkpt>
      <trkpt lat="44.48654" lon="0.94374">
        <ele>65.99</ele>
        <time>2016-01-23T13:35:55Z</time>
      </trkpt>
      <trkpt lat="44.48658" lon="0.94377">
        <ele>65.99</ele>
        <time>2016-01-23T13:35:56Z</time>
      </trkpt>
      <trkpt lat="44.48661" lon="0.94381">
        <ele>66.47</ele>
        <time>2016-01-23T13:35:57Z</time>
      </trkpt>
      <trkpt lat="44.48665" lon="0.94383">
        <ele>66.47</ele>
        <time>2016-01-23T13:35:58Z</time>
      </trkpt>
      <trkpt lat="44.48669" lon="0.94385">
        <ele>66.47</ele>
        <time>2016-01-23T13:35:59Z</time>
      </trkpt>
      <trkpt lat="44.48672" lon="0.94387">
        <ele>66.47</ele>
        <time>2016-01-23T13:36:00Z</time>
      </trkpt>
      <trkpt lat="44.48674" lon="0.94391">
        <ele>66.47</ele>
        <time>2016-01-23T13:36:01Z</time>
      </trkpt>
      <trkpt lat="44.48675" lon="0.94395">
        <ele>65.99</ele>
        <time>2016-01-23T13:36:02Z</time>
      </trkpt>
      <trkpt lat="44.48677" lon="0.94399">
        <ele>65.99</ele>
        <time>2016-01-23T13:36:03Z</time>
      </trkpt>
      <trkpt lat="44.48679" lon="0.94403">
        <ele>65.51</ele>
        <time>2016-01-23T13:36:04Z</time>
      </trkpt>
      <trkpt lat="44.48718" lon="0.94472">
        <ele>64.07</ele>
        <time>2016-01-23T13:36:18Z</time>
      </trkpt>
      <trkpt lat="44.48722" lon="0.94476">
        <ele>64.07</ele>
        <time>2016-01-23T13:36:19Z</time>
      </trkpt>
      <trkpt lat="44.48725" lon="0.9448">
        <ele>64.07</ele>
        <time>2016-01-23T13:36:20Z</time>
      </trkpt>
      <trkpt lat="44.48735" lon="0.94491">
        <ele>64.07</ele>
        <time>2016-01-23T13:36:23Z</time>
      </trkpt>
      <trkpt lat="44.48738" lon="0.94497">
        <ele>64.07</ele>
        <time>2016-01-23T13:36:24Z</time>
      </trkpt>
      <trkpt lat="44.48741" lon="0.94502">
        <ele>64.07</ele>
        <time>2016-01-23T13:36:25Z</time>
      </trkpt>
      <trkpt lat="44.48742" lon="0.94506">
        <ele>64.07</ele>
        <time>2016-01-23T13:36:26Z</time>
      </trkpt>
      <trkpt lat="44.48743" lon="0.94511">
        <ele>64.07</ele>
        <time>2016-01-23T13:36:27Z</time>
      </trkpt>
      <trkpt lat="44.48754" lon="0.94539">
        <ele>65.99</ele>
        <time>2016-01-23T13:36:33Z</time>
      </trkpt>
      <trkpt lat="44.4876" lon="0.94547">
        <ele>66.47</ele>
        <time>2016-01-23T13:36:35Z</time>
      </trkpt>
      <trkpt lat="44.48768" lon="0.9456">
        <ele>66.47</ele>
        <time>2016-01-23T13:36:38Z</time>
      </trkpt>
      <trkpt lat="44.48782" lon="0.94576">
        <ele>65.99</ele>
        <time>2016-01-23T13:36:42Z</time>
      </trkpt>
      <trkpt lat="44.48793" lon="0.94585">
        <ele>65.99</ele>
        <time>2016-01-23T13:36:45Z</time>
      </trkpt>
      <trkpt lat="44.48809" lon="0.94591">
        <ele>65.99</ele>
        <time>2016-01-23T13:36:49Z</time>
      </trkpt>
      <trkpt lat="44.48822" lon="0.94593">
        <ele>65.99</ele>
        <time>2016-01-23T13:36:52Z</time>
      </trkpt>
      <trkpt lat="44.4883" lon="0.94592">
        <ele>66.47</ele>
        <time>2016-01-23T13:36:54Z</time>
      </trkpt>
      <trkpt lat="44.48834" lon="0.9459">
        <ele>66.47</ele>
        <time>2016-01-23T13:36:55Z</time>
      </trkpt>
      <trkpt lat="44.48841" lon="0.94584">
        <ele>66.47</ele>
        <time>2016-01-23T13:36:57Z</time>
      </trkpt>
      <trkpt lat="44.48845" lon="0.94582">
        <ele>66.47</ele>
        <time>2016-01-23T13:36:58Z</time>
      </trkpt>
      <trkpt lat="44.48848" lon="0.9458">
        <ele>66.47</ele>
        <time>2016-01-23T13:36:59Z</time>
      </trkpt>
      <trkpt lat="44.48851" lon="0.94578">
        <ele>66.95</ele>
        <time>2016-01-23T13:37:00Z</time>
      </trkpt>
      <trkpt lat="44.48855" lon="0.94575">
        <ele>66.95</ele>
        <time>2016-01-23T13:37:01Z</time>
      </trkpt>
      <trkpt lat="44.48885" lon="0.94553">
        <ele>68.39</ele>
        <time>2016-01-23T13:37:12Z</time>
      </trkpt>
      <trkpt lat="44.48906" lon="0.94552">
        <ele>67.91</ele>
        <time>2016-01-23T13:37:21Z</time>
      </trkpt>
      <trkpt lat="44.4891" lon="0.94563">
        <ele>66.95</ele>
        <time>2016-01-23T13:37:24Z</time>
      </trkpt>
      <trkpt lat="44.48915" lon="0.94586">
        <ele>65.99</ele>
        <time>2016-01-23T13:37:28Z</time>
      </trkpt>
      <trkpt lat="44.48932" lon="0.9459">
        <ele>66.47</ele>
        <time>2016-01-23T13:37:33Z</time>
      </trkpt>
      <trkpt lat="44.48981" lon="0.94564">
        <ele>70.31</ele>
        <time>2016-01-23T13:37:46Z</time>
      </trkpt>
      <trkpt lat="44.49006" lon="0.94551">
        <ele>72.72</ele>
        <time>2016-01-23T13:37:53Z</time>
      </trkpt>
      <trkpt lat="44.49011" lon="0.94551">
        <ele>72.72</ele>
        <time>2016-01-23T13:37:54Z</time>
      </trkpt>
      <trkpt lat="44.49016" lon="0.9455">
        <ele>72.72</ele>
        <time>2016-01-23T13:37:55Z</time>
      </trkpt>
      <trkpt lat="44.49056" lon="0.94544">
        <ele>70.79</ele>
        <time>2016-01-23T13:38:04Z</time>
      </trkpt>
      <trkpt lat="44.49061" lon="0.94544">
        <ele>70.79</ele>
        <time>2016-01-23T13:38:05Z</time>
      </trkpt>
      <trkpt lat="44.49065" lon="0.94543">
        <ele>70.79</ele>
        <time>2016-01-23T13:38:06Z</time>
      </trkpt>
      <trkpt lat="44.49115" lon="0.94539">
        <ele>68.39</ele>
        <time>2016-01-23T13:38:17Z</time>
      </trkpt>
      <trkpt lat="44.4912" lon="0.9454">
        <ele>67.91</ele>
        <time>2016-01-23T13:38:18Z</time>
      </trkpt>
      <trkpt lat="44.49135" lon="0.94545">
        <ele>67.43</ele>
        <time>2016-01-23T13:38:21Z</time>
      </trkpt>
      <trkpt lat="44.49139" lon="0.94545">
        <ele>67.43</ele>
        <time>2016-01-23T13:38:22Z</time>
      </trkpt>
      <trkpt lat="44.49153" lon="0.94543">
        <ele>67.43</ele>
        <time>2016-01-23T13:38:25Z</time>
      </trkpt>
      <trkpt lat="44.49224" lon="0.94528">
        <ele>67.43</ele>
        <time>2016-01-23T13:38:41Z</time>
      </trkpt>
      <trkpt lat="44.49259" lon="0.94515">
        <ele>69.35</ele>
        <time>2016-01-23T13:38:53Z</time>
      </trkpt>
      <trkpt lat="44.49259" lon="0.94515">
        <ele>68.87</ele>
        <time>2016-01-23T13:39:19Z</time>
      </trkpt>
      <trkpt lat="44.4926" lon="0.94513">
        <ele>67.91</ele>
        <time>2016-01-23T13:39:40Z</time>
      </trkpt>
      <trkpt lat="44.49259" lon="0.94511">
        <ele>67.91</ele>
        <time>2016-01-23T13:39:41Z</time>
      </trkpt>
      <trkpt lat="44.49259" lon="0.94508">
        <ele>67.91</ele>
        <time>2016-01-23T13:39:42Z</time>
      </trkpt>
      <trkpt lat="44.49259" lon="0.94504">
        <ele>68.39</ele>
        <time>2016-01-23T13:39:43Z</time>
      </trkpt>
      <trkpt lat="44.49259" lon="0.94502">
        <ele>68.87</ele>
        <time>2016-01-23T13:39:44Z</time>
      </trkpt>
      <trkpt lat="44.49258" lon="0.94498">
        <ele>69.35</ele>
        <time>2016-01-23T13:39:45Z</time>
      </trkpt>
      <trkpt lat="44.49258" lon="0.94494">
        <ele>69.83</ele>
        <time>2016-01-23T13:39:46Z</time>
      </trkpt>
      <trkpt lat="44.49259" lon="0.94471">
        <ele>70.79</ele>
        <time>2016-01-23T13:39:51Z</time>
      </trkpt>
      <trkpt lat="44.49286" lon="0.94426">
        <ele>74.16</ele>
        <time>2016-01-23T13:40:04Z</time>
      </trkpt>
      <trkpt lat="44.4932" lon="0.94366">
        <ele>78.97</ele>
        <time>2016-01-23T13:40:21Z</time>
      </trkpt>
      <trkpt lat="44.4936" lon="0.9433">
        <ele>82.33</ele>
        <time>2016-01-23T13:40:36Z</time>
      </trkpt>
      <trkpt lat="44.49422" lon="0.94319">
        <ele>86.66</ele>
        <time>2016-01-23T13:40:55Z</time>
      </trkpt>
      <trkpt lat="44.49473" lon="0.94301">
        <ele>89.06</ele>
        <time>2016-01-23T13:41:10Z</time>
      </trkpt>
      <trkpt lat="44.4953" lon="0.94246">
        <ele>85.69</ele>
        <time>2016-01-23T13:41:21Z</time>
      </trkpt>
      <trkpt lat="44.49563" lon="0.94201">
        <ele>85.69</ele>
        <time>2016-01-23T13:41:31Z</time>
      </trkpt>
      <trkpt lat="44.49605" lon="0.94134">
        <ele>91.46</ele>
        <time>2016-01-23T13:41:46Z</time>
      </trkpt>
      <trkpt lat="44.49654" lon="0.94066">
        <ele>93.87</ele>
        <time>2016-01-23T13:42:00Z</time>
      </trkpt>
      <trkpt lat="44.49664" lon="0.94052">
        <ele>93.87</ele>
        <time>2016-01-23T13:42:03Z</time>
      </trkpt>
      <trkpt lat="44.49666" lon="0.94048">
        <ele>93.87</ele>
        <time>2016-01-23T13:42:04Z</time>
      </trkpt>
      <trkpt lat="44.49669" lon="0.94042">
        <ele>93.87</ele>
        <time>2016-01-23T13:42:05Z</time>
      </trkpt>
      <trkpt lat="44.49681" lon="0.94009">
        <ele>92.9</ele>
        <time>2016-01-23T13:42:11Z</time>
      </trkpt>
      <trkpt lat="44.49701" lon="0.93986">
        <ele>92.42</ele>
        <time>2016-01-23T13:42:18Z</time>
      </trkpt>
      <trkpt lat="44.49704" lon="0.93987">
        <ele>91.94</ele>
        <time>2016-01-23T13:42:19Z</time>
      </trkpt>
      <trkpt lat="44.49707" lon="0.9399">
        <ele>91.46</ele>
        <time>2016-01-23T13:42:20Z</time>
      </trkpt>
      <trkpt lat="44.49709" lon="0.93995">
        <ele>90.98</ele>
        <time>2016-01-23T13:42:21Z</time>
      </trkpt>
      <trkpt lat="44.49713" lon="0.94">
        <ele>90.5</ele>
        <time>2016-01-23T13:42:22Z</time>
      </trkpt>
      <trkpt lat="44.4976" lon="0.94079">
        <ele>83.77</ele>
        <time>2016-01-23T13:42:32Z</time>
      </trkpt>
      <trkpt lat="44.4977" lon="0.94098">
        <ele>82.33</ele>
        <time>2016-01-23T13:42:34Z</time>
      </trkpt>
      <trkpt lat="44.49774" lon="0.94108">
        <ele>81.85</ele>
        <time>2016-01-23T13:42:35Z</time>
      </trkpt>
      <trkpt lat="44.49777" lon="0.94119">
        <ele>81.37</ele>
        <time>2016-01-23T13:42:36Z</time>
      </trkpt>
      <trkpt lat="44.49778" lon="0.94131">
        <ele>80.89</ele>
        <time>2016-01-23T13:42:37Z</time>
      </trkpt>
      <trkpt lat="44.49779" lon="0.94142">
        <ele>80.41</ele>
        <time>2016-01-23T13:42:38Z</time>
      </trkpt>
      <trkpt lat="44.49786" lon="0.94214">
        <ele>74.16</ele>
        <time>2016-01-23T13:42:47Z</time>
      </trkpt>
      <trkpt lat="44.49792" lon="0.94232">
        <ele>72.72</ele>
        <time>2016-01-23T13:42:51Z</time>
      </trkpt>
      <trkpt lat="44.49795" lon="0.94234">
        <ele>72.72</ele>
        <time>2016-01-23T13:42:52Z</time>
      </trkpt>
      <trkpt lat="44.49799" lon="0.94235">
        <ele>72.24</ele>
        <time>2016-01-23T13:42:53Z</time>
      </trkpt>
      <trkpt lat="44.49804" lon="0.94234">
        <ele>71.76</ele>
        <time>2016-01-23T13:42:54Z</time>
      </trkpt>
      <trkpt lat="44.49808" lon="0.94233">
        <ele>71.76</ele>
        <time>2016-01-23T13:42:55Z</time>
      </trkpt>
      <trkpt lat="44.49812" lon="0.94231">
        <ele>71.27</ele>
        <time>2016-01-23T13:42:56Z</time>
      </trkpt>
      <trkpt lat="44.49831" lon="0.94222">
        <ele>70.31</ele>
        <time>2016-01-23T13:43:00Z</time>
      </trkpt>
      <trkpt lat="44.49845" lon="0.94219">
        <ele>69.83</ele>
        <time>2016-01-23T13:43:03Z</time>
      </trkpt>
      <trkpt lat="44.49849" lon="0.94219">
        <ele>70.31</ele>
        <time>2016-01-23T13:43:04Z</time>
      </trkpt>
      <trkpt lat="44.49883" lon="0.94216">
        <ele>69.83</ele>
        <time>2016-01-23T13:43:12Z</time>
      </trkpt>
      <trkpt lat="44.49957" lon="0.9421">
        <ele>70.79</ele>
        <time>2016-01-23T13:43:29Z</time>
      </trkpt>
      <trkpt lat="44.49965" lon="0.94209">
        <ele>70.79</ele>
        <time>2016-01-23T13:43:31Z</time>
      </trkpt>
      <trkpt lat="44.4997" lon="0.94209">
        <ele>70.79</ele>
        <time>2016-01-23T13:43:32Z</time>
      </trkpt>
      <trkpt lat="44.50025" lon="0.94214">
        <ele>73.2</ele>
        <time>2016-01-23T13:43:47Z</time>
      </trkpt>
      <trkpt lat="44.50043" lon="0.94219">
        <ele>73.2</ele>
        <time>2016-01-23T13:43:52Z</time>
      </trkpt>
      <trkpt lat="44.50047" lon="0.94219">
        <ele>73.2</ele>
        <time>2016-01-23T13:43:53Z</time>
      </trkpt>
      <trkpt lat="44.50099" lon="0.94216">
        <ele>76.56</ele>
        <time>2016-01-23T13:44:07Z</time>
      </trkpt>
      <trkpt lat="44.50118" lon="0.94209">
        <ele>78</ele>
        <time>2016-01-23T13:44:12Z</time>
      </trkpt>
      <trkpt lat="44.50122" lon="0.94208">
        <ele>78</ele>
        <time>2016-01-23T13:44:13Z</time>
      </trkpt>
      <trkpt lat="44.5014" lon="0.94206">
        <ele>78</ele>
        <time>2016-01-23T13:44:19Z</time>
      </trkpt>
      <trkpt lat="44.50149" lon="0.94205">
        <ele>77.04</ele>
        <time>2016-01-23T13:44:21Z</time>
      </trkpt>
      <trkpt lat="44.50153" lon="0.94205">
        <ele>76.56</ele>
        <time>2016-01-23T13:44:22Z</time>
      </trkpt>
      <trkpt lat="44.50157" lon="0.94204">
        <ele>76.08</ele>
        <time>2016-01-23T13:44:23Z</time>
      </trkpt>
      <trkpt lat="44.5018" lon="0.94199">
        <ele>74.64</ele>
        <time>2016-01-23T13:44:28Z</time>
      </trkpt>
      <trkpt lat="44.50184" lon="0.94198">
        <ele>74.64</ele>
        <time>2016-01-23T13:44:29Z</time>
      </trkpt>
      <trkpt lat="44.50238" lon="0.94188">
        <ele>73.68</ele>
        <time>2016-01-23T13:44:43Z</time>
      </trkpt>
      <trkpt lat="44.50299" lon="0.94187">
        <ele>73.68</ele>
        <time>2016-01-23T13:44:59Z</time>
      </trkpt>
      <trkpt lat="44.50367" lon="0.94182">
        <ele>73.2</ele>
        <time>2016-01-23T13:45:16Z</time>
      </trkpt>
      <trkpt lat="44.50379" lon="0.9418">
        <ele>73.68</ele>
        <time>2016-01-23T13:45:19Z</time>
      </trkpt>
      <trkpt lat="44.50383" lon="0.9418">
        <ele>73.68</ele>
        <time>2016-01-23T13:45:20Z</time>
      </trkpt>
      <trkpt lat="44.50429" lon="0.94176">
        <ele>74.16</ele>
        <time>2016-01-23T13:45:31Z</time>
      </trkpt>
      <trkpt lat="44.50446" lon="0.94176">
        <ele>74.16</ele>
        <time>2016-01-23T13:45:35Z</time>
      </trkpt>
      <trkpt lat="44.5045" lon="0.94176">
        <ele>74.16</ele>
        <time>2016-01-23T13:45:36Z</time>
      </trkpt>
      <trkpt lat="44.50454" lon="0.94176">
        <ele>74.16</ele>
        <time>2016-01-23T13:45:37Z</time>
      </trkpt>
      <trkpt lat="44.50466" lon="0.94175">
        <ele>74.16</ele>
        <time>2016-01-23T13:45:40Z</time>
      </trkpt>
      <trkpt lat="44.5047" lon="0.94174">
        <ele>74.16</ele>
        <time>2016-01-23T13:45:41Z</time>
      </trkpt>
      <trkpt lat="44.50474" lon="0.94173">
        <ele>74.64</ele>
        <time>2016-01-23T13:45:42Z</time>
      </trkpt>
      <trkpt lat="44.50479" lon="0.94172">
        <ele>74.64</ele>
        <time>2016-01-23T13:45:43Z</time>
      </trkpt>
      <trkpt lat="44.50483" lon="0.94172">
        <ele>74.64</ele>
        <time>2016-01-23T13:45:44Z</time>
      </trkpt>
      <trkpt lat="44.50487" lon="0.94172">
        <ele>74.64</ele>
        <time>2016-01-23T13:45:45Z</time>
      </trkpt>
      <trkpt lat="44.50496" lon="0.94172">
        <ele>74.16</ele>
        <time>2016-01-23T13:45:47Z</time>
      </trkpt>
      <trkpt lat="44.50517" lon="0.94171">
        <ele>74.64</ele>
        <time>2016-01-23T13:45:52Z</time>
      </trkpt>
      <trkpt lat="44.50526" lon="0.94169">
        <ele>74.64</ele>
        <time>2016-01-23T13:45:54Z</time>
      </trkpt>
      <trkpt lat="44.5056" lon="0.94166">
        <ele>75.6</ele>
        <time>2016-01-23T13:46:02Z</time>
      </trkpt>
      <trkpt lat="44.50564" lon="0.94165">
        <ele>75.6</ele>
        <time>2016-01-23T13:46:03Z</time>
      </trkpt>
      <trkpt lat="44.50647" lon="0.94157">
        <ele>78.48</ele>
        <time>2016-01-23T13:46:23Z</time>
      </trkpt>
      <trkpt lat="44.50703" lon="0.94146">
        <ele>81.37</ele>
        <time>2016-01-23T13:46:38Z</time>
      </trkpt>
      <trkpt lat="44.50715" lon="0.94139">
        <ele>81.85</ele>
        <time>2016-01-23T13:46:43Z</time>
      </trkpt>
      <trkpt lat="44.50716" lon="0.94136">
        <ele>82.81</ele>
        <time>2016-01-23T13:46:44Z</time>
      </trkpt>
      <trkpt lat="44.50716" lon="0.94134">
        <ele>83.29</ele>
        <time>2016-01-23T13:46:45Z</time>
      </trkpt>
      <trkpt lat="44.50717" lon="0.94133">
        <ele>82.81</ele>
        <time>2016-01-23T13:46:58Z</time>
      </trkpt>
      <trkpt lat="44.50717" lon="0.94132">
        <ele>82.81</ele>
        <time>2016-01-23T13:47:19Z</time>
      </trkpt>
      <trkpt lat="44.50717" lon="0.94132">
        <ele>82.33</ele>
        <time>2016-01-23T13:47:37Z</time>
      </trkpt>
      <trkpt lat="44.50718" lon="0.94132">
        <ele>82.33</ele>
        <time>2016-01-23T13:48:03Z</time>
      </trkpt>
      <trkpt lat="44.50718" lon="0.94132">
        <ele>82.33</ele>
        <time>2016-01-23T13:48:24Z</time>
      </trkpt>
      <trkpt lat="44.50718" lon="0.94131">
        <ele>82.33</ele>
        <time>2016-01-23T13:48:45Z</time>
      </trkpt>
      <trkpt lat="44.50718" lon="0.94131">
        <ele>83.77</ele>
        <time>2016-01-23T13:49:03Z</time>
      </trkpt>
      <trkpt lat="44.50718" lon="0.94131">
        <ele>83.77</ele>
        <time>2016-01-23T13:49:25Z</time>
      </trkpt>
      <trkpt lat="44.50718" lon="0.94123">
        <ele>85.21</ele>
        <time>2016-01-23T13:49:44Z</time>
      </trkpt>
      <trkpt lat="44.50706" lon="0.94081">
        <ele>84.25</ele>
        <time>2016-01-23T13:49:55Z</time>
      </trkpt>
      <trkpt lat="44.5068" lon="0.94015">
        <ele>82.81</ele>
        <time>2016-01-23T13:50:06Z</time>
      </trkpt>
      <trkpt lat="44.50676" lon="0.94002">
        <ele>82.81</ele>
        <time>2016-01-23T13:50:08Z</time>
      </trkpt>
      <trkpt lat="44.50672" lon="0.93964">
        <ele>83.77</ele>
        <time>2016-01-23T13:50:14Z</time>
      </trkpt>
      <trkpt lat="44.50671" lon="0.93946">
        <ele>84.25</ele>
        <time>2016-01-23T13:50:17Z</time>
      </trkpt>
      <trkpt lat="44.50667" lon="0.93847">
        <ele>84.25</ele>
        <time>2016-01-23T13:50:33Z</time>
      </trkpt>
      <trkpt lat="44.50662" lon="0.93737">
        <ele>86.66</ele>
        <time>2016-01-23T13:50:51Z</time>
      </trkpt>
      <trkpt lat="44.50661" lon="0.9372">
        <ele>87.62</ele>
        <time>2016-01-23T13:51:01Z</time>
      </trkpt>
      <trkpt lat="44.50661" lon="0.93709">
        <ele>88.1</ele>
        <time>2016-01-23T13:51:22Z</time>
      </trkpt>
      <trkpt lat="44.50657" lon="0.93624">
        <ele>88.58</ele>
        <time>2016-01-23T13:51:38Z</time>
      </trkpt>
      <trkpt lat="44.50655" lon="0.9359">
        <ele>88.58</ele>
        <time>2016-01-23T13:51:44Z</time>
      </trkpt>
      <trkpt lat="44.50656" lon="0.93585">
        <ele>89.06</ele>
        <time>2016-01-23T13:51:45Z</time>
      </trkpt>
      <trkpt lat="44.50657" lon="0.9358">
        <ele>89.06</ele>
        <time>2016-01-23T13:51:46Z</time>
      </trkpt>
      <trkpt lat="44.50659" lon="0.93576">
        <ele>89.54</ele>
        <time>2016-01-23T13:51:47Z</time>
      </trkpt>
      <trkpt lat="44.50661" lon="0.93571">
        <ele>90.02</ele>
        <time>2016-01-23T13:51:48Z</time>
      </trkpt>
      <trkpt lat="44.50662" lon="0.93567">
        <ele>90.5</ele>
        <time>2016-01-23T13:51:49Z</time>
      </trkpt>
      <trkpt lat="44.50664" lon="0.93562">
        <ele>90.5</ele>
        <time>2016-01-23T13:51:50Z</time>
      </trkpt>
      <trkpt lat="44.50665" lon="0.93557">
        <ele>90.98</ele>
        <time>2016-01-23T13:51:51Z</time>
      </trkpt>
      <trkpt lat="44.50681" lon="0.93489">
        <ele>92.9</ele>
        <time>2016-01-23T13:52:05Z</time>
      </trkpt>
      <trkpt lat="44.507" lon="0.93425">
        <ele>94.83</ele>
        <time>2016-01-23T13:52:18Z</time>
      </trkpt>
      <trkpt lat="44.5072" lon="0.93363">
        <ele>99.15</ele>
        <time>2016-01-23T13:52:31Z</time>
      </trkpt>
      <trkpt lat="44.50734" lon="0.93309">
        <ele>106.84</ele>
        <time>2016-01-23T13:52:44Z</time>
      </trkpt>
      <trkpt lat="44.50746" lon="0.93249">
        <ele>109.73</ele>
        <time>2016-01-23T13:52:58Z</time>
      </trkpt>
      <trkpt lat="44.5075" lon="0.93238">
        <ele>110.21</ele>
        <time>2016-01-23T13:53:01Z</time>
      </trkpt>
      <trkpt lat="44.50752" lon="0.93236">
        <ele>110.21</ele>
        <time>2016-01-23T13:53:02Z</time>
      </trkpt>
      <trkpt lat="44.50755" lon="0.93236">
        <ele>110.21</ele>
        <time>2016-01-23T13:53:03Z</time>
      </trkpt>
      <trkpt lat="44.50762" lon="0.93237">
        <ele>110.69</ele>
        <time>2016-01-23T13:53:06Z</time>
      </trkpt>
      <trkpt lat="44.50765" lon="0.93235">
        <ele>111.17</ele>
        <time>2016-01-23T13:53:07Z</time>
      </trkpt>
      <trkpt lat="44.50767" lon="0.93233">
        <ele>111.17</ele>
        <time>2016-01-23T13:53:08Z</time>
      </trkpt>
      <trkpt lat="44.50796" lon="0.93201">
        <ele>113.57</ele>
        <time>2016-01-23T13:53:20Z</time>
      </trkpt>
      <trkpt lat="44.5083" lon="0.93161">
        <ele>115.98</ele>
        <time>2016-01-23T13:53:34Z</time>
      </trkpt>
      <trkpt lat="44.5086" lon="0.9313">
        <ele>119.34</ele>
        <time>2016-01-23T13:53:46Z</time>
      </trkpt>
      <trkpt lat="44.50879" lon="0.93095">
        <ele>121.26</ele>
        <time>2016-01-23T13:53:58Z</time>
      </trkpt>
      <trkpt lat="44.50906" lon="0.9306">
        <ele>120.78</ele>
        <time>2016-01-23T13:54:12Z</time>
      </trkpt>
      <trkpt lat="44.50933" lon="0.9303">
        <ele>120.3</ele>
        <time>2016-01-23T13:54:26Z</time>
      </trkpt>
      <trkpt lat="44.50956" lon="0.93001">
        <ele>124.15</ele>
        <time>2016-01-23T13:54:40Z</time>
      </trkpt>
      <trkpt lat="44.5098" lon="0.92975">
        <ele>125.11</ele>
        <time>2016-01-23T13:54:52Z</time>
      </trkpt>
      <trkpt lat="44.51007" lon="0.92947">
        <ele>125.11</ele>
        <time>2016-01-23T13:55:06Z</time>
      </trkpt>
      <trkpt lat="44.51032" lon="0.9292">
        <ele>125.11</ele>
        <time>2016-01-23T13:55:15Z</time>
      </trkpt>
      <trkpt lat="44.51038" lon="0.92911">
        <ele>125.11</ele>
        <time>2016-01-23T13:55:17Z</time>
      </trkpt>
      <trkpt lat="44.51049" lon="0.92902">
        <ele>124.63</ele>
        <time>2016-01-23T13:55:20Z</time>
      </trkpt>
      <trkpt lat="44.5107" lon="0.92869">
        <ele>121.26</ele>
        <time>2016-01-23T13:55:29Z</time>
      </trkpt>
      <trkpt lat="44.51091" lon="0.92844">
        <ele>119.34</ele>
        <time>2016-01-23T13:55:35Z</time>
      </trkpt>
      <trkpt lat="44.51115" lon="0.92819">
        <ele>115.98</ele>
        <time>2016-01-23T13:55:42Z</time>
      </trkpt>
      <trkpt lat="44.51109" lon="0.92776">
        <ele>116.46</ele>
        <time>2016-01-23T13:55:52Z</time>
      </trkpt>
      <trkpt lat="44.51104" lon="0.92749">
        <ele>115.5</ele>
        <time>2016-01-23T13:55:57Z</time>
      </trkpt>
      <trkpt lat="44.51105" lon="0.92741">
        <ele>114.05</ele>
        <time>2016-01-23T13:56:05Z</time>
      </trkpt>
      <trkpt lat="44.51107" lon="0.92741">
        <ele>114.05</ele>
        <time>2016-01-23T13:56:29Z</time>
      </trkpt>
      <trkpt lat="44.51107" lon="0.92738">
        <ele>114.05</ele>
        <time>2016-01-23T13:56:52Z</time>
      </trkpt>
      <trkpt lat="44.51106" lon="0.92739">
        <ele>114.53</ele>
        <time>2016-01-23T13:57:10Z</time>
      </trkpt>
      <trkpt lat="44.51107" lon="0.92739">
        <ele>112.61</ele>
        <time>2016-01-23T13:57:23Z</time>
      </trkpt>
      <trkpt lat="44.51107" lon="0.92739">
        <ele>112.13</ele>
        <time>2016-01-23T13:57:38Z</time>
      </trkpt>
      <trkpt lat="44.51106" lon="0.92741">
        <ele>112.13</ele>
        <time>2016-01-23T13:58:00Z</time>
      </trkpt>
      <trkpt lat="44.51106" lon="0.92741">
        <ele>113.09</ele>
        <time>2016-01-23T13:58:23Z</time>
      </trkpt>
      <trkpt lat="44.51107" lon="0.92741">
        <ele>113.57</ele>
        <time>2016-01-23T13:58:40Z</time>
      </trkpt>
      <trkpt lat="44.51108" lon="0.92742">
        <ele>110.21</ele>
        <time>2016-01-23T13:59:04Z</time>
      </trkpt>
      <trkpt lat="44.51123" lon="0.92742">
        <ele>110.21</ele>
        <time>2016-01-23T13:59:10Z</time>
      </trkpt>
      <trkpt lat="44.51127" lon="0.92746">
        <ele>110.21</ele>
        <time>2016-01-23T13:59:11Z</time>
      </trkpt>
      <trkpt lat="44.51131" lon="0.92751">
        <ele>110.21</ele>
        <time>2016-01-23T13:59:12Z</time>
      </trkpt>
      <trkpt lat="44.51134" lon="0.92757">
        <ele>110.21</ele>
        <time>2016-01-23T13:59:13Z</time>
      </trkpt>
      <trkpt lat="44.51138" lon="0.92764">
        <ele>110.21</ele>
        <time>2016-01-23T13:59:14Z</time>
      </trkpt>
      <trkpt lat="44.51142" lon="0.92775">
        <ele>109.73</ele>
        <time>2016-01-23T13:59:16Z</time>
      </trkpt>
      <trkpt lat="44.51144" lon="0.92782">
        <ele>109.25</ele>
        <time>2016-01-23T13:59:17Z</time>
      </trkpt>
      <trkpt lat="44.51145" lon="0.92788">
        <ele>109.25</ele>
        <time>2016-01-23T13:59:18Z</time>
      </trkpt>
      <trkpt lat="44.51147" lon="0.92795">
        <ele>109.25</ele>
        <time>2016-01-23T13:59:19Z</time>
      </trkpt>
      <trkpt lat="44.5115" lon="0.92801">
        <ele>108.77</ele>
        <time>2016-01-23T13:59:20Z</time>
      </trkpt>
      <trkpt lat="44.51152" lon="0.92808">
        <ele>108.29</ele>
        <time>2016-01-23T13:59:21Z</time>
      </trkpt>
      <trkpt lat="44.51157" lon="0.92821">
        <ele>107.81</ele>
        <time>2016-01-23T13:59:23Z</time>
      </trkpt>
      <trkpt lat="44.51158" lon="0.92829">
        <ele>107.32</ele>
        <time>2016-01-23T13:59:24Z</time>
      </trkpt>
      <trkpt lat="44.51166" lon="0.92884">
        <ele>104.44</ele>
        <time>2016-01-23T13:59:30Z</time>
      </trkpt>
      <trkpt lat="44.51168" lon="0.9291">
        <ele>103</ele>
        <time>2016-01-23T13:59:33Z</time>
      </trkpt>
      <trkpt lat="44.5117" lon="0.92916">
        <ele>102.52</ele>
        <time>2016-01-23T13:59:34Z</time>
      </trkpt>
      <trkpt lat="44.51174" lon="0.9292">
        <ele>101.56</ele>
        <time>2016-01-23T13:59:35Z</time>
      </trkpt>
      <trkpt lat="44.5118" lon="0.92923">
        <ele>101.08</ele>
        <time>2016-01-23T13:59:36Z</time>
      </trkpt>
      <trkpt lat="44.51185" lon="0.92927">
        <ele>100.6</ele>
        <time>2016-01-23T13:59:37Z</time>
      </trkpt>
      <trkpt lat="44.51191" lon="0.92932">
        <ele>100.6</ele>
        <time>2016-01-23T13:59:38Z</time>
      </trkpt>
      <trkpt lat="44.51195" lon="0.92938">
        <ele>100.11</ele>
        <time>2016-01-23T13:59:39Z</time>
      </trkpt>
      <trkpt lat="44.51199" lon="0.92945">
        <ele>100.11</ele>
        <time>2016-01-23T13:59:40Z</time>
      </trkpt>
      <trkpt lat="44.51202" lon="0.92951">
        <ele>99.63</ele>
        <time>2016-01-23T13:59:41Z</time>
      </trkpt>
      <trkpt lat="44.51205" lon="0.92958">
        <ele>99.15</ele>
        <time>2016-01-23T13:59:42Z</time>
      </trkpt>
      <trkpt lat="44.51208" lon="0.92966">
        <ele>98.67</ele>
        <time>2016-01-23T13:59:43Z</time>
      </trkpt>
      <trkpt lat="44.51214" lon="0.92981">
        <ele>98.19</ele>
        <time>2016-01-23T13:59:45Z</time>
      </trkpt>
      <trkpt lat="44.51217" lon="0.92987">
        <ele>97.71</ele>
        <time>2016-01-23T13:59:46Z</time>
      </trkpt>
      <trkpt lat="44.51222" lon="0.9299">
        <ele>97.23</ele>
        <time>2016-01-23T13:59:47Z</time>
      </trkpt>
      <trkpt lat="44.51226" lon="0.92991">
        <ele>96.75</ele>
        <time>2016-01-23T13:59:48Z</time>
      </trkpt>
      <trkpt lat="44.51231" lon="0.92989">
        <ele>96.75</ele>
        <time>2016-01-23T13:59:49Z</time>
      </trkpt>
      <trkpt lat="44.51235" lon="0.92986">
        <ele>96.75</ele>
        <time>2016-01-23T13:59:50Z</time>
      </trkpt>
      <trkpt lat="44.51239" lon="0.92982">
        <ele>96.75</ele>
        <time>2016-01-23T13:59:51Z</time>
      </trkpt>
      <trkpt lat="44.51242" lon="0.92979">
        <ele>97.23</ele>
        <time>2016-01-23T13:59:52Z</time>
      </trkpt>
      <trkpt lat="44.5125" lon="0.92973">
        <ele>98.19</ele>
        <time>2016-01-23T13:59:54Z</time>
      </trkpt>
      <trkpt lat="44.51254" lon="0.9297">
        <ele>98.19</ele>
        <time>2016-01-23T13:59:55Z</time>
      </trkpt>
      <trkpt lat="44.51258" lon="0.92967">
        <ele>98.67</ele>
        <time>2016-01-23T13:59:56Z</time>
      </trkpt>
      <trkpt lat="44.51307" lon="0.92928">
        <ele>103.48</ele>
        <time>2016-01-23T14:00:11Z</time>
      </trkpt>
      <trkpt lat="44.51323" lon="0.92922">
        <ele>103.96</ele>
        <time>2016-01-23T14:00:18Z</time>
      </trkpt>
      <trkpt lat="44.51324" lon="0.92924">
        <ele>103.96</ele>
        <time>2016-01-23T14:00:19Z</time>
      </trkpt>
      <trkpt lat="44.51325" lon="0.92926">
        <ele>103.96</ele>
        <time>2016-01-23T14:00:20Z</time>
      </trkpt>
      <trkpt lat="44.51337" lon="0.92958">
        <ele>103</ele>
        <time>2016-01-23T14:00:33Z</time>
      </trkpt>
      <trkpt lat="44.51353" lon="0.93002">
        <ele>103</ele>
        <time>2016-01-23T14:00:45Z</time>
      </trkpt>
      <trkpt lat="44.51361" lon="0.93037">
        <ele>103</ele>
        <time>2016-01-23T14:00:52Z</time>
      </trkpt>
      <trkpt lat="44.51362" lon="0.93044">
        <ele>103</ele>
        <time>2016-01-23T14:00:53Z</time>
      </trkpt>
      <trkpt lat="44.51364" lon="0.93059">
        <ele>103</ele>
        <time>2016-01-23T14:00:55Z</time>
      </trkpt>
      <trkpt lat="44.51364" lon="0.93068">
        <ele>103</ele>
        <time>2016-01-23T14:00:56Z</time>
      </trkpt>
      <trkpt lat="44.51373" lon="0.93131">
        <ele>100.6</ele>
        <time>2016-01-23T14:01:02Z</time>
      </trkpt>
      <trkpt lat="44.51373" lon="0.93143">
        <ele>100.11</ele>
        <time>2016-01-23T14:01:03Z</time>
      </trkpt>
      <trkpt lat="44.51401" lon="0.9328">
        <ele>94.83</ele>
        <time>2016-01-23T14:01:14Z</time>
      </trkpt>
      <trkpt lat="44.51416" lon="0.93323">
        <ele>93.87</ele>
        <time>2016-01-23T14:01:19Z</time>
      </trkpt>
      <trkpt lat="44.51424" lon="0.93335">
        <ele>92.9</ele>
        <time>2016-01-23T14:01:22Z</time>
      </trkpt>
      <trkpt lat="44.51426" lon="0.93335">
        <ele>92.42</ele>
        <time>2016-01-23T14:01:23Z</time>
      </trkpt>
      <trkpt lat="44.51426" lon="0.93334">
        <ele>92.42</ele>
        <time>2016-01-23T14:01:24Z</time>
      </trkpt>
      <trkpt lat="44.51427" lon="0.93332">
        <ele>92.42</ele>
        <time>2016-01-23T14:01:25Z</time>
      </trkpt>
      <trkpt lat="44.51436" lon="0.9331">
        <ele>92.42</ele>
        <time>2016-01-23T14:01:38Z</time>
      </trkpt>
      <trkpt lat="44.51446" lon="0.93277">
        <ele>94.83</ele>
        <time>2016-01-23T14:01:49Z</time>
      </trkpt>
      <trkpt lat="44.51455" lon="0.93244">
        <ele>98.67</ele>
        <time>2016-01-23T14:02:00Z</time>
      </trkpt>
      <trkpt lat="44.51457" lon="0.93236">
        <ele>100.11</ele>
        <time>2016-01-23T14:02:03Z</time>
      </trkpt>
      <trkpt lat="44.51463" lon="0.93228">
        <ele>101.56</ele>
        <time>2016-01-23T14:02:07Z</time>
      </trkpt>
      <trkpt lat="44.51467" lon="0.93219">
        <ele>104.44</ele>
        <time>2016-01-23T14:02:12Z</time>
      </trkpt>
      <trkpt lat="44.51487" lon="0.93199">
        <ele>109.25</ele>
        <time>2016-01-23T14:02:23Z</time>
      </trkpt>
      <trkpt lat="44.51509" lon="0.93183">
        <ele>110.21</ele>
        <time>2016-01-23T14:02:33Z</time>
      </trkpt>
      <trkpt lat="44.51515" lon="0.9318">
        <ele>109.73</ele>
        <time>2016-01-23T14:02:36Z</time>
      </trkpt>
      <trkpt lat="44.51531" lon="0.93174">
        <ele>109.73</ele>
        <time>2016-01-23T14:02:43Z</time>
      </trkpt>
      <trkpt lat="44.51559" lon="0.93155">
        <ele>111.17</ele>
        <time>2016-01-23T14:02:56Z</time>
      </trkpt>
      <trkpt lat="44.5159" lon="0.93136">
        <ele>110.21</ele>
        <time>2016-01-23T14:03:09Z</time>
      </trkpt>
      <trkpt lat="44.51623" lon="0.93118">
        <ele>112.13</ele>
        <time>2016-01-23T14:03:24Z</time>
      </trkpt>
      <trkpt lat="44.51646" lon="0.93102">
        <ele>113.09</ele>
        <time>2016-01-23T14:03:35Z</time>
      </trkpt>
      <trkpt lat="44.51668" lon="0.93087">
        <ele>113.09</ele>
        <time>2016-01-23T14:03:47Z</time>
      </trkpt>
      <trkpt lat="44.51691" lon="0.93076">
        <ele>113.09</ele>
        <time>2016-01-23T14:03:58Z</time>
      </trkpt>
      <trkpt lat="44.51694" lon="0.93076">
        <ele>113.57</ele>
        <time>2016-01-23T14:04:09Z</time>
      </trkpt>
      <trkpt lat="44.51695" lon="0.93076">
        <ele>113.09</ele>
        <time>2016-01-23T14:04:29Z</time>
      </trkpt>
      <trkpt lat="44.51696" lon="0.93075">
        <ele>112.13</ele>
        <time>2016-01-23T14:04:47Z</time>
      </trkpt>
      <trkpt lat="44.51697" lon="0.93075">
        <ele>111.65</ele>
        <time>2016-01-23T14:04:57Z</time>
      </trkpt>
      <trkpt lat="44.51698" lon="0.93073">
        <ele>111.65</ele>
        <time>2016-01-23T14:04:58Z</time>
      </trkpt>
      <trkpt lat="44.51699" lon="0.9307">
        <ele>111.65</ele>
        <time>2016-01-23T14:04:59Z</time>
      </trkpt>
      <trkpt lat="44.51704" lon="0.93021">
        <ele>114.05</ele>
        <time>2016-01-23T14:05:12Z</time>
      </trkpt>
      <trkpt lat="44.517" lon="0.9297">
        <ele>116.94</ele>
        <time>2016-01-23T14:05:25Z</time>
      </trkpt>
      <trkpt lat="44.51683" lon="0.9292">
        <ele>120.3</ele>
        <time>2016-01-23T14:05:38Z</time>
      </trkpt>
      <trkpt lat="44.51668" lon="0.92865">
        <ele>120.78</ele>
        <time>2016-01-23T14:05:50Z</time>
      </trkpt>
      <trkpt lat="44.51661" lon="0.92814">
        <ele>123.67</ele>
        <time>2016-01-23T14:06:02Z</time>
      </trkpt>
      <trkpt lat="44.51665" lon="0.92769">
        <ele>126.07</ele>
        <time>2016-01-23T14:06:12Z</time>
      </trkpt>
      <trkpt lat="44.51667" lon="0.92753">
        <ele>125.11</ele>
        <time>2016-01-23T14:06:16Z</time>
      </trkpt>
      <trkpt lat="44.51667" lon="0.92748">
        <ele>125.59</ele>
        <time>2016-01-23T14:06:17Z</time>
      </trkpt>
      <trkpt lat="44.51668" lon="0.92744">
        <ele>125.59</ele>
        <time>2016-01-23T14:06:18Z</time>
      </trkpt>
      <trkpt lat="44.51692" lon="0.92696">
        <ele>130.4</ele>
        <time>2016-01-23T14:06:30Z</time>
      </trkpt>
      <trkpt lat="44.51705" lon="0.92683">
        <ele>130.88</ele>
        <time>2016-01-23T14:06:34Z</time>
      </trkpt>
      <trkpt lat="44.5172" lon="0.92672">
        <ele>130.4</ele>
        <time>2016-01-23T14:06:38Z</time>
      </trkpt>
      <trkpt lat="44.51732" lon="0.92667">
        <ele>129.43</ele>
        <time>2016-01-23T14:06:43Z</time>
      </trkpt>
      <trkpt lat="44.51732" lon="0.92669">
        <ele>128.95</ele>
        <time>2016-01-23T14:06:45Z</time>
      </trkpt>
      <trkpt lat="44.51732" lon="0.92671">
        <ele>128.47</ele>
        <time>2016-01-23T14:06:46Z</time>
      </trkpt>
      <trkpt lat="44.51732" lon="0.92675">
        <ele>126.55</ele>
        <time>2016-01-23T14:06:59Z</time>
      </trkpt>
      <trkpt lat="44.51732" lon="0.92676">
        <ele>126.55</ele>
        <time>2016-01-23T14:07:09Z</time>
      </trkpt>
      <trkpt lat="44.51735" lon="0.92693">
        <ele>124.15</ele>
        <time>2016-01-23T14:07:15Z</time>
      </trkpt>
      <trkpt lat="44.51737" lon="0.92705">
        <ele>122.22</ele>
        <time>2016-01-23T14:07:17Z</time>
      </trkpt>
      <trkpt lat="44.51738" lon="0.92748">
        <ele>116.46</ele>
        <time>2016-01-23T14:07:23Z</time>
      </trkpt>
      <trkpt lat="44.51742" lon="0.92809">
        <ele>112.13</ele>
        <time>2016-01-23T14:07:30Z</time>
      </trkpt>
      <trkpt lat="44.51743" lon="0.92838">
        <ele>111.17</ele>
        <time>2016-01-23T14:07:34Z</time>
      </trkpt>
      <trkpt lat="44.5174" lon="0.92871">
        <ele>111.17</ele>
        <time>2016-01-23T14:07:41Z</time>
      </trkpt>
      <trkpt lat="44.51757" lon="0.92906">
        <ele>109.25</ele>
        <time>2016-01-23T14:07:48Z</time>
      </trkpt>
      <trkpt lat="44.51768" lon="0.92918">
        <ele>107.81</ele>
        <time>2016-01-23T14:07:51Z</time>
      </trkpt>
      <trkpt lat="44.51796" lon="0.92934">
        <ele>103</ele>
        <time>2016-01-23T14:07:59Z</time>
      </trkpt>
      <trkpt lat="44.51818" lon="0.92938">
        <ele>101.56</ele>
        <time>2016-01-23T14:08:04Z</time>
      </trkpt>
      <trkpt lat="44.51849" lon="0.92915">
        <ele>96.75</ele>
        <time>2016-01-23T14:08:14Z</time>
      </trkpt>
      <trkpt lat="44.5186" lon="0.92921">
        <ele>94.35</ele>
        <time>2016-01-23T14:08:19Z</time>
      </trkpt>
      <trkpt lat="44.51897" lon="0.92937">
        <ele>91.46</ele>
        <time>2016-01-23T14:08:28Z</time>
      </trkpt>
      <trkpt lat="44.51915" lon="0.92945">
        <ele>90.98</ele>
        <time>2016-01-23T14:08:32Z</time>
      </trkpt>
      <trkpt lat="44.51924" lon="0.92945">
        <ele>90.5</ele>
        <time>2016-01-23T14:08:34Z</time>
      </trkpt>
      <trkpt lat="44.51935" lon="0.92945">
        <ele>91.46</ele>
        <time>2016-01-23T14:08:38Z</time>
      </trkpt>
      <trkpt lat="44.51942" lon="0.92935">
        <ele>91.94</ele>
        <time>2016-01-23T14:08:48Z</time>
      </trkpt>
      <trkpt lat="44.51944" lon="0.9293">
        <ele>92.9</ele>
        <time>2016-01-23T14:08:53Z</time>
      </trkpt>
      <trkpt lat="44.51943" lon="0.92897">
        <ele>102.04</ele>
        <time>2016-01-23T14:09:04Z</time>
      </trkpt>
      <trkpt lat="44.51976" lon="0.92889">
        <ele>106.36</ele>
        <time>2016-01-23T14:09:14Z</time>
      </trkpt>
      <trkpt lat="44.52" lon="0.92889">
        <ele>106.84</ele>
        <time>2016-01-23T14:09:23Z</time>
      </trkpt>
      <trkpt lat="44.52026" lon="0.92872">
        <ele>107.81</ele>
        <time>2016-01-23T14:09:33Z</time>
      </trkpt>
      <trkpt lat="44.52057" lon="0.92837">
        <ele>111.17</ele>
        <time>2016-01-23T14:09:45Z</time>
      </trkpt>
      <trkpt lat="44.52078" lon="0.92798">
        <ele>111.17</ele>
        <time>2016-01-23T14:09:55Z</time>
      </trkpt>
      <trkpt lat="44.52083" lon="0.92792">
        <ele>109.73</ele>
        <time>2016-01-23T14:09:58Z</time>
      </trkpt>
      <trkpt lat="44.52087" lon="0.92775">
        <ele>106.84</ele>
        <time>2016-01-23T14:10:04Z</time>
      </trkpt>
      <trkpt lat="44.52106" lon="0.92739">
        <ele>103</ele>
        <time>2016-01-23T14:10:15Z</time>
      </trkpt>
      <trkpt lat="44.52107" lon="0.92737">
        <ele>102.52</ele>
        <time>2016-01-23T14:10:16Z</time>
      </trkpt>
      <trkpt lat="44.52118" lon="0.92724">
        <ele>102.04</ele>
        <time>2016-01-23T14:10:21Z</time>
      </trkpt>
      <trkpt lat="44.52131" lon="0.9272">
        <ele>102.04</ele>
        <time>2016-01-23T14:10:24Z</time>
      </trkpt>
      <trkpt lat="44.52144" lon="0.92702">
        <ele>102.04</ele>
        <time>2016-01-23T14:10:30Z</time>
      </trkpt>
      <trkpt lat="44.52174" lon="0.92673">
        <ele>102.52</ele>
        <time>2016-01-23T14:10:40Z</time>
      </trkpt>
      <trkpt lat="44.52182" lon="0.92657">
        <ele>102.04</ele>
        <time>2016-01-23T14:10:44Z</time>
      </trkpt>
      <trkpt lat="44.52188" lon="0.92612">
        <ele>100.11</ele>
        <time>2016-01-23T14:10:55Z</time>
      </trkpt>
      <trkpt lat="44.52186" lon="0.92565">
        <ele>100.11</ele>
        <time>2016-01-23T14:11:06Z</time>
      </trkpt>
      <trkpt lat="44.52182" lon="0.92547">
        <ele>100.6</ele>
        <time>2016-01-23T14:11:12Z</time>
      </trkpt>
      <trkpt lat="44.52181" lon="0.9254">
        <ele>101.56</ele>
        <time>2016-01-23T14:11:15Z</time>
      </trkpt>
      <trkpt lat="44.52175" lon="0.92512">
        <ele>102.52</ele>
        <time>2016-01-23T14:11:24Z</time>
      </trkpt>
      <trkpt lat="44.52174" lon="0.92508">
        <ele>102.52</ele>
        <time>2016-01-23T14:11:26Z</time>
      </trkpt>
      <trkpt lat="44.52175" lon="0.92495">
        <ele>101.56</ele>
        <time>2016-01-23T14:11:31Z</time>
      </trkpt>
      <trkpt lat="44.52187" lon="0.92473">
        <ele>102.04</ele>
        <time>2016-01-23T14:11:40Z</time>
      </trkpt>
      <trkpt lat="44.52186" lon="0.92467">
        <ele>102.52</ele>
        <time>2016-01-23T14:11:43Z</time>
      </trkpt>
      <trkpt lat="44.52183" lon="0.92459">
        <ele>102.04</ele>
        <time>2016-01-23T14:11:48Z</time>
      </trkpt>
      <trkpt lat="44.52178" lon="0.92445">
        <ele>103.96</ele>
        <time>2016-01-23T14:11:57Z</time>
      </trkpt>
      <trkpt lat="44.52178" lon="0.9243">
        <ele>105.88</ele>
        <time>2016-01-23T14:12:03Z</time>
      </trkpt>
      <trkpt lat="44.52184" lon="0.924">
        <ele>108.77</ele>
        <time>2016-01-23T14:12:10Z</time>
      </trkpt>
      <trkpt lat="44.52211" lon="0.92396">
        <ele>105.88</ele>
        <time>2016-01-23T14:12:18Z</time>
      </trkpt>
      <trkpt lat="44.52244" lon="0.92409">
        <ele>96.27</ele>
        <time>2016-01-23T14:12:31Z</time>
      </trkpt>
      <trkpt lat="44.52246" lon="0.9241">
        <ele>95.79</ele>
        <time>2016-01-23T14:12:37Z</time>
      </trkpt>
      <trkpt lat="44.52247" lon="0.92411">
        <ele>95.79</ele>
        <time>2016-01-23T14:12:39Z</time>
      </trkpt>
      <trkpt lat="44.52255" lon="0.92417">
        <ele>96.75</ele>
        <time>2016-01-23T14:12:52Z</time>
      </trkpt>
      <trkpt lat="44.5227" lon="0.92441">
        <ele>97.23</ele>
        <time>2016-01-23T14:13:04Z</time>
      </trkpt>
      <trkpt lat="44.52271" lon="0.92441">
        <ele>93.87</ele>
        <time>2016-01-23T14:13:17Z</time>
      </trkpt>
      <trkpt lat="44.52271" lon="0.92444">
        <ele>94.35</ele>
        <time>2016-01-23T14:13:38Z</time>
      </trkpt>
      <trkpt lat="44.52271" lon="0.92447">
        <ele>93.39</ele>
        <time>2016-01-23T14:13:59Z</time>
      </trkpt>
      <trkpt lat="44.52271" lon="0.92448">
        <ele>94.35</ele>
        <time>2016-01-23T14:14:13Z</time>
      </trkpt>
      <trkpt lat="44.52272" lon="0.92446">
        <ele>93.87</ele>
        <time>2016-01-23T14:14:30Z</time>
      </trkpt>
      <trkpt lat="44.52273" lon="0.92447">
        <ele>92.9</ele>
        <time>2016-01-23T14:14:42Z</time>
      </trkpt>
      <trkpt lat="44.52275" lon="0.92449">
        <ele>93.39</ele>
        <time>2016-01-23T14:14:43Z</time>
      </trkpt>
      <trkpt lat="44.52276" lon="0.9245">
        <ele>93.39</ele>
        <time>2016-01-23T14:14:44Z</time>
      </trkpt>
      <trkpt lat="44.52277" lon="0.92453">
        <ele>93.39</ele>
        <time>2016-01-23T14:14:45Z</time>
      </trkpt>
      <trkpt lat="44.52279" lon="0.92455">
        <ele>92.9</ele>
        <time>2016-01-23T14:14:46Z</time>
      </trkpt>
      <trkpt lat="44.52281" lon="0.92457">
        <ele>92.42</ele>
        <time>2016-01-23T14:14:47Z</time>
      </trkpt>
      <trkpt lat="44.52284" lon="0.92459">
        <ele>92.42</ele>
        <time>2016-01-23T14:14:48Z</time>
      </trkpt>
      <trkpt lat="44.52313" lon="0.92487">
        <ele>91.94</ele>
        <time>2016-01-23T14:15:00Z</time>
      </trkpt>
      <trkpt lat="44.52337" lon="0.92487">
        <ele>94.83</ele>
        <time>2016-01-23T14:15:10Z</time>
      </trkpt>
      <trkpt lat="44.52349" lon="0.92456">
        <ele>99.63</ele>
        <time>2016-01-23T14:15:20Z</time>
      </trkpt>
      <trkpt lat="44.52351" lon="0.92456">
        <ele>100.11</ele>
        <time>2016-01-23T14:15:21Z</time>
      </trkpt>
      <trkpt lat="44.52353" lon="0.92457">
        <ele>100.11</ele>
        <time>2016-01-23T14:15:22Z</time>
      </trkpt>
      <trkpt lat="44.52382" lon="0.92476">
        <ele>101.56</ele>
        <time>2016-01-23T14:15:36Z</time>
      </trkpt>
      <trkpt lat="44.52406" lon="0.92494">
        <ele>101.08</ele>
        <time>2016-01-23T14:15:47Z</time>
      </trkpt>
      <trkpt lat="44.52421" lon="0.92499">
        <ele>101.08</ele>
        <time>2016-01-23T14:15:53Z</time>
      </trkpt>
      <trkpt lat="44.52423" lon="0.92501">
        <ele>101.08</ele>
        <time>2016-01-23T14:15:54Z</time>
      </trkpt>
      <trkpt lat="44.52425" lon="0.92502">
        <ele>101.08</ele>
        <time>2016-01-23T14:15:55Z</time>
      </trkpt>
      <trkpt lat="44.52427" lon="0.92503">
        <ele>101.08</ele>
        <time>2016-01-23T14:15:56Z</time>
      </trkpt>
      <trkpt lat="44.52429" lon="0.92504">
        <ele>101.08</ele>
        <time>2016-01-23T14:15:57Z</time>
      </trkpt>
      <trkpt lat="44.5245" lon="0.92515">
        <ele>102.52</ele>
        <time>2016-01-23T14:16:06Z</time>
      </trkpt>
      <trkpt lat="44.52482" lon="0.9251">
        <ele>106.36</ele>
        <time>2016-01-23T14:16:17Z</time>
      </trkpt>
      <trkpt lat="44.52506" lon="0.92524">
        <ele>108.77</ele>
        <time>2016-01-23T14:16:28Z</time>
      </trkpt>
      <trkpt lat="44.52533" lon="0.92542">
        <ele>113.09</ele>
        <time>2016-01-23T14:16:40Z</time>
      </trkpt>
      <trkpt lat="44.52555" lon="0.92564">
        <ele>115.98</ele>
        <time>2016-01-23T14:16:51Z</time>
      </trkpt>
      <trkpt lat="44.52574" lon="0.92577">
        <ele>115.5</ele>
        <time>2016-01-23T14:17:00Z</time>
      </trkpt>
      <trkpt lat="44.52576" lon="0.92577">
        <ele>115.01</ele>
        <time>2016-01-23T14:17:01Z</time>
      </trkpt>
      <trkpt lat="44.52578" lon="0.92578">
        <ele>115.01</ele>
        <time>2016-01-23T14:17:02Z</time>
      </trkpt>
      <trkpt lat="44.5258" lon="0.9258">
        <ele>115.01</ele>
        <time>2016-01-23T14:17:03Z</time>
      </trkpt>
      <trkpt lat="44.52582" lon="0.92582">
        <ele>115.01</ele>
        <time>2016-01-23T14:17:04Z</time>
      </trkpt>
      <trkpt lat="44.52584" lon="0.92584">
        <ele>115.01</ele>
        <time>2016-01-23T14:17:05Z</time>
      </trkpt>
      <trkpt lat="44.52586" lon="0.92586">
        <ele>115.01</ele>
        <time>2016-01-23T14:17:06Z</time>
      </trkpt>
      <trkpt lat="44.52613" lon="0.92581">
        <ele>117.42</ele>
        <time>2016-01-23T14:17:17Z</time>
      </trkpt>
      <trkpt lat="44.52633" lon="0.92579">
        <ele>120.3</ele>
        <time>2016-01-23T14:17:25Z</time>
      </trkpt>
      <trkpt lat="44.52635" lon="0.92579">
        <ele>120.78</ele>
        <time>2016-01-23T14:17:26Z</time>
      </trkpt>
      <trkpt lat="44.52665" lon="0.9258">
        <ele>123.67</ele>
        <time>2016-01-23T14:17:38Z</time>
      </trkpt>
      <trkpt lat="44.52691" lon="0.92579">
        <ele>128.47</ele>
        <time>2016-01-23T14:17:49Z</time>
      </trkpt>
      <trkpt lat="44.52695" lon="0.92577">
        <ele>128.95</ele>
        <time>2016-01-23T14:17:51Z</time>
      </trkpt>
      <trkpt lat="44.52696" lon="0.92574">
        <ele>129.43</ele>
        <time>2016-01-23T14:17:52Z</time>
      </trkpt>
      <trkpt lat="44.52697" lon="0.92571">
        <ele>129.92</ele>
        <time>2016-01-23T14:17:53Z</time>
      </trkpt>
      <trkpt lat="44.52698" lon="0.92568">
        <ele>130.88</ele>
        <time>2016-01-23T14:17:54Z</time>
      </trkpt>
      <trkpt lat="44.52701" lon="0.92553">
        <ele>131.84</ele>
        <time>2016-01-23T14:18:00Z</time>
      </trkpt>
      <trkpt lat="44.52703" lon="0.92542">
        <ele>131.84</ele>
        <time>2016-01-23T14:18:04Z</time>
      </trkpt>
      <trkpt lat="44.52701" lon="0.9253">
        <ele>133.28</ele>
        <time>2016-01-23T14:18:09Z</time>
      </trkpt>
      <trkpt lat="44.52696" lon="0.9249">
        <ele>134.72</ele>
        <time>2016-01-23T14:18:21Z</time>
      </trkpt>
      <trkpt lat="44.52697" lon="0.92477">
        <ele>134.72</ele>
        <time>2016-01-23T14:18:27Z</time>
      </trkpt>
      <trkpt lat="44.52716" lon="0.92461">
        <ele>134.72</ele>
        <time>2016-01-23T14:18:37Z</time>
      </trkpt>
      <trkpt lat="44.52747" lon="0.92443">
        <ele>136.64</ele>
        <time>2016-01-23T14:18:48Z</time>
      </trkpt>
      <trkpt lat="44.52758" lon="0.92438">
        <ele>138.09</ele>
        <time>2016-01-23T14:18:55Z</time>
      </trkpt>
      <trkpt lat="44.52776" lon="0.92463">
        <ele>140.49</ele>
        <time>2016-01-23T14:19:11Z</time>
      </trkpt>
      <trkpt lat="44.52782" lon="0.92472">
        <ele>140.01</ele>
        <time>2016-01-23T14:19:25Z</time>
      </trkpt>
      <trkpt lat="44.52783" lon="0.92473">
        <ele>139.53</ele>
        <time>2016-01-23T14:19:45Z</time>
      </trkpt>
      <trkpt lat="44.52783" lon="0.92472">
        <ele>139.05</ele>
        <time>2016-01-23T14:20:07Z</time>
      </trkpt>
      <trkpt lat="44.52783" lon="0.92472">
        <ele>138.09</ele>
        <time>2016-01-23T14:20:31Z</time>
      </trkpt>
      <trkpt lat="44.52782" lon="0.92472">
        <ele>137.61</ele>
        <time>2016-01-23T14:20:56Z</time>
      </trkpt>
      <trkpt lat="44.52782" lon="0.92473">
        <ele>137.13</ele>
        <time>2016-01-23T14:21:21Z</time>
      </trkpt>
      <trkpt lat="44.52782" lon="0.92475">
        <ele>137.61</ele>
        <time>2016-01-23T14:21:44Z</time>
      </trkpt>
      <trkpt lat="44.52784" lon="0.92476">
        <ele>138.09</ele>
        <time>2016-01-23T14:22:05Z</time>
      </trkpt>
      <trkpt lat="44.52799" lon="0.92499">
        <ele>140.01</ele>
        <time>2016-01-23T14:22:16Z</time>
      </trkpt>
      <trkpt lat="44.52827" lon="0.92532">
        <ele>141.45</ele>
        <time>2016-01-23T14:22:30Z</time>
      </trkpt>
      <trkpt lat="44.52849" lon="0.92559">
        <ele>143.85</ele>
        <time>2016-01-23T14:22:41Z</time>
      </trkpt>
      <trkpt lat="44.52863" lon="0.92595">
        <ele>144.82</ele>
        <time>2016-01-23T14:22:52Z</time>
      </trkpt>
      <trkpt lat="44.52884" lon="0.9264">
        <ele>144.34</ele>
        <time>2016-01-23T14:23:05Z</time>
      </trkpt>
      <trkpt lat="44.52913" lon="0.92644">
        <ele>144.34</ele>
        <time>2016-01-23T14:23:16Z</time>
      </trkpt>
      <trkpt lat="44.5292" lon="0.92651">
        <ele>145.3</ele>
        <time>2016-01-23T14:23:19Z</time>
      </trkpt>
      <trkpt lat="44.52928" lon="0.92666">
        <ele>145.78</ele>
        <time>2016-01-23T14:23:23Z</time>
      </trkpt>
      <trkpt lat="44.52957" lon="0.92691">
        <ele>146.26</ele>
        <time>2016-01-23T14:23:34Z</time>
      </trkpt>
      <trkpt lat="44.52996" lon="0.92688">
        <ele>150.1</ele>
        <time>2016-01-23T14:23:48Z</time>
      </trkpt>
      <trkpt lat="44.53029" lon="0.92684">
        <ele>152.99</ele>
        <time>2016-01-23T14:24:01Z</time>
      </trkpt>
      <trkpt lat="44.53057" lon="0.92684">
        <ele>150.58</ele>
        <time>2016-01-23T14:24:11Z</time>
      </trkpt>
      <trkpt lat="44.53065" lon="0.92682">
        <ele>148.18</ele>
        <time>2016-01-23T14:24:21Z</time>
      </trkpt>
      <trkpt lat="44.53065" lon="0.92682">
        <ele>148.66</ele>
        <time>2016-01-23T14:24:34Z</time>
      </trkpt>
      <trkpt lat="44.53069" lon="0.92681">
        <ele>147.7</ele>
        <time>2016-01-23T14:24:56Z</time>
      </trkpt>
      <trkpt lat="44.53076" lon="0.92675">
        <ele>146.74</ele>
        <time>2016-01-23T14:24:59Z</time>
      </trkpt>
      <trkpt lat="44.53078" lon="0.92673">
        <ele>146.26</ele>
        <time>2016-01-23T14:25:00Z</time>
      </trkpt>
      <trkpt lat="44.53079" lon="0.92672">
        <ele>146.26</ele>
        <time>2016-01-23T14:25:01Z</time>
      </trkpt>
      <trkpt lat="44.53088" lon="0.92667">
        <ele>146.26</ele>
        <time>2016-01-23T14:25:07Z</time>
      </trkpt>
      <trkpt lat="44.5309" lon="0.92666">
        <ele>146.26</ele>
        <time>2016-01-23T14:25:08Z</time>
      </trkpt>
      <trkpt lat="44.53091" lon="0.92665">
        <ele>146.26</ele>
        <time>2016-01-23T14:25:09Z</time>
      </trkpt>
      <trkpt lat="44.53093" lon="0.92663">
        <ele>146.26</ele>
        <time>2016-01-23T14:25:10Z</time>
      </trkpt>
      <trkpt lat="44.53094" lon="0.92662">
        <ele>146.26</ele>
        <time>2016-01-23T14:25:11Z</time>
      </trkpt>
      <trkpt lat="44.53096" lon="0.9266">
        <ele>146.26</ele>
        <time>2016-01-23T14:25:12Z</time>
      </trkpt>
      <trkpt lat="44.53098" lon="0.92659">
        <ele>146.26</ele>
        <time>2016-01-23T14:25:13Z</time>
      </trkpt>
      <trkpt lat="44.53121" lon="0.92637">
        <ele>146.26</ele>
        <time>2016-01-23T14:25:27Z</time>
      </trkpt>
      <trkpt lat="44.53149" lon="0.92617">
        <ele>146.74</ele>
        <time>2016-01-23T14:25:40Z</time>
      </trkpt>
      <trkpt lat="44.53185" lon="0.92597">
        <ele>148.18</ele>
        <time>2016-01-23T14:25:55Z</time>
      </trkpt>
      <trkpt lat="44.53214" lon="0.92608">
        <ele>149.14</ele>
        <time>2016-01-23T14:26:06Z</time>
      </trkpt>
      <trkpt lat="44.53239" lon="0.9264">
        <ele>148.18</ele>
        <time>2016-01-23T14:26:19Z</time>
      </trkpt>
      <trkpt lat="44.53247" lon="0.92648">
        <ele>147.22</ele>
        <time>2016-01-23T14:26:30Z</time>
      </trkpt>
      <trkpt lat="44.5325" lon="0.92649">
        <ele>147.22</ele>
        <time>2016-01-23T14:26:54Z</time>
      </trkpt>
      <trkpt lat="44.53252" lon="0.92648">
        <ele>147.22</ele>
        <time>2016-01-23T14:26:55Z</time>
      </trkpt>
      <trkpt lat="44.53254" lon="0.92647">
        <ele>147.22</ele>
        <time>2016-01-23T14:26:56Z</time>
      </trkpt>
      <trkpt lat="44.53285" lon="0.92611">
        <ele>148.18</ele>
        <time>2016-01-23T14:27:09Z</time>
      </trkpt>
      <trkpt lat="44.53327" lon="0.92571">
        <ele>149.14</ele>
        <time>2016-01-23T14:27:25Z</time>
      </trkpt>
      <trkpt lat="44.53368" lon="0.92531">
        <ele>151.06</ele>
        <time>2016-01-23T14:27:39Z</time>
      </trkpt>
      <trkpt lat="44.53413" lon="0.92488">
        <ele>153.47</ele>
        <time>2016-01-23T14:27:54Z</time>
      </trkpt>
      <trkpt lat="44.53455" lon="0.92454">
        <ele>153.95</ele>
        <time>2016-01-23T14:28:06Z</time>
      </trkpt>
      <trkpt lat="44.53495" lon="0.92419">
        <ele>152.99</ele>
        <time>2016-01-23T14:28:17Z</time>
      </trkpt>
      <trkpt lat="44.53498" lon="0.92416">
        <ele>152.99</ele>
        <time>2016-01-23T14:28:18Z</time>
      </trkpt>
      <trkpt lat="44.53531" lon="0.92387">
        <ele>151.06</ele>
        <time>2016-01-23T14:28:26Z</time>
      </trkpt>
      <trkpt lat="44.53536" lon="0.92383">
        <ele>151.06</ele>
        <time>2016-01-23T14:28:27Z</time>
      </trkpt>
      <trkpt lat="44.53601" lon="0.92324">
        <ele>150.58</ele>
        <time>2016-01-23T14:28:43Z</time>
      </trkpt>
      <trkpt lat="44.53632" lon="0.92296">
        <ele>151.06</ele>
        <time>2016-01-23T14:28:51Z</time>
      </trkpt>
      <trkpt lat="44.53698" lon="0.92247">
        <ele>151.06</ele>
        <time>2016-01-23T14:29:07Z</time>
      </trkpt>
      <trkpt lat="44.53767" lon="0.92213">
        <ele>151.06</ele>
        <time>2016-01-23T14:29:24Z</time>
      </trkpt>
      <trkpt lat="44.53803" lon="0.92196">
        <ele>151.54</ele>
        <time>2016-01-23T14:29:33Z</time>
      </trkpt>
      <trkpt lat="44.53868" lon="0.92166">
        <ele>152.99</ele>
        <time>2016-01-23T14:29:50Z</time>
      </trkpt>
      <trkpt lat="44.53878" lon="0.92169">
        <ele>153.95</ele>
        <time>2016-01-23T14:29:53Z</time>
      </trkpt>
      <trkpt lat="44.53881" lon="0.92172">
        <ele>153.95</ele>
        <time>2016-01-23T14:29:54Z</time>
      </trkpt>
      <trkpt lat="44.53883" lon="0.92177">
        <ele>153.95</ele>
        <time>2016-01-23T14:29:55Z</time>
      </trkpt>
      <trkpt lat="44.53918" lon="0.92246">
        <ele>156.35</ele>
        <time>2016-01-23T14:30:11Z</time>
      </trkpt>
      <trkpt lat="44.53945" lon="0.92295">
        <ele>159.72</ele>
        <time>2016-01-23T14:30:22Z</time>
      </trkpt>
      <trkpt lat="44.53948" lon="0.92301">
        <ele>159.72</ele>
        <time>2016-01-23T14:30:23Z</time>
      </trkpt>
      <trkpt lat="44.53986" lon="0.9239">
        <ele>156.35</ele>
        <time>2016-01-23T14:30:33Z</time>
      </trkpt>
      <trkpt lat="44.54007" lon="0.9245">
        <ele>154.43</ele>
        <time>2016-01-23T14:30:39Z</time>
      </trkpt>
      <trkpt lat="44.54012" lon="0.92467">
        <ele>154.91</ele>
        <time>2016-01-23T14:30:41Z</time>
      </trkpt>
      <trkpt lat="44.54014" lon="0.92474">
        <ele>154.91</ele>
        <time>2016-01-23T14:30:42Z</time>
      </trkpt>
      <trkpt lat="44.54015" lon="0.92482">
        <ele>154.91</ele>
        <time>2016-01-23T14:30:43Z</time>
      </trkpt>
      <trkpt lat="44.54015" lon="0.92489">
        <ele>154.91</ele>
        <time>2016-01-23T14:30:44Z</time>
      </trkpt>
      <trkpt lat="44.54015" lon="0.92496">
        <ele>154.91</ele>
        <time>2016-01-23T14:30:45Z</time>
      </trkpt>
      <trkpt lat="44.54014" lon="0.92502">
        <ele>154.91</ele>
        <time>2016-01-23T14:30:46Z</time>
      </trkpt>
      <trkpt lat="44.54013" lon="0.92507">
        <ele>155.39</ele>
        <time>2016-01-23T14:30:47Z</time>
      </trkpt>
      <trkpt lat="44.53991" lon="0.92573">
        <ele>157.79</ele>
        <time>2016-01-23T14:31:00Z</time>
      </trkpt>
      <trkpt lat="44.53968" lon="0.92641">
        <ele>159.24</ele>
        <time>2016-01-23T14:31:14Z</time>
      </trkpt>
      <trkpt lat="44.53969" lon="0.92647">
        <ele>159.24</ele>
        <time>2016-01-23T14:31:15Z</time>
      </trkpt>
      <trkpt lat="44.53971" lon="0.92651">
        <ele>159.72</ele>
        <time>2016-01-23T14:31:16Z</time>
      </trkpt>
      <trkpt lat="44.53973" lon="0.92656">
        <ele>159.72</ele>
        <time>2016-01-23T14:31:17Z</time>
      </trkpt>
      <trkpt lat="44.53976" lon="0.9266">
        <ele>159.72</ele>
        <time>2016-01-23T14:31:18Z</time>
      </trkpt>
      <trkpt lat="44.54003" lon="0.92695">
        <ele>161.16</ele>
        <time>2016-01-23T14:31:28Z</time>
      </trkpt>
      <trkpt lat="44.54004" lon="0.92701">
        <ele>160.68</ele>
        <time>2016-01-23T14:31:29Z</time>
      </trkpt>
      <trkpt lat="44.54005" lon="0.92706">
        <ele>160.68</ele>
        <time>2016-01-23T14:31:30Z</time>
      </trkpt>
      <trkpt lat="44.54004" lon="0.9271">
        <ele>160.2</ele>
        <time>2016-01-23T14:31:31Z</time>
      </trkpt>
      <trkpt lat="44.54003" lon="0.92714">
        <ele>160.2</ele>
        <time>2016-01-23T14:31:32Z</time>
      </trkpt>
      <trkpt lat="44.54001" lon="0.92719">
        <ele>160.2</ele>
        <time>2016-01-23T14:31:33Z</time>
      </trkpt>
      <trkpt lat="44.53981" lon="0.92758">
        <ele>160.68</ele>
        <time>2016-01-23T14:31:41Z</time>
      </trkpt>
      <trkpt lat="44.53978" lon="0.92764">
        <ele>160.68</ele>
        <time>2016-01-23T14:31:42Z</time>
      </trkpt>
      <trkpt lat="44.53972" lon="0.92775">
        <ele>160.2</ele>
        <time>2016-01-23T14:31:44Z</time>
      </trkpt>
      <trkpt lat="44.53947" lon="0.92815">
        <ele>160.68</ele>
        <time>2016-01-23T14:31:51Z</time>
      </trkpt>
      <trkpt lat="44.53908" lon="0.92883">
        <ele>158.75</ele>
        <time>2016-01-23T14:32:04Z</time>
      </trkpt>
      <trkpt lat="44.53905" lon="0.92889">
        <ele>158.27</ele>
        <time>2016-01-23T14:32:05Z</time>
      </trkpt>
      <trkpt lat="44.53852" lon="0.9299">
        <ele>154.91</ele>
        <time>2016-01-23T14:32:20Z</time>
      </trkpt>
      <trkpt lat="44.53819" lon="0.93062">
        <ele>154.91</ele>
        <time>2016-01-23T14:32:33Z</time>
      </trkpt>
      <trkpt lat="44.53817" lon="0.93067">
        <ele>154.91</ele>
        <time>2016-01-23T14:32:34Z</time>
      </trkpt>
      <trkpt lat="44.53815" lon="0.93072">
        <ele>154.91</ele>
        <time>2016-01-23T14:32:35Z</time>
      </trkpt>
      <trkpt lat="44.53791" lon="0.93123">
        <ele>155.39</ele>
        <time>2016-01-23T14:32:45Z</time>
      </trkpt>
      <trkpt lat="44.53789" lon="0.93128">
        <ele>155.39</ele>
        <time>2016-01-23T14:32:46Z</time>
      </trkpt>
      <trkpt lat="44.53787" lon="0.93133">
        <ele>155.39</ele>
        <time>2016-01-23T14:32:47Z</time>
      </trkpt>
      <trkpt lat="44.53779" lon="0.93153">
        <ele>155.39</ele>
        <time>2016-01-23T14:32:51Z</time>
      </trkpt>
      <trkpt lat="44.53774" lon="0.93164">
        <ele>155.39</ele>
        <time>2016-01-23T14:32:53Z</time>
      </trkpt>
      <trkpt lat="44.53772" lon="0.93169">
        <ele>155.39</ele>
        <time>2016-01-23T14:32:54Z</time>
      </trkpt>
      <trkpt lat="44.53768" lon="0.93179">
        <ele>155.39</ele>
        <time>2016-01-23T14:32:56Z</time>
      </trkpt>
      <trkpt lat="44.53754" lon="0.93215">
        <ele>155.39</ele>
        <time>2016-01-23T14:33:03Z</time>
      </trkpt>
      <trkpt lat="44.53751" lon="0.93227">
        <ele>155.39</ele>
        <time>2016-01-23T14:33:05Z</time>
      </trkpt>
      <trkpt lat="44.53751" lon="0.93233">
        <ele>155.39</ele>
        <time>2016-01-23T14:33:06Z</time>
      </trkpt>
      <trkpt lat="44.53751" lon="0.93239">
        <ele>155.39</ele>
        <time>2016-01-23T14:33:07Z</time>
      </trkpt>
      <trkpt lat="44.53751" lon="0.93245">
        <ele>155.39</ele>
        <time>2016-01-23T14:33:08Z</time>
      </trkpt>
      <trkpt lat="44.53752" lon="0.93251">
        <ele>155.39</ele>
        <time>2016-01-23T14:33:09Z</time>
      </trkpt>
      <trkpt lat="44.53754" lon="0.93258">
        <ele>154.91</ele>
        <time>2016-01-23T14:33:10Z</time>
      </trkpt>
      <trkpt lat="44.53756" lon="0.93264">
        <ele>154.91</ele>
        <time>2016-01-23T14:33:11Z</time>
      </trkpt>
      <trkpt lat="44.53761" lon="0.93276">
        <ele>154.43</ele>
        <time>2016-01-23T14:33:13Z</time>
      </trkpt>
      <trkpt lat="44.53763" lon="0.93283">
        <ele>154.43</ele>
        <time>2016-01-23T14:33:14Z</time>
      </trkpt>
      <trkpt lat="44.53763" lon="0.93291">
        <ele>153.95</ele>
        <time>2016-01-23T14:33:15Z</time>
      </trkpt>
      <trkpt lat="44.53762" lon="0.93298">
        <ele>153.95</ele>
        <time>2016-01-23T14:33:16Z</time>
      </trkpt>
      <trkpt lat="44.5376" lon="0.93304">
        <ele>153.47</ele>
        <time>2016-01-23T14:33:17Z</time>
      </trkpt>
      <trkpt lat="44.53758" lon="0.9331">
        <ele>153.47</ele>
        <time>2016-01-23T14:33:18Z</time>
      </trkpt>
      <trkpt lat="44.53755" lon="0.93316">
        <ele>153.47</ele>
        <time>2016-01-23T14:33:19Z</time>
      </trkpt>
      <trkpt lat="44.53752" lon="0.93322">
        <ele>152.99</ele>
        <time>2016-01-23T14:33:20Z</time>
      </trkpt>
      <trkpt lat="44.53737" lon="0.93353">
        <ele>151.54</ele>
        <time>2016-01-23T14:33:25Z</time>
      </trkpt>
      <trkpt lat="44.53735" lon="0.93358">
        <ele>151.54</ele>
        <time>2016-01-23T14:33:26Z</time>
      </trkpt>
      <trkpt lat="44.53732" lon="0.93363">
        <ele>151.54</ele>
        <time>2016-01-23T14:33:27Z</time>
      </trkpt>
      <trkpt lat="44.53722" lon="0.93385">
        <ele>152.03</ele>
        <time>2016-01-23T14:33:31Z</time>
      </trkpt>
      <trkpt lat="44.53718" lon="0.9339">
        <ele>152.03</ele>
        <time>2016-01-23T14:33:32Z</time>
      </trkpt>
      <trkpt lat="44.53713" lon="0.93393">
        <ele>151.54</ele>
        <time>2016-01-23T14:33:33Z</time>
      </trkpt>
      <trkpt lat="44.53708" lon="0.93394">
        <ele>151.06</ele>
        <time>2016-01-23T14:33:34Z</time>
      </trkpt>
      <trkpt lat="44.53704" lon="0.93391">
        <ele>151.06</ele>
        <time>2016-01-23T14:33:35Z</time>
      </trkpt>
      <trkpt lat="44.537" lon="0.93387">
        <ele>151.06</ele>
        <time>2016-01-23T14:33:36Z</time>
      </trkpt>
      <trkpt lat="44.53697" lon="0.93383">
        <ele>151.06</ele>
        <time>2016-01-23T14:33:37Z</time>
      </trkpt>
      <trkpt lat="44.53694" lon="0.93378">
        <ele>151.06</ele>
        <time>2016-01-23T14:33:38Z</time>
      </trkpt>
      <trkpt lat="44.53672" lon="0.93336">
        <ele>155.39</ele>
        <time>2016-01-23T14:33:48Z</time>
      </trkpt>
      <trkpt lat="44.5366" lon="0.93313">
        <ele>156.83</ele>
        <time>2016-01-23T14:33:53Z</time>
      </trkpt>
      <trkpt lat="44.53657" lon="0.93308">
        <ele>156.83</ele>
        <time>2016-01-23T14:33:54Z</time>
      </trkpt>
      <trkpt lat="44.53646" lon="0.93296">
        <ele>156.35</ele>
        <time>2016-01-23T14:33:57Z</time>
      </trkpt>
      <trkpt lat="44.53642" lon="0.93293">
        <ele>155.87</ele>
        <time>2016-01-23T14:33:58Z</time>
      </trkpt>
      <trkpt lat="44.53637" lon="0.93292">
        <ele>155.87</ele>
        <time>2016-01-23T14:33:59Z</time>
      </trkpt>
      <trkpt lat="44.53633" lon="0.93293">
        <ele>155.87</ele>
        <time>2016-01-23T14:34:00Z</time>
      </trkpt>
      <trkpt lat="44.53628" lon="0.93295">
        <ele>155.87</ele>
        <time>2016-01-23T14:34:01Z</time>
      </trkpt>
      <trkpt lat="44.53625" lon="0.93298">
        <ele>156.35</ele>
        <time>2016-01-23T14:34:02Z</time>
      </trkpt>
      <trkpt lat="44.53618" lon="0.93305">
        <ele>155.87</ele>
        <time>2016-01-23T14:34:04Z</time>
      </trkpt>
      <trkpt lat="44.53614" lon="0.93308">
        <ele>155.39</ele>
        <time>2016-01-23T14:34:05Z</time>
      </trkpt>
      <trkpt lat="44.53611" lon="0.93312">
        <ele>155.39</ele>
        <time>2016-01-23T14:34:06Z</time>
      </trkpt>
      <trkpt lat="44.53547" lon="0.93369">
        <ele>154.43</ele>
        <time>2016-01-23T14:34:23Z</time>
      </trkpt>
      <trkpt lat="44.53543" lon="0.93369">
        <ele>153.95</ele>
        <time>2016-01-23T14:34:24Z</time>
      </trkpt>
      <trkpt lat="44.53539" lon="0.93368">
        <ele>153.95</ele>
        <time>2016-01-23T14:34:25Z</time>
      </trkpt>
      <trkpt lat="44.53536" lon="0.93364">
        <ele>153.47</ele>
        <time>2016-01-23T14:34:26Z</time>
      </trkpt>
      <trkpt lat="44.53532" lon="0.93359">
        <ele>153.47</ele>
        <time>2016-01-23T14:34:27Z</time>
      </trkpt>
      <trkpt lat="44.53528" lon="0.93355">
        <ele>152.99</ele>
        <time>2016-01-23T14:34:28Z</time>
      </trkpt>
      <trkpt lat="44.53523" lon="0.93354">
        <ele>152.51</ele>
        <time>2016-01-23T14:34:29Z</time>
      </trkpt>
      <trkpt lat="44.53518" lon="0.93355">
        <ele>152.03</ele>
        <time>2016-01-23T14:34:30Z</time>
      </trkpt>
      <trkpt lat="44.53513" lon="0.93357">
        <ele>151.54</ele>
        <time>2016-01-23T14:34:31Z</time>
      </trkpt>
      <trkpt lat="44.53509" lon="0.9336">
        <ele>151.54</ele>
        <time>2016-01-23T14:34:32Z</time>
      </trkpt>
      <trkpt lat="44.53505" lon="0.93362">
        <ele>151.54</ele>
        <time>2016-01-23T14:34:33Z</time>
      </trkpt>
      <trkpt lat="44.535" lon="0.93365">
        <ele>151.06</ele>
        <time>2016-01-23T14:34:34Z</time>
      </trkpt>
      <trkpt lat="44.53486" lon="0.93372">
        <ele>150.58</ele>
        <time>2016-01-23T14:34:37Z</time>
      </trkpt>
      <trkpt lat="44.53462" lon="0.93384">
        <ele>149.14</ele>
        <time>2016-01-23T14:34:46Z</time>
      </trkpt>
      <trkpt lat="44.5346" lon="0.93386">
        <ele>149.14</ele>
        <time>2016-01-23T14:34:47Z</time>
      </trkpt>
      <trkpt lat="44.53459" lon="0.93388">
        <ele>148.66</ele>
        <time>2016-01-23T14:34:48Z</time>
      </trkpt>
      <trkpt lat="44.53458" lon="0.93391">
        <ele>148.66</ele>
        <time>2016-01-23T14:34:49Z</time>
      </trkpt>
      <trkpt lat="44.53456" lon="0.93399">
        <ele>148.18</ele>
        <time>2016-01-23T14:34:53Z</time>
      </trkpt>
      <trkpt lat="44.53446" lon="0.93431">
        <ele>147.22</ele>
        <time>2016-01-23T14:35:07Z</time>
      </trkpt>
      <trkpt lat="44.53444" lon="0.93439">
        <ele>147.22</ele>
        <time>2016-01-23T14:35:17Z</time>
      </trkpt>
      <trkpt lat="44.53446" lon="0.93451">
        <ele>147.22</ele>
        <time>2016-01-23T14:35:29Z</time>
      </trkpt>
      <trkpt lat="44.53447" lon="0.9345">
        <ele>147.22</ele>
        <time>2016-01-23T14:35:38Z</time>
      </trkpt>
      <trkpt lat="44.53449" lon="0.93452">
        <ele>147.22</ele>
        <time>2016-01-23T14:35:41Z</time>
      </trkpt>
      <trkpt lat="44.53451" lon="0.93457">
        <ele>147.22</ele>
        <time>2016-01-23T14:35:48Z</time>
      </trkpt>
      <trkpt lat="44.53464" lon="0.93463">
        <ele>148.18</ele>
        <time>2016-01-23T14:36:00Z</time>
      </trkpt>
      <trkpt lat="44.53465" lon="0.93462">
        <ele>148.66</ele>
        <time>2016-01-23T14:36:11Z</time>
      </trkpt>
      <trkpt lat="44.53462" lon="0.93462">
        <ele>148.66</ele>
        <time>2016-01-23T14:36:14Z</time>
      </trkpt>
      <trkpt lat="44.53458" lon="0.9346">
        <ele>148.18</ele>
        <time>2016-01-23T14:36:18Z</time>
      </trkpt>
      <trkpt lat="44.53451" lon="0.93456">
        <ele>147.7</ele>
        <time>2016-01-23T14:36:23Z</time>
      </trkpt>
      <trkpt lat="44.53447" lon="0.9345">
        <ele>147.22</ele>
        <time>2016-01-23T14:36:27Z</time>
      </trkpt>
      <trkpt lat="44.53444" lon="0.93437">
        <ele>146.74</ele>
        <time>2016-01-23T14:36:39Z</time>
      </trkpt>
      <trkpt lat="44.53443" lon="0.93436">
        <ele>146.26</ele>
        <time>2016-01-23T14:36:54Z</time>
      </trkpt>
      <trkpt lat="44.53443" lon="0.93433">
        <ele>146.26</ele>
        <time>2016-01-23T14:37:05Z</time>
      </trkpt>
      <trkpt lat="44.53451" lon="0.93414">
        <ele>146.74</ele>
        <time>2016-01-23T14:37:19Z</time>
      </trkpt>
      <trkpt lat="44.53452" lon="0.93413">
        <ele>146.74</ele>
        <time>2016-01-23T14:37:20Z</time>
      </trkpt>
      <trkpt lat="44.53453" lon="0.93406">
        <ele>147.22</ele>
        <time>2016-01-23T14:37:24Z</time>
      </trkpt>
      <trkpt lat="44.53456" lon="0.93386">
        <ele>147.7</ele>
        <time>2016-01-23T14:37:40Z</time>
      </trkpt>
      <trkpt lat="44.53456" lon="0.93386">
        <ele>148.18</ele>
        <time>2016-01-23T14:37:41Z</time>
      </trkpt>
      <trkpt lat="44.53443" lon="0.93384">
        <ele>147.7</ele>
        <time>2016-01-23T14:37:47Z</time>
      </trkpt>
      <trkpt lat="44.53441" lon="0.93382">
        <ele>147.7</ele>
        <time>2016-01-23T14:37:48Z</time>
      </trkpt>
      <trkpt lat="44.53438" lon="0.9338">
        <ele>147.7</ele>
        <time>2016-01-23T14:37:49Z</time>
      </trkpt>
      <trkpt lat="44.53436" lon="0.93377">
        <ele>147.7</ele>
        <time>2016-01-23T14:37:50Z</time>
      </trkpt>
      <trkpt lat="44.53434" lon="0.93374">
        <ele>147.7</ele>
        <time>2016-01-23T14:37:51Z</time>
      </trkpt>
      <trkpt lat="44.53412" lon="0.93358">
        <ele>145.78</ele>
        <time>2016-01-23T14:37:58Z</time>
      </trkpt>
      <trkpt lat="44.53408" lon="0.93359">
        <ele>145.78</ele>
        <time>2016-01-23T14:37:59Z</time>
      </trkpt>
      <trkpt lat="44.53404" lon="0.93361">
        <ele>145.3</ele>
        <time>2016-01-23T14:38:00Z</time>
      </trkpt>
      <trkpt lat="44.53401" lon="0.93364">
        <ele>144.82</ele>
        <time>2016-01-23T14:38:01Z</time>
      </trkpt>
      <trkpt lat="44.53398" lon="0.93366">
        <ele>144.34</ele>
        <time>2016-01-23T14:38:02Z</time>
      </trkpt>
      <trkpt lat="44.53396" lon="0.93369">
        <ele>144.34</ele>
        <time>2016-01-23T14:38:03Z</time>
      </trkpt>
      <trkpt lat="44.53395" lon="0.93372">
        <ele>143.85</ele>
        <time>2016-01-23T14:38:04Z</time>
      </trkpt>
      <trkpt lat="44.53394" lon="0.93375">
        <ele>143.37</ele>
        <time>2016-01-23T14:38:05Z</time>
      </trkpt>
      <trkpt lat="44.53394" lon="0.93378">
        <ele>143.37</ele>
        <time>2016-01-23T14:38:06Z</time>
      </trkpt>
      <trkpt lat="44.53395" lon="0.93384">
        <ele>142.89</ele>
        <time>2016-01-23T14:38:08Z</time>
      </trkpt>
      <trkpt lat="44.53407" lon="0.93435">
        <ele>140.97</ele>
        <time>2016-01-23T14:38:22Z</time>
      </trkpt>
      <trkpt lat="44.53418" lon="0.93479">
        <ele>141.45</ele>
        <time>2016-01-23T14:38:34Z</time>
      </trkpt>
      <trkpt lat="44.53431" lon="0.93523">
        <ele>144.82</ele>
        <time>2016-01-23T14:38:46Z</time>
      </trkpt>
      <trkpt lat="44.53446" lon="0.93566">
        <ele>146.74</ele>
        <time>2016-01-23T14:38:59Z</time>
      </trkpt>
      <trkpt lat="44.53448" lon="0.93575">
        <ele>147.22</ele>
        <time>2016-01-23T14:39:03Z</time>
      </trkpt>
      <trkpt lat="44.5345" lon="0.93591">
        <ele>146.74</ele>
        <time>2016-01-23T14:39:10Z</time>
      </trkpt>
      <trkpt lat="44.53479" lon="0.93628">
        <ele>145.78</ele>
        <time>2016-01-23T14:39:25Z</time>
      </trkpt>
      <trkpt lat="44.53518" lon="0.9368">
        <ele>143.37</ele>
        <time>2016-01-23T14:39:40Z</time>
      </trkpt>
      <trkpt lat="44.53525" lon="0.93685">
        <ele>143.85</ele>
        <time>2016-01-23T14:39:47Z</time>
      </trkpt>
      <trkpt lat="44.53542" lon="0.93668">
        <ele>145.3</ele>
        <time>2016-01-23T14:39:59Z</time>
      </trkpt>
      <trkpt lat="44.53557" lon="0.93643">
        <ele>144.34</ele>
        <time>2016-01-23T14:40:10Z</time>
      </trkpt>
      <trkpt lat="44.53563" lon="0.9363">
        <ele>141.93</ele>
        <time>2016-01-23T14:40:15Z</time>
      </trkpt>
      <trkpt lat="44.53564" lon="0.9363">
        <ele>141.93</ele>
        <time>2016-01-23T14:40:16Z</time>
      </trkpt>
      <trkpt lat="44.53566" lon="0.93631">
        <ele>141.45</ele>
        <time>2016-01-23T14:40:17Z</time>
      </trkpt>
      <trkpt lat="44.5357" lon="0.93636">
        <ele>141.45</ele>
        <time>2016-01-23T14:40:20Z</time>
      </trkpt>
      <trkpt lat="44.53574" lon="0.93643">
        <ele>141.93</ele>
        <time>2016-01-23T14:40:37Z</time>
      </trkpt>
      <trkpt lat="44.53581" lon="0.93653">
        <ele>141.93</ele>
        <time>2016-01-23T14:40:54Z</time>
      </trkpt>
      <trkpt lat="44.53589" lon="0.93683">
        <ele>140.97</ele>
        <time>2016-01-23T14:41:07Z</time>
      </trkpt>
      <trkpt lat="44.53588" lon="0.93687">
        <ele>139.53</ele>
        <time>2016-01-23T14:41:09Z</time>
      </trkpt>
      <trkpt lat="44.53587" lon="0.93709">
        <ele>136.64</ele>
        <time>2016-01-23T14:41:19Z</time>
      </trkpt>
      <trkpt lat="44.53586" lon="0.93711">
        <ele>136.16</ele>
        <time>2016-01-23T14:41:20Z</time>
      </trkpt>
      <trkpt lat="44.53587" lon="0.93717">
        <ele>134.24</ele>
        <time>2016-01-23T14:41:24Z</time>
      </trkpt>
      <trkpt lat="44.53591" lon="0.93731">
        <ele>139.53</ele>
        <time>2016-01-23T14:41:37Z</time>
      </trkpt>
      <trkpt lat="44.53589" lon="0.9374">
        <ele>140.01</ele>
        <time>2016-01-23T14:41:50Z</time>
      </trkpt>
      <trkpt lat="44.53588" lon="0.93744">
        <ele>140.49</ele>
        <time>2016-01-23T14:41:54Z</time>
      </trkpt>
      <trkpt lat="44.53597" lon="0.93762">
        <ele>142.89</ele>
        <time>2016-01-23T14:42:03Z</time>
      </trkpt>
      <trkpt lat="44.53619" lon="0.93794">
        <ele>140.97</ele>
        <time>2016-01-23T14:42:15Z</time>
      </trkpt>
      <trkpt lat="44.5362" lon="0.93798">
        <ele>140.49</ele>
        <time>2016-01-23T14:42:27Z</time>
      </trkpt>
      <trkpt lat="44.5362" lon="0.938">
        <ele>141.45</ele>
        <time>2016-01-23T14:42:47Z</time>
      </trkpt>
      <trkpt lat="44.53621" lon="0.93802">
        <ele>141.93</ele>
        <time>2016-01-23T14:43:09Z</time>
      </trkpt>
      <trkpt lat="44.53622" lon="0.93803">
        <ele>141.93</ele>
        <time>2016-01-23T14:43:31Z</time>
      </trkpt>
      <trkpt lat="44.53615" lon="0.93838">
        <ele>136.64</ele>
        <time>2016-01-23T14:43:42Z</time>
      </trkpt>
      <trkpt lat="44.53609" lon="0.93866">
        <ele>133.28</ele>
        <time>2016-01-23T14:43:52Z</time>
      </trkpt>
      <trkpt lat="44.53604" lon="0.93882">
        <ele>134.24</ele>
        <time>2016-01-23T14:44:07Z</time>
      </trkpt>
      <trkpt lat="44.53601" lon="0.93894">
        <ele>138.09</ele>
        <time>2016-01-23T14:44:17Z</time>
      </trkpt>
      <trkpt lat="44.53598" lon="0.939">
        <ele>138.09</ele>
        <time>2016-01-23T14:44:31Z</time>
      </trkpt>
      <trkpt lat="44.53598" lon="0.93901">
        <ele>138.09</ele>
        <time>2016-01-23T14:44:37Z</time>
      </trkpt>
      <trkpt lat="44.53605" lon="0.93914">
        <ele>138.09</ele>
        <time>2016-01-23T14:44:44Z</time>
      </trkpt>
      <trkpt lat="44.53618" lon="0.93953">
        <ele>135.68</ele>
        <time>2016-01-23T14:44:53Z</time>
      </trkpt>
      <trkpt lat="44.53618" lon="0.9396">
        <ele>134.24</ele>
        <time>2016-01-23T14:44:55Z</time>
      </trkpt>
      <trkpt lat="44.53637" lon="0.93993">
        <ele>128.47</ele>
        <time>2016-01-23T14:45:06Z</time>
      </trkpt>
      <trkpt lat="44.53635" lon="0.94045">
        <ele>118.86</ele>
        <time>2016-01-23T14:45:16Z</time>
      </trkpt>
      <trkpt lat="44.53615" lon="0.94085">
        <ele>108.29</ele>
        <time>2016-01-23T14:45:25Z</time>
      </trkpt>
      <trkpt lat="44.53604" lon="0.94107">
        <ele>108.29</ele>
        <time>2016-01-23T14:45:34Z</time>
      </trkpt>
      <trkpt lat="44.53602" lon="0.94109">
        <ele>106.36</ele>
        <time>2016-01-23T14:45:52Z</time>
      </trkpt>
      <trkpt lat="44.53603" lon="0.94111">
        <ele>106.36</ele>
        <time>2016-01-23T14:46:15Z</time>
      </trkpt>
      <trkpt lat="44.53603" lon="0.94112">
        <ele>105.88</ele>
        <time>2016-01-23T14:46:35Z</time>
      </trkpt>
      <trkpt lat="44.53603" lon="0.94112">
        <ele>107.81</ele>
        <time>2016-01-23T14:47:02Z</time>
      </trkpt>
      <trkpt lat="44.53603" lon="0.94112">
        <ele>106.36</ele>
        <time>2016-01-23T14:47:19Z</time>
      </trkpt>
      <trkpt lat="44.53603" lon="0.94112">
        <ele>106.84</ele>
        <time>2016-01-23T14:47:38Z</time>
      </trkpt>
      <trkpt lat="44.53602" lon="0.94111">
        <ele>107.81</ele>
        <time>2016-01-23T14:48:05Z</time>
      </trkpt>
      <trkpt lat="44.53603" lon="0.94115">
        <ele>106.36</ele>
        <time>2016-01-23T14:48:30Z</time>
      </trkpt>
      <trkpt lat="44.53603" lon="0.94118">
        <ele>106.84</ele>
        <time>2016-01-23T14:48:31Z</time>
      </trkpt>
      <trkpt lat="44.53603" lon="0.9412">
        <ele>106.84</ele>
        <time>2016-01-23T14:48:32Z</time>
      </trkpt>
      <trkpt lat="44.53603" lon="0.94129">
        <ele>106.84</ele>
        <time>2016-01-23T14:48:34Z</time>
      </trkpt>
      <trkpt lat="44.53604" lon="0.94135">
        <ele>106.36</ele>
        <time>2016-01-23T14:48:35Z</time>
      </trkpt>
      <trkpt lat="44.53605" lon="0.9414">
        <ele>105.88</ele>
        <time>2016-01-23T14:48:36Z</time>
      </trkpt>
      <trkpt lat="44.5361" lon="0.9416">
        <ele>103.48</ele>
        <time>2016-01-23T14:48:40Z</time>
      </trkpt>
      <trkpt lat="44.5361" lon="0.94167">
        <ele>102.52</ele>
        <time>2016-01-23T14:48:41Z</time>
      </trkpt>
      <trkpt lat="44.53609" lon="0.94173">
        <ele>102.04</ele>
        <time>2016-01-23T14:48:42Z</time>
      </trkpt>
      <trkpt lat="44.53608" lon="0.94179">
        <ele>102.04</ele>
        <time>2016-01-23T14:48:43Z</time>
      </trkpt>
      <trkpt lat="44.53607" lon="0.94185">
        <ele>101.56</ele>
        <time>2016-01-23T14:48:44Z</time>
      </trkpt>
      <trkpt lat="44.53592" lon="0.94265">
        <ele>96.75</ele>
        <time>2016-01-23T14:49:00Z</time>
      </trkpt>
      <trkpt lat="44.53588" lon="0.94271">
        <ele>95.79</ele>
        <time>2016-01-23T14:49:02Z</time>
      </trkpt>
      <trkpt lat="44.53586" lon="0.94273">
        <ele>95.31</ele>
        <time>2016-01-23T14:49:03Z</time>
      </trkpt>
      <trkpt lat="44.53585" lon="0.94276">
        <ele>95.31</ele>
        <time>2016-01-23T14:49:04Z</time>
      </trkpt>
      <trkpt lat="44.53586" lon="0.94278">
        <ele>94.83</ele>
        <time>2016-01-23T14:49:05Z</time>
      </trkpt>
      <trkpt lat="44.53587" lon="0.9428">
        <ele>94.35</ele>
        <time>2016-01-23T14:49:06Z</time>
      </trkpt>
      <trkpt lat="44.53589" lon="0.94281">
        <ele>93.87</ele>
        <time>2016-01-23T14:49:07Z</time>
      </trkpt>
      <trkpt lat="44.53592" lon="0.94282">
        <ele>93.39</ele>
        <time>2016-01-23T14:49:08Z</time>
      </trkpt>
      <trkpt lat="44.53594" lon="0.94284">
        <ele>93.39</ele>
        <time>2016-01-23T14:49:09Z</time>
      </trkpt>
      <trkpt lat="44.53635" lon="0.94309">
        <ele>91.46</ele>
        <time>2016-01-23T14:49:22Z</time>
      </trkpt>
      <trkpt lat="44.53678" lon="0.94336">
        <ele>95.79</ele>
        <time>2016-01-23T14:49:34Z</time>
      </trkpt>
      <trkpt lat="44.53712" lon="0.94336">
        <ele>96.27</ele>
        <time>2016-01-23T14:49:43Z</time>
      </trkpt>
      <trkpt lat="44.53716" lon="0.94337">
        <ele>95.79</ele>
        <time>2016-01-23T14:49:44Z</time>
      </trkpt>
      <trkpt lat="44.5372" lon="0.94339">
        <ele>95.79</ele>
        <time>2016-01-23T14:49:45Z</time>
      </trkpt>
      <trkpt lat="44.53724" lon="0.94342">
        <ele>95.31</ele>
        <time>2016-01-23T14:49:46Z</time>
      </trkpt>
      <trkpt lat="44.53727" lon="0.94344">
        <ele>95.31</ele>
        <time>2016-01-23T14:49:47Z</time>
      </trkpt>
      <trkpt lat="44.5373" lon="0.94347">
        <ele>94.83</ele>
        <time>2016-01-23T14:49:48Z</time>
      </trkpt>
      <trkpt lat="44.53775" lon="0.9437">
        <ele>92.9</ele>
        <time>2016-01-23T14:50:01Z</time>
      </trkpt>
      <trkpt lat="44.53838" lon="0.94409">
        <ele>89.54</ele>
        <time>2016-01-23T14:50:18Z</time>
      </trkpt>
      <trkpt lat="44.53891" lon="0.94449">
        <ele>90.02</ele>
        <time>2016-01-23T14:50:33Z</time>
      </trkpt>
      <trkpt lat="44.5394" lon="0.94474">
        <ele>90.98</ele>
        <time>2016-01-23T14:50:48Z</time>
      </trkpt>
      <trkpt lat="44.53983" lon="0.94473">
        <ele>92.42</ele>
        <time>2016-01-23T14:51:02Z</time>
      </trkpt>
      <trkpt lat="44.54022" lon="0.94464">
        <ele>94.83</ele>
        <time>2016-01-23T14:51:17Z</time>
      </trkpt>
      <trkpt lat="44.54061" lon="0.94452">
        <ele>95.31</ele>
        <time>2016-01-23T14:51:32Z</time>
      </trkpt>
      <trkpt lat="44.54113" lon="0.94415">
        <ele>99.63</ele>
        <time>2016-01-23T14:51:49Z</time>
      </trkpt>
      <trkpt lat="44.54153" lon="0.94384">
        <ele>96.27</ele>
        <time>2016-01-23T14:52:02Z</time>
      </trkpt>
      <trkpt lat="44.54163" lon="0.94375">
        <ele>94.83</ele>
        <time>2016-01-23T14:52:07Z</time>
      </trkpt>
      <trkpt lat="44.54165" lon="0.94374">
        <ele>94.35</ele>
        <time>2016-01-23T14:52:08Z</time>
      </trkpt>
      <trkpt lat="44.54171" lon="0.94372">
        <ele>93.39</ele>
        <time>2016-01-23T14:52:11Z</time>
      </trkpt>
      <trkpt lat="44.54172" lon="0.9437">
        <ele>93.39</ele>
        <time>2016-01-23T14:52:12Z</time>
      </trkpt>
      <trkpt lat="44.54175" lon="0.94363">
        <ele>92.42</ele>
        <time>2016-01-23T14:52:15Z</time>
      </trkpt>
      <trkpt lat="44.54176" lon="0.94361">
        <ele>92.42</ele>
        <time>2016-01-23T14:52:16Z</time>
      </trkpt>
      <trkpt lat="44.54178" lon="0.94359">
        <ele>91.94</ele>
        <time>2016-01-23T14:52:17Z</time>
      </trkpt>
      <trkpt lat="44.54179" lon="0.94357">
        <ele>91.94</ele>
        <time>2016-01-23T14:52:18Z</time>
      </trkpt>
      <trkpt lat="44.5418" lon="0.94354">
        <ele>91.94</ele>
        <time>2016-01-23T14:52:19Z</time>
      </trkpt>
      <trkpt lat="44.54181" lon="0.94352">
        <ele>91.94</ele>
        <time>2016-01-23T14:52:20Z</time>
      </trkpt>
      <trkpt lat="44.54182" lon="0.94347">
        <ele>90.98</ele>
        <time>2016-01-23T14:52:33Z</time>
      </trkpt>
      <trkpt lat="44.54182" lon="0.94347">
        <ele>91.46</ele>
        <time>2016-01-23T14:52:53Z</time>
      </trkpt>
      <trkpt lat="44.54183" lon="0.94347">
        <ele>92.9</ele>
        <time>2016-01-23T14:53:14Z</time>
      </trkpt>
      <trkpt lat="44.54182" lon="0.9435">
        <ele>92.9</ele>
        <time>2016-01-23T14:53:26Z</time>
      </trkpt>
      <trkpt lat="44.54182" lon="0.94352">
        <ele>92.42</ele>
        <time>2016-01-23T14:53:27Z</time>
      </trkpt>
      <trkpt lat="44.5418" lon="0.94354">
        <ele>92.42</ele>
        <time>2016-01-23T14:53:28Z</time>
      </trkpt>
      <trkpt lat="44.54179" lon="0.94356">
        <ele>92.42</ele>
        <time>2016-01-23T14:53:29Z</time>
      </trkpt>
      <trkpt lat="44.54178" lon="0.94359">
        <ele>92.42</ele>
        <time>2016-01-23T14:53:30Z</time>
      </trkpt>
      <trkpt lat="44.54177" lon="0.94362">
        <ele>92.42</ele>
        <time>2016-01-23T14:53:31Z</time>
      </trkpt>
      <trkpt lat="44.54176" lon="0.94366">
        <ele>92.42</ele>
        <time>2016-01-23T14:53:32Z</time>
      </trkpt>
      <trkpt lat="44.54175" lon="0.94369">
        <ele>91.94</ele>
        <time>2016-01-23T14:53:33Z</time>
      </trkpt>
      <trkpt lat="44.54172" lon="0.94371">
        <ele>91.94</ele>
        <time>2016-01-23T14:53:34Z</time>
      </trkpt>
      <trkpt lat="44.5417" lon="0.94373">
        <ele>91.94</ele>
        <time>2016-01-23T14:53:35Z</time>
      </trkpt>
      <trkpt lat="44.54167" lon="0.94374">
        <ele>91.94</ele>
        <time>2016-01-23T14:53:36Z</time>
      </trkpt>
      <trkpt lat="44.54164" lon="0.94374">
        <ele>92.42</ele>
        <time>2016-01-23T14:53:37Z</time>
      </trkpt>
      <trkpt lat="44.54139" lon="0.94396">
        <ele>91.94</ele>
        <time>2016-01-23T14:53:48Z</time>
      </trkpt>
      <trkpt lat="44.54111" lon="0.94414">
        <ele>92.42</ele>
        <time>2016-01-23T14:53:58Z</time>
      </trkpt>
      <trkpt lat="44.54068" lon="0.94443">
        <ele>93.39</ele>
        <time>2016-01-23T14:54:13Z</time>
      </trkpt>
      <trkpt lat="44.54062" lon="0.94446">
        <ele>94.35</ele>
        <time>2016-01-23T14:54:23Z</time>
      </trkpt>
      <trkpt lat="44.54063" lon="0.94445">
        <ele>99.63</ele>
        <time>2016-01-23T14:55:04Z</time>
      </trkpt>
      <trkpt lat="44.54064" lon="0.94445">
        <ele>96.75</ele>
        <time>2016-01-23T14:55:39Z</time>
      </trkpt>
      <trkpt lat="44.54064" lon="0.94448">
        <ele>96.75</ele>
        <time>2016-01-23T14:56:06Z</time>
      </trkpt>
      <trkpt lat="44.54063" lon="0.94446">
        <ele>95.79</ele>
        <time>2016-01-23T14:56:45Z</time>
      </trkpt>
      <trkpt lat="44.54063" lon="0.94444">
        <ele>94.35</ele>
        <time>2016-01-23T14:57:26Z</time>
      </trkpt>
      <trkpt lat="44.54062" lon="0.94443">
        <ele>94.83</ele>
        <time>2016-01-23T14:58:04Z</time>
      </trkpt>
      <trkpt lat="44.54062" lon="0.94445">
        <ele>92.42</ele>
        <time>2016-01-23T14:58:34Z</time>
      </trkpt>
      <trkpt lat="44.54063" lon="0.94449">
        <ele>93.39</ele>
        <time>2016-01-23T14:59:04Z</time>
      </trkpt>
      <trkpt lat="44.54063" lon="0.94447">
        <ele>96.75</ele>
        <time>2016-01-23T14:59:34Z</time>
      </trkpt>
      <trkpt lat="44.54063" lon="0.94446">
        <ele>94.35</ele>
        <time>2016-01-23T15:00:00Z</time>
      </trkpt>
      <trkpt lat="44.54062" lon="0.94444">
        <ele>91.46</ele>
        <time>2016-01-23T15:00:33Z</time>
      </trkpt>
      <trkpt lat="44.54065" lon="0.94442">
        <ele>92.9</ele>
        <time>2016-01-23T15:01:12Z</time>
      </trkpt>
      <trkpt lat="44.54065" lon="0.94445">
        <ele>92.9</ele>
        <time>2016-01-23T15:01:36Z</time>
      </trkpt>
      <trkpt lat="44.54065" lon="0.94444">
        <ele>92.9</ele>
        <time>2016-01-23T15:02:02Z</time>
      </trkpt>
      <trkpt lat="44.54067" lon="0.94447">
        <ele>95.31</ele>
        <time>2016-01-23T15:02:40Z</time>
      </trkpt>
      <trkpt lat="44.54066" lon="0.94443">
        <ele>95.31</ele>
        <time>2016-01-23T15:03:17Z</time>
      </trkpt>
      <trkpt lat="44.54064" lon="0.94445">
        <ele>95.31</ele>
        <time>2016-01-23T15:03:59Z</time>
      </trkpt>
      <trkpt lat="44.54062" lon="0.94445">
        <ele>94.35</ele>
        <time>2016-01-23T15:04:40Z</time>
      </trkpt>
      <trkpt lat="44.54061" lon="0.94443">
        <ele>93.39</ele>
        <time>2016-01-23T15:05:20Z</time>
      </trkpt>
      <trkpt lat="44.54061" lon="0.94444">
        <ele>91.46</ele>
        <time>2016-01-23T15:05:46Z</time>
      </trkpt>
      <trkpt lat="44.54061" lon="0.94444">
        <ele>89.06</ele>
        <time>2016-01-23T15:06:26Z</time>
      </trkpt>
      <trkpt lat="44.54061" lon="0.94448">
        <ele>88.1</ele>
        <time>2016-01-23T15:06:56Z</time>
      </trkpt>
      <trkpt lat="44.54061" lon="0.94448">
        <ele>88.58</ele>
        <time>2016-01-23T15:07:27Z</time>
      </trkpt>
      <trkpt lat="44.54061" lon="0.94443">
        <ele>89.06</ele>
        <time>2016-01-23T15:07:55Z</time>
      </trkpt>
      <trkpt lat="44.5406" lon="0.94444">
        <ele>90.5</ele>
        <time>2016-01-23T15:08:26Z</time>
      </trkpt>
      <trkpt lat="44.54063" lon="0.94445">
        <ele>91.46</ele>
        <time>2016-01-23T15:09:02Z</time>
      </trkpt>
      <trkpt lat="44.54063" lon="0.94446">
        <ele>91.94</ele>
        <time>2016-01-23T15:09:22Z</time>
      </trkpt>
      <trkpt lat="44.54062" lon="0.94446">
        <ele>92.42</ele>
        <time>2016-01-23T15:09:39Z</time>
      </trkpt>
      <trkpt lat="44.54063" lon="0.94448">
        <ele>92.42</ele>
        <time>2016-01-23T15:09:56Z</time>
      </trkpt>
      <trkpt lat="44.54062" lon="0.94447">
        <ele>93.87</ele>
        <time>2016-01-23T15:10:18Z</time>
      </trkpt>
      <trkpt lat="44.54063" lon="0.94448">
        <ele>94.83</ele>
        <time>2016-01-23T15:10:50Z</time>
      </trkpt>
      <trkpt lat="44.54064" lon="0.94447">
        <ele>94.83</ele>
        <time>2016-01-23T15:10:51Z</time>
      </trkpt>
      <trkpt lat="44.54096" lon="0.94427">
        <ele>97.23</ele>
        <time>2016-01-23T15:11:04Z</time>
      </trkpt>
      <trkpt lat="44.54125" lon="0.94406">
        <ele>95.79</ele>
        <time>2016-01-23T15:11:17Z</time>
      </trkpt>
      <trkpt lat="44.54151" lon="0.94386">
        <ele>93.39</ele>
        <time>2016-01-23T15:11:28Z</time>
      </trkpt>
      <trkpt lat="44.5418" lon="0.94357">
        <ele>91.46</ele>
        <time>2016-01-23T15:11:38Z</time>
      </trkpt>
      <trkpt lat="44.54194" lon="0.94333">
        <ele>90.5</ele>
        <time>2016-01-23T15:11:44Z</time>
      </trkpt>
      <trkpt lat="44.54196" lon="0.94328">
        <ele>90.5</ele>
        <time>2016-01-23T15:11:45Z</time>
      </trkpt>
      <trkpt lat="44.54198" lon="0.94324">
        <ele>90.5</ele>
        <time>2016-01-23T15:11:46Z</time>
      </trkpt>
      <trkpt lat="44.54201" lon="0.9432">
        <ele>90.5</ele>
        <time>2016-01-23T15:11:47Z</time>
      </trkpt>
      <trkpt lat="44.54203" lon="0.94315">
        <ele>90.5</ele>
        <time>2016-01-23T15:11:48Z</time>
      </trkpt>
      <trkpt lat="44.54222" lon="0.94259">
        <ele>93.87</ele>
        <time>2016-01-23T15:12:00Z</time>
      </trkpt>
      <trkpt lat="44.54218" lon="0.942">
        <ele>101.56</ele>
        <time>2016-01-23T15:12:11Z</time>
      </trkpt>
      <trkpt lat="44.5422" lon="0.94164">
        <ele>111.17</ele>
        <time>2016-01-23T15:12:20Z</time>
      </trkpt>
      <trkpt lat="44.54221" lon="0.94164">
        <ele>113.09</ele>
        <time>2016-01-23T15:12:21Z</time>
      </trkpt>
      <trkpt lat="44.54223" lon="0.94163">
        <ele>113.57</ele>
        <time>2016-01-23T15:12:22Z</time>
      </trkpt>
      <trkpt lat="44.54258" lon="0.94155">
        <ele>123.19</ele>
        <time>2016-01-23T15:12:34Z</time>
      </trkpt>
      <trkpt lat="44.54282" lon="0.94153">
        <ele>123.19</ele>
        <time>2016-01-23T15:12:42Z</time>
      </trkpt>
      <trkpt lat="44.54335" lon="0.94153">
        <ele>124.15</ele>
        <time>2016-01-23T15:12:56Z</time>
      </trkpt>
      <trkpt lat="44.54346" lon="0.94167">
        <ele>123.67</ele>
        <time>2016-01-23T15:13:00Z</time>
      </trkpt>
      <trkpt lat="44.5436" lon="0.94209">
        <ele>121.26</ele>
        <time>2016-01-23T15:13:08Z</time>
      </trkpt>
      <trkpt lat="44.54376" lon="0.94235">
        <ele>118.86</ele>
        <time>2016-01-23T15:13:13Z</time>
      </trkpt>
      <trkpt lat="44.54403" lon="0.94263">
        <ele>115.98</ele>
        <time>2016-01-23T15:13:21Z</time>
      </trkpt>
      <trkpt lat="44.54406" lon="0.94267">
        <ele>115.98</ele>
        <time>2016-01-23T15:13:22Z</time>
      </trkpt>
      <trkpt lat="44.54409" lon="0.94271">
        <ele>115.5</ele>
        <time>2016-01-23T15:13:23Z</time>
      </trkpt>
      <trkpt lat="44.54444" lon="0.94308">
        <ele>110.69</ele>
        <time>2016-01-23T15:13:35Z</time>
      </trkpt>
      <trkpt lat="44.54475" lon="0.94337">
        <ele>106.84</ele>
        <time>2016-01-23T15:13:47Z</time>
      </trkpt>
      <trkpt lat="44.54508" lon="0.94373">
        <ele>105.4</ele>
        <time>2016-01-23T15:13:58Z</time>
      </trkpt>
      <trkpt lat="44.54529" lon="0.9442">
        <ele>102.04</ele>
        <time>2016-01-23T15:14:10Z</time>
      </trkpt>
      <trkpt lat="44.5454" lon="0.94456">
        <ele>100.6</ele>
        <time>2016-01-23T15:14:19Z</time>
      </trkpt>
      <trkpt lat="44.54543" lon="0.94466">
        <ele>100.6</ele>
        <time>2016-01-23T15:14:30Z</time>
      </trkpt>
      <trkpt lat="44.54544" lon="0.94468">
        <ele>100.6</ele>
        <time>2016-01-23T15:14:31Z</time>
      </trkpt>
      <trkpt lat="44.54544" lon="0.9447">
        <ele>100.11</ele>
        <time>2016-01-23T15:14:32Z</time>
      </trkpt>
      <trkpt lat="44.54544" lon="0.94474">
        <ele>100.11</ele>
        <time>2016-01-23T15:14:33Z</time>
      </trkpt>
      <trkpt lat="44.54561" lon="0.94512">
        <ele>100.11</ele>
        <time>2016-01-23T15:14:44Z</time>
      </trkpt>
      <trkpt lat="44.54592" lon="0.94529">
        <ele>103</ele>
        <time>2016-01-23T15:14:56Z</time>
      </trkpt>
      <trkpt lat="44.54594" lon="0.9453">
        <ele>103.48</ele>
        <time>2016-01-23T15:14:57Z</time>
      </trkpt>
      <trkpt lat="44.54596" lon="0.94532">
        <ele>103.96</ele>
        <time>2016-01-23T15:14:58Z</time>
      </trkpt>
      <trkpt lat="44.54598" lon="0.94533">
        <ele>103.96</ele>
        <time>2016-01-23T15:14:59Z</time>
      </trkpt>
      <trkpt lat="44.546" lon="0.94535">
        <ele>104.44</ele>
        <time>2016-01-23T15:15:00Z</time>
      </trkpt>
      <trkpt lat="44.54602" lon="0.94537">
        <ele>104.92</ele>
        <time>2016-01-23T15:15:01Z</time>
      </trkpt>
      <trkpt lat="44.54604" lon="0.94538">
        <ele>104.92</ele>
        <time>2016-01-23T15:15:02Z</time>
      </trkpt>
      <trkpt lat="44.54606" lon="0.94539">
        <ele>105.4</ele>
        <time>2016-01-23T15:15:03Z</time>
      </trkpt>
      <trkpt lat="44.54608" lon="0.94539">
        <ele>105.4</ele>
        <time>2016-01-23T15:15:04Z</time>
      </trkpt>
      <trkpt lat="44.54636" lon="0.94555">
        <ele>108.29</ele>
        <time>2016-01-23T15:15:15Z</time>
      </trkpt>
      <trkpt lat="44.54657" lon="0.9458">
        <ele>111.17</ele>
        <time>2016-01-23T15:15:26Z</time>
      </trkpt>
      <trkpt lat="44.5466" lon="0.94589">
        <ele>110.69</ele>
        <time>2016-01-23T15:15:29Z</time>
      </trkpt>
      <trkpt lat="44.54659" lon="0.94593">
        <ele>110.69</ele>
        <time>2016-01-23T15:15:30Z</time>
      </trkpt>
      <trkpt lat="44.54658" lon="0.94596">
        <ele>109.73</ele>
        <time>2016-01-23T15:15:31Z</time>
      </trkpt>
      <trkpt lat="44.54657" lon="0.94599">
        <ele>108.77</ele>
        <time>2016-01-23T15:15:32Z</time>
      </trkpt>
      <trkpt lat="44.54655" lon="0.94601">
        <ele>107.81</ele>
        <time>2016-01-23T15:15:33Z</time>
      </trkpt>
      <trkpt lat="44.54654" lon="0.94604">
        <ele>106.84</ele>
        <time>2016-01-23T15:15:34Z</time>
      </trkpt>
      <trkpt lat="44.54653" lon="0.94609">
        <ele>106.84</ele>
        <time>2016-01-23T15:15:35Z</time>
      </trkpt>
      <trkpt lat="44.54651" lon="0.94614">
        <ele>106.84</ele>
        <time>2016-01-23T15:15:36Z</time>
      </trkpt>
      <trkpt lat="44.54639" lon="0.94639">
        <ele>105.88</ele>
        <time>2016-01-23T15:15:42Z</time>
      </trkpt>
      <trkpt lat="44.54622" lon="0.94663">
        <ele>104.92</ele>
        <time>2016-01-23T15:15:49Z</time>
      </trkpt>
      <trkpt lat="44.54621" lon="0.94666">
        <ele>104.92</ele>
        <time>2016-01-23T15:15:50Z</time>
      </trkpt>
      <trkpt lat="44.54614" lon="0.94678">
        <ele>105.4</ele>
        <time>2016-01-23T15:15:53Z</time>
      </trkpt>
      <trkpt lat="44.54611" lon="0.94683">
        <ele>104.92</ele>
        <time>2016-01-23T15:15:54Z</time>
      </trkpt>
      <trkpt lat="44.54608" lon="0.94689">
        <ele>104.92</ele>
        <time>2016-01-23T15:15:55Z</time>
      </trkpt>
      <trkpt lat="44.54569" lon="0.94778">
        <ele>99.15</ele>
        <time>2016-01-23T15:16:06Z</time>
      </trkpt>
      <trkpt lat="44.54542" lon="0.94852">
        <ele>93.39</ele>
        <time>2016-01-23T15:16:16Z</time>
      </trkpt>
      <trkpt lat="44.5454" lon="0.94857">
        <ele>92.9</ele>
        <time>2016-01-23T15:16:25Z</time>
      </trkpt>
      <trkpt lat="44.5454" lon="0.94859">
        <ele>92.9</ele>
        <time>2016-01-23T15:16:41Z</time>
      </trkpt>
      <trkpt lat="44.5454" lon="0.94859">
        <ele>92.9</ele>
        <time>2016-01-23T15:16:44Z</time>
      </trkpt>
      <trkpt lat="44.54541" lon="0.94861">
        <ele>92.9</ele>
        <time>2016-01-23T15:16:45Z</time>
      </trkpt>
      <trkpt lat="44.54541" lon="0.94863">
        <ele>92.42</ele>
        <time>2016-01-23T15:16:46Z</time>
      </trkpt>
      <trkpt lat="44.54547" lon="0.94881">
        <ele>93.39</ele>
        <time>2016-01-23T15:16:59Z</time>
      </trkpt>
      <trkpt lat="44.54547" lon="0.94885">
        <ele>93.39</ele>
        <time>2016-01-23T15:17:02Z</time>
      </trkpt>
      <trkpt lat="44.54546" lon="0.94887">
        <ele>93.39</ele>
        <time>2016-01-23T15:17:03Z</time>
      </trkpt>
      <trkpt lat="44.54544" lon="0.9489">
        <ele>92.9</ele>
        <time>2016-01-23T15:17:04Z</time>
      </trkpt>
      <trkpt lat="44.54543" lon="0.94893">
        <ele>92.9</ele>
        <time>2016-01-23T15:17:05Z</time>
      </trkpt>
      <trkpt lat="44.54541" lon="0.94896">
        <ele>92.42</ele>
        <time>2016-01-23T15:17:06Z</time>
      </trkpt>
      <trkpt lat="44.5452" lon="0.94925">
        <ele>90.5</ele>
        <time>2016-01-23T15:17:18Z</time>
      </trkpt>
      <trkpt lat="44.54519" lon="0.94927">
        <ele>90.98</ele>
        <time>2016-01-23T15:17:19Z</time>
      </trkpt>
      <trkpt lat="44.54519" lon="0.94929">
        <ele>90.98</ele>
        <time>2016-01-23T15:17:20Z</time>
      </trkpt>
      <trkpt lat="44.54519" lon="0.94931">
        <ele>90.98</ele>
        <time>2016-01-23T15:17:21Z</time>
      </trkpt>
      <trkpt lat="44.5452" lon="0.94933">
        <ele>90.98</ele>
        <time>2016-01-23T15:17:22Z</time>
      </trkpt>
      <trkpt lat="44.54521" lon="0.94934">
        <ele>90.98</ele>
        <time>2016-01-23T15:17:23Z</time>
      </trkpt>
      <trkpt lat="44.54523" lon="0.94935">
        <ele>90.98</ele>
        <time>2016-01-23T15:17:24Z</time>
      </trkpt>
      <trkpt lat="44.54525" lon="0.94935">
        <ele>90.98</ele>
        <time>2016-01-23T15:17:25Z</time>
      </trkpt>
      <trkpt lat="44.54528" lon="0.94935">
        <ele>91.46</ele>
        <time>2016-01-23T15:17:26Z</time>
      </trkpt>
      <trkpt lat="44.54531" lon="0.94935">
        <ele>91.46</ele>
        <time>2016-01-23T15:17:27Z</time>
      </trkpt>
      <trkpt lat="44.54533" lon="0.94935">
        <ele>91.46</ele>
        <time>2016-01-23T15:17:28Z</time>
      </trkpt>
      <trkpt lat="44.54558" lon="0.94943">
        <ele>91.94</ele>
        <time>2016-01-23T15:17:36Z</time>
      </trkpt>
      <trkpt lat="44.54562" lon="0.94944">
        <ele>91.94</ele>
        <time>2016-01-23T15:17:37Z</time>
      </trkpt>
      <trkpt lat="44.54566" lon="0.94945">
        <ele>91.46</ele>
        <time>2016-01-23T15:17:38Z</time>
      </trkpt>
      <trkpt lat="44.54569" lon="0.94946">
        <ele>91.46</ele>
        <time>2016-01-23T15:17:39Z</time>
      </trkpt>
      <trkpt lat="44.54572" lon="0.94948">
        <ele>91.46</ele>
        <time>2016-01-23T15:17:40Z</time>
      </trkpt>
      <trkpt lat="44.54575" lon="0.94949">
        <ele>91.46</ele>
        <time>2016-01-23T15:17:41Z</time>
      </trkpt>
      <trkpt lat="44.54577" lon="0.9495">
        <ele>90.98</ele>
        <time>2016-01-23T15:17:42Z</time>
      </trkpt>
      <trkpt lat="44.54579" lon="0.94952">
        <ele>91.46</ele>
        <time>2016-01-23T15:17:43Z</time>
      </trkpt>
      <trkpt lat="44.5458" lon="0.94954">
        <ele>91.46</ele>
        <time>2016-01-23T15:17:44Z</time>
      </trkpt>
      <trkpt lat="44.54582" lon="0.94956">
        <ele>91.46</ele>
        <time>2016-01-23T15:17:45Z</time>
      </trkpt>
      <trkpt lat="44.54584" lon="0.94957">
        <ele>91.46</ele>
        <time>2016-01-23T15:17:46Z</time>
      </trkpt>
      <trkpt lat="44.54586" lon="0.9496">
        <ele>91.46</ele>
        <time>2016-01-23T15:17:47Z</time>
      </trkpt>
      <trkpt lat="44.54601" lon="0.94973">
        <ele>89.54</ele>
        <time>2016-01-23T15:17:53Z</time>
      </trkpt>
      <trkpt lat="44.54598" lon="0.94991">
        <ele>89.06</ele>
        <time>2016-01-23T15:17:57Z</time>
      </trkpt>
      <trkpt lat="44.54607" lon="0.95003">
        <ele>88.1</ele>
        <time>2016-01-23T15:18:02Z</time>
      </trkpt>
      <trkpt lat="44.5463" lon="0.95005">
        <ele>88.1</ele>
        <time>2016-01-23T15:18:10Z</time>
      </trkpt>
      <trkpt lat="44.54634" lon="0.95005">
        <ele>88.58</ele>
        <time>2016-01-23T15:18:11Z</time>
      </trkpt>
      <trkpt lat="44.54663" lon="0.95">
        <ele>89.54</ele>
        <time>2016-01-23T15:18:21Z</time>
      </trkpt>
      <trkpt lat="44.54703" lon="0.94998">
        <ele>95.31</ele>
        <time>2016-01-23T15:18:33Z</time>
      </trkpt>
      <trkpt lat="44.54731" lon="0.9499">
        <ele>102.52</ele>
        <time>2016-01-23T15:18:43Z</time>
      </trkpt>
      <trkpt lat="44.54749" lon="0.94979">
        <ele>110.69</ele>
        <time>2016-01-23T15:18:52Z</time>
      </trkpt>
      <trkpt lat="44.54751" lon="0.94979">
        <ele>110.69</ele>
        <time>2016-01-23T15:18:53Z</time>
      </trkpt>
      <trkpt lat="44.54754" lon="0.94979">
        <ele>110.69</ele>
        <time>2016-01-23T15:18:54Z</time>
      </trkpt>
      <trkpt lat="44.54764" lon="0.94976">
        <ele>112.13</ele>
        <time>2016-01-23T15:18:58Z</time>
      </trkpt>
      <trkpt lat="44.54767" lon="0.94975">
        <ele>112.61</ele>
        <time>2016-01-23T15:18:59Z</time>
      </trkpt>
      <trkpt lat="44.54769" lon="0.94975">
        <ele>112.61</ele>
        <time>2016-01-23T15:19:00Z</time>
      </trkpt>
      <trkpt lat="44.54772" lon="0.94975">
        <ele>113.09</ele>
        <time>2016-01-23T15:19:01Z</time>
      </trkpt>
      <trkpt lat="44.54774" lon="0.94975">
        <ele>112.61</ele>
        <time>2016-01-23T15:19:02Z</time>
      </trkpt>
      <trkpt lat="44.54776" lon="0.94975">
        <ele>112.61</ele>
        <time>2016-01-23T15:19:03Z</time>
      </trkpt>
      <trkpt lat="44.54807" lon="0.94979">
        <ele>113.57</ele>
        <time>2016-01-23T15:19:16Z</time>
      </trkpt>
      <trkpt lat="44.5483" lon="0.94981">
        <ele>117.9</ele>
        <time>2016-01-23T15:19:26Z</time>
      </trkpt>
      <trkpt lat="44.54854" lon="0.94987">
        <ele>118.86</ele>
        <time>2016-01-23T15:19:37Z</time>
      </trkpt>
      <trkpt lat="44.54868" lon="0.94994">
        <ele>119.34</ele>
        <time>2016-01-23T15:19:44Z</time>
      </trkpt>
      <trkpt lat="44.5487" lon="0.94995">
        <ele>119.34</ele>
        <time>2016-01-23T15:19:45Z</time>
      </trkpt>
      <trkpt lat="44.54872" lon="0.94995">
        <ele>119.34</ele>
        <time>2016-01-23T15:19:46Z</time>
      </trkpt>
      <trkpt lat="44.54875" lon="0.94996">
        <ele>119.82</ele>
        <time>2016-01-23T15:19:47Z</time>
      </trkpt>
      <trkpt lat="44.54877" lon="0.94997">
        <ele>119.82</ele>
        <time>2016-01-23T15:19:48Z</time>
      </trkpt>
      <trkpt lat="44.54879" lon="0.94999">
        <ele>120.3</ele>
        <time>2016-01-23T15:19:49Z</time>
      </trkpt>
      <trkpt lat="44.54882" lon="0.95">
        <ele>120.3</ele>
        <time>2016-01-23T15:19:51Z</time>
      </trkpt>
      <trkpt lat="44.54883" lon="0.95002">
        <ele>120.78</ele>
        <time>2016-01-23T15:19:52Z</time>
      </trkpt>
      <trkpt lat="44.54885" lon="0.95003">
        <ele>120.78</ele>
        <time>2016-01-23T15:19:53Z</time>
      </trkpt>
      <trkpt lat="44.54887" lon="0.95003">
        <ele>120.78</ele>
        <time>2016-01-23T15:19:54Z</time>
      </trkpt>
      <trkpt lat="44.54889" lon="0.95004">
        <ele>121.26</ele>
        <time>2016-01-23T15:19:55Z</time>
      </trkpt>
      <trkpt lat="44.54896" lon="0.95009">
        <ele>121.74</ele>
        <time>2016-01-23T15:19:59Z</time>
      </trkpt>
      <trkpt lat="44.54897" lon="0.95009">
        <ele>121.74</ele>
        <time>2016-01-23T15:20:00Z</time>
      </trkpt>
      <trkpt lat="44.54899" lon="0.9501">
        <ele>121.74</ele>
        <time>2016-01-23T15:20:01Z</time>
      </trkpt>
      <trkpt lat="44.54901" lon="0.95011">
        <ele>121.74</ele>
        <time>2016-01-23T15:20:02Z</time>
      </trkpt>
      <trkpt lat="44.54903" lon="0.95011">
        <ele>121.74</ele>
        <time>2016-01-23T15:20:03Z</time>
      </trkpt>
      <trkpt lat="44.54905" lon="0.95012">
        <ele>122.22</ele>
        <time>2016-01-23T15:20:04Z</time>
      </trkpt>
      <trkpt lat="44.54907" lon="0.95014">
        <ele>122.71</ele>
        <time>2016-01-23T15:20:05Z</time>
      </trkpt>
      <trkpt lat="44.54919" lon="0.95021">
        <ele>124.63</ele>
        <time>2016-01-23T15:20:11Z</time>
      </trkpt>
      <trkpt lat="44.54921" lon="0.95022">
        <ele>125.11</ele>
        <time>2016-01-23T15:20:12Z</time>
      </trkpt>
      <trkpt lat="44.54923" lon="0.95023">
        <ele>125.59</ele>
        <time>2016-01-23T15:20:13Z</time>
      </trkpt>
      <trkpt lat="44.54928" lon="0.95024">
        <ele>126.07</ele>
        <time>2016-01-23T15:20:15Z</time>
      </trkpt>
      <trkpt lat="44.5493" lon="0.95025">
        <ele>126.55</ele>
        <time>2016-01-23T15:20:16Z</time>
      </trkpt>
      <trkpt lat="44.54954" lon="0.95032">
        <ele>128.47</ele>
        <time>2016-01-23T15:20:28Z</time>
      </trkpt>
      <trkpt lat="44.54975" lon="0.9504">
        <ele>128.95</ele>
        <time>2016-01-23T15:20:38Z</time>
      </trkpt>
      <trkpt lat="44.54976" lon="0.9504">
        <ele>126.55</ele>
        <time>2016-01-23T15:20:55Z</time>
      </trkpt>
      <trkpt lat="44.54976" lon="0.9504">
        <ele>125.11</ele>
        <time>2016-01-23T15:21:13Z</time>
      </trkpt>
      <trkpt lat="44.54977" lon="0.95039">
        <ele>124.15</ele>
        <time>2016-01-23T15:21:36Z</time>
      </trkpt>
      <trkpt lat="44.54979" lon="0.9504">
        <ele>122.71</ele>
        <time>2016-01-23T15:22:01Z</time>
      </trkpt>
      <trkpt lat="44.54979" lon="0.95041">
        <ele>122.22</ele>
        <time>2016-01-23T15:22:15Z</time>
      </trkpt>
      <trkpt lat="44.54978" lon="0.95041">
        <ele>121.74</ele>
        <time>2016-01-23T15:22:28Z</time>
      </trkpt>
      <trkpt lat="44.54978" lon="0.95043">
        <ele>121.74</ele>
        <time>2016-01-23T15:22:29Z</time>
      </trkpt>
      <trkpt lat="44.54977" lon="0.95044">
        <ele>121.26</ele>
        <time>2016-01-23T15:22:30Z</time>
      </trkpt>
      <trkpt lat="44.54951" lon="0.95055">
        <ele>121.26</ele>
        <time>2016-01-23T15:22:42Z</time>
      </trkpt>
      <trkpt lat="44.54901" lon="0.95077">
        <ele>125.59</ele>
        <time>2016-01-23T15:23:00Z</time>
      </trkpt>
      <trkpt lat="44.54881" lon="0.95089">
        <ele>126.55</ele>
        <time>2016-01-23T15:23:09Z</time>
      </trkpt>
      <trkpt lat="44.54878" lon="0.95089">
        <ele>126.55</ele>
        <time>2016-01-23T15:23:10Z</time>
      </trkpt>
      <trkpt lat="44.54876" lon="0.9509">
        <ele>126.55</ele>
        <time>2016-01-23T15:23:11Z</time>
      </trkpt>
      <trkpt lat="44.54874" lon="0.95091">
        <ele>127.03</ele>
        <time>2016-01-23T15:23:12Z</time>
      </trkpt>
      <trkpt lat="44.54871" lon="0.95092">
        <ele>127.03</ele>
        <time>2016-01-23T15:23:13Z</time>
      </trkpt>
      <trkpt lat="44.54869" lon="0.95093">
        <ele>127.51</ele>
        <time>2016-01-23T15:23:14Z</time>
      </trkpt>
      <trkpt lat="44.54842" lon="0.95106">
        <ele>130.4</ele>
        <time>2016-01-23T15:23:25Z</time>
      </trkpt>
      <trkpt lat="44.54803" lon="0.95117">
        <ele>132.8</ele>
        <time>2016-01-23T15:23:38Z</time>
      </trkpt>
      <trkpt lat="44.54747" lon="0.9512">
        <ele>138.57</ele>
        <time>2016-01-23T15:23:56Z</time>
      </trkpt>
      <trkpt lat="44.5473" lon="0.9513">
        <ele>139.05</ele>
        <time>2016-01-23T15:24:02Z</time>
      </trkpt>
      <trkpt lat="44.54729" lon="0.95133">
        <ele>139.53</ele>
        <time>2016-01-23T15:24:03Z</time>
      </trkpt>
      <trkpt lat="44.54727" lon="0.95136">
        <ele>139.53</ele>
        <time>2016-01-23T15:24:04Z</time>
      </trkpt>
      <trkpt lat="44.54725" lon="0.95139">
        <ele>139.53</ele>
        <time>2016-01-23T15:24:05Z</time>
      </trkpt>
      <trkpt lat="44.54724" lon="0.95142">
        <ele>140.01</ele>
        <time>2016-01-23T15:24:06Z</time>
      </trkpt>
      <trkpt lat="44.54723" lon="0.95145">
        <ele>140.01</ele>
        <time>2016-01-23T15:24:07Z</time>
      </trkpt>
      <trkpt lat="44.54722" lon="0.95149">
        <ele>140.49</ele>
        <time>2016-01-23T15:24:08Z</time>
      </trkpt>
      <trkpt lat="44.54723" lon="0.95152">
        <ele>140.97</ele>
        <time>2016-01-23T15:24:09Z</time>
      </trkpt>
      <trkpt lat="44.54724" lon="0.95156">
        <ele>140.97</ele>
        <time>2016-01-23T15:24:10Z</time>
      </trkpt>
      <trkpt lat="44.54726" lon="0.95159">
        <ele>141.45</ele>
        <time>2016-01-23T15:24:11Z</time>
      </trkpt>
      <trkpt lat="44.54728" lon="0.9516">
        <ele>141.93</ele>
        <time>2016-01-23T15:24:12Z</time>
      </trkpt>
      <trkpt lat="44.54733" lon="0.95159">
        <ele>142.89</ele>
        <time>2016-01-23T15:24:14Z</time>
      </trkpt>
      <trkpt lat="44.54747" lon="0.95149">
        <ele>145.78</ele>
        <time>2016-01-23T15:24:26Z</time>
      </trkpt>
      <trkpt lat="44.54747" lon="0.95149">
        <ele>146.74</ele>
        <time>2016-01-23T15:24:39Z</time>
      </trkpt>
      <trkpt lat="44.54747" lon="0.95149">
        <ele>147.7</ele>
        <time>2016-01-23T15:25:02Z</time>
      </trkpt>
      <trkpt lat="44.54746" lon="0.9515">
        <ele>147.22</ele>
        <time>2016-01-23T15:25:23Z</time>
      </trkpt>
      <trkpt lat="44.54746" lon="0.95151">
        <ele>147.22</ele>
        <time>2016-01-23T15:25:46Z</time>
      </trkpt>
      <trkpt lat="44.54746" lon="0.9515">
        <ele>147.7</ele>
        <time>2016-01-23T15:26:16Z</time>
      </trkpt>
      <trkpt lat="44.54746" lon="0.9515">
        <ele>148.18</ele>
        <time>2016-01-23T15:26:47Z</time>
      </trkpt>
      <trkpt lat="44.54746" lon="0.95149">
        <ele>148.18</ele>
        <time>2016-01-23T15:27:16Z</time>
      </trkpt>
      <trkpt lat="44.54745" lon="0.95149">
        <ele>147.7</ele>
        <time>2016-01-23T15:27:36Z</time>
      </trkpt>
      <trkpt lat="44.54745" lon="0.9515">
        <ele>147.7</ele>
        <time>2016-01-23T15:27:57Z</time>
      </trkpt>
      <trkpt lat="44.54746" lon="0.9515">
        <ele>147.7</ele>
        <time>2016-01-23T15:28:27Z</time>
      </trkpt>
      <trkpt lat="44.54746" lon="0.95149">
        <ele>147.22</ele>
        <time>2016-01-23T15:28:57Z</time>
      </trkpt>
      <trkpt lat="44.54747" lon="0.9515">
        <ele>145.78</ele>
        <time>2016-01-23T15:29:27Z</time>
      </trkpt>
      <trkpt lat="44.54747" lon="0.9515">
        <ele>145.78</ele>
        <time>2016-01-23T15:29:50Z</time>
      </trkpt>
      <trkpt lat="44.54746" lon="0.9515">
        <ele>145.78</ele>
        <time>2016-01-23T15:30:21Z</time>
      </trkpt>
      <trkpt lat="44.54746" lon="0.9515">
        <ele>145.78</ele>
        <time>2016-01-23T15:30:47Z</time>
      </trkpt>
      <trkpt lat="44.54746" lon="0.95149">
        <ele>146.74</ele>
        <time>2016-01-23T15:31:10Z</time>
      </trkpt>
      <trkpt lat="44.54746" lon="0.95149">
        <ele>146.74</ele>
        <time>2016-01-23T15:31:33Z</time>
      </trkpt>
      <trkpt lat="44.54746" lon="0.9515">
        <ele>145.78</ele>
        <time>2016-01-23T15:32:03Z</time>
      </trkpt>
      <trkpt lat="44.54746" lon="0.9515">
        <ele>145.78</ele>
        <time>2016-01-23T15:32:32Z</time>
      </trkpt>
      <trkpt lat="44.54746" lon="0.95149">
        <ele>145.78</ele>
        <time>2016-01-23T15:33:00Z</time>
      </trkpt>
      <trkpt lat="44.54746" lon="0.95149">
        <ele>146.74</ele>
        <time>2016-01-23T15:33:27Z</time>
      </trkpt>
      <trkpt lat="44.54746" lon="0.95149">
        <ele>146.74</ele>
        <time>2016-01-23T15:33:49Z</time>
      </trkpt>
      <trkpt lat="44.54746" lon="0.95148">
        <ele>146.74</ele>
        <time>2016-01-23T15:34:20Z</time>
      </trkpt>
      <trkpt lat="44.54746" lon="0.95148">
        <ele>146.26</ele>
        <time>2016-01-23T15:34:44Z</time>
      </trkpt>
      <trkpt lat="44.54746" lon="0.95148">
        <ele>146.26</ele>
        <time>2016-01-23T15:35:08Z</time>
      </trkpt>
      <trkpt lat="44.54746" lon="0.95148">
        <ele>146.26</ele>
        <time>2016-01-23T15:35:42Z</time>
      </trkpt>
      <trkpt lat="44.54746" lon="0.95149">
        <ele>146.74</ele>
        <time>2016-01-23T15:36:17Z</time>
      </trkpt>
      <trkpt lat="44.54746" lon="0.9515">
        <ele>146.74</ele>
        <time>2016-01-23T15:36:39Z</time>
      </trkpt>
      <trkpt lat="44.54744" lon="0.95152">
        <ele>146.74</ele>
        <time>2016-01-23T15:36:49Z</time>
      </trkpt>
      <trkpt lat="44.54743" lon="0.95152">
        <ele>147.22</ele>
        <time>2016-01-23T15:37:02Z</time>
      </trkpt>
      <trkpt lat="44.54742" lon="0.95151">
        <ele>148.66</ele>
        <time>2016-01-23T15:37:23Z</time>
      </trkpt>
      <trkpt lat="44.54742" lon="0.95153">
        <ele>148.18</ele>
        <time>2016-01-23T15:37:49Z</time>
      </trkpt>
      <trkpt lat="44.54742" lon="0.95153">
        <ele>148.18</ele>
        <time>2016-01-23T15:37:59Z</time>
      </trkpt>
      <trkpt lat="44.54735" lon="0.95157">
        <ele>147.7</ele>
        <time>2016-01-23T15:38:03Z</time>
      </trkpt>
      <trkpt lat="44.54729" lon="0.95158">
        <ele>147.22</ele>
        <time>2016-01-23T15:38:06Z</time>
      </trkpt>
      <trkpt lat="44.5473" lon="0.95133">
        <ele>142.89</ele>
        <time>2016-01-23T15:38:17Z</time>
      </trkpt>
      <trkpt lat="44.54732" lon="0.95122">
        <ele>141.45</ele>
        <time>2016-01-23T15:38:20Z</time>
      </trkpt>
      <trkpt lat="44.54729" lon="0.95119">
        <ele>140.97</ele>
        <time>2016-01-23T15:38:21Z</time>
      </trkpt>
      <trkpt lat="44.54726" lon="0.95118">
        <ele>140.49</ele>
        <time>2016-01-23T15:38:22Z</time>
      </trkpt>
      <trkpt lat="44.54676" lon="0.95108">
        <ele>137.61</ele>
        <time>2016-01-23T15:38:32Z</time>
      </trkpt>
      <trkpt lat="44.54648" lon="0.95089">
        <ele>135.68</ele>
        <time>2016-01-23T15:38:37Z</time>
      </trkpt>
      <trkpt lat="44.54643" lon="0.95088">
        <ele>134.72</ele>
        <time>2016-01-23T15:38:38Z</time>
      </trkpt>
      <trkpt lat="44.54637" lon="0.95091">
        <ele>134.24</ele>
        <time>2016-01-23T15:38:39Z</time>
      </trkpt>
      <trkpt lat="44.54633" lon="0.95095">
        <ele>133.76</ele>
        <time>2016-01-23T15:38:40Z</time>
      </trkpt>
      <trkpt lat="44.54629" lon="0.95101">
        <ele>133.28</ele>
        <time>2016-01-23T15:38:41Z</time>
      </trkpt>
      <trkpt lat="44.54626" lon="0.95107">
        <ele>132.8</ele>
        <time>2016-01-23T15:38:42Z</time>
      </trkpt>
      <trkpt lat="44.54622" lon="0.95113">
        <ele>132.32</ele>
        <time>2016-01-23T15:38:43Z</time>
      </trkpt>
      <trkpt lat="44.54617" lon="0.95118">
        <ele>132.32</ele>
        <time>2016-01-23T15:38:44Z</time>
      </trkpt>
      <trkpt lat="44.54612" lon="0.95121">
        <ele>131.36</ele>
        <time>2016-01-23T15:38:45Z</time>
      </trkpt>
      <trkpt lat="44.54607" lon="0.95124">
        <ele>130.88</ele>
        <time>2016-01-23T15:38:46Z</time>
      </trkpt>
      <trkpt lat="44.54601" lon="0.95126">
        <ele>130.88</ele>
        <time>2016-01-23T15:38:47Z</time>
      </trkpt>
      <trkpt lat="44.54596" lon="0.95127">
        <ele>130.4</ele>
        <time>2016-01-23T15:38:48Z</time>
      </trkpt>
      <trkpt lat="44.54591" lon="0.95128">
        <ele>130.4</ele>
        <time>2016-01-23T15:38:49Z</time>
      </trkpt>
      <trkpt lat="44.54581" lon="0.95128">
        <ele>129.92</ele>
        <time>2016-01-23T15:38:51Z</time>
      </trkpt>
      <trkpt lat="44.54576" lon="0.95126">
        <ele>129.92</ele>
        <time>2016-01-23T15:38:52Z</time>
      </trkpt>
      <trkpt lat="44.54571" lon="0.95125">
        <ele>129.92</ele>
        <time>2016-01-23T15:38:53Z</time>
      </trkpt>
      <trkpt lat="44.54551" lon="0.95121">
        <ele>128.95</ele>
        <time>2016-01-23T15:38:57Z</time>
      </trkpt>
      <trkpt lat="44.54519" lon="0.95115">
        <ele>127.51</ele>
        <time>2016-01-23T15:39:03Z</time>
      </trkpt>
      <trkpt lat="44.54506" lon="0.95116">
        <ele>126.55</ele>
        <time>2016-01-23T15:39:05Z</time>
      </trkpt>
      <trkpt lat="44.54499" lon="0.95117">
        <ele>126.07</ele>
        <time>2016-01-23T15:39:06Z</time>
      </trkpt>
      <trkpt lat="44.54471" lon="0.95124">
        <ele>124.15</ele>
        <time>2016-01-23T15:39:10Z</time>
      </trkpt>
      <trkpt lat="44.54463" lon="0.95123">
        <ele>123.67</ele>
        <time>2016-01-23T15:39:11Z</time>
      </trkpt>
      <trkpt lat="44.54455" lon="0.95121">
        <ele>123.67</ele>
        <time>2016-01-23T15:39:12Z</time>
      </trkpt>
      <trkpt lat="44.54436" lon="0.95114">
        <ele>123.19</ele>
        <time>2016-01-23T15:39:15Z</time>
      </trkpt>
      <trkpt lat="44.54431" lon="0.95116">
        <ele>123.19</ele>
        <time>2016-01-23T15:39:16Z</time>
      </trkpt>
      <trkpt lat="44.54428" lon="0.9512">
        <ele>123.19</ele>
        <time>2016-01-23T15:39:17Z</time>
      </trkpt>
      <trkpt lat="44.54426" lon="0.95125">
        <ele>123.19</ele>
        <time>2016-01-23T15:39:18Z</time>
      </trkpt>
      <trkpt lat="44.54424" lon="0.95131">
        <ele>123.67</ele>
        <time>2016-01-23T15:39:19Z</time>
      </trkpt>
      <trkpt lat="44.54423" lon="0.95136">
        <ele>123.67</ele>
        <time>2016-01-23T15:39:20Z</time>
      </trkpt>
      <trkpt lat="44.54422" lon="0.95141">
        <ele>124.15</ele>
        <time>2016-01-23T15:39:21Z</time>
      </trkpt>
      <trkpt lat="44.54421" lon="0.95146">
        <ele>124.63</ele>
        <time>2016-01-23T15:39:22Z</time>
      </trkpt>
      <trkpt lat="44.5442" lon="0.95151">
        <ele>124.63</ele>
        <time>2016-01-23T15:39:23Z</time>
      </trkpt>
      <trkpt lat="44.54403" lon="0.95207">
        <ele>129.92</ele>
        <time>2016-01-23T15:39:37Z</time>
      </trkpt>
      <trkpt lat="44.54393" lon="0.95244">
        <ele>131.84</ele>
        <time>2016-01-23T15:39:47Z</time>
      </trkpt>
      <trkpt lat="44.54392" lon="0.95247">
        <ele>131.84</ele>
        <time>2016-01-23T15:39:48Z</time>
      </trkpt>
      <trkpt lat="44.54391" lon="0.9525">
        <ele>131.84</ele>
        <time>2016-01-23T15:39:49Z</time>
      </trkpt>
      <trkpt lat="44.5439" lon="0.95254">
        <ele>131.84</ele>
        <time>2016-01-23T15:39:50Z</time>
      </trkpt>
      <trkpt lat="44.5439" lon="0.95258">
        <ele>131.84</ele>
        <time>2016-01-23T15:39:51Z</time>
      </trkpt>
      <trkpt lat="44.5439" lon="0.95261">
        <ele>131.84</ele>
        <time>2016-01-23T15:39:52Z</time>
      </trkpt>
      <trkpt lat="44.54389" lon="0.95265">
        <ele>131.36</ele>
        <time>2016-01-23T15:39:53Z</time>
      </trkpt>
      <trkpt lat="44.54388" lon="0.9527">
        <ele>131.36</ele>
        <time>2016-01-23T15:39:54Z</time>
      </trkpt>
      <trkpt lat="44.54388" lon="0.95275">
        <ele>130.88</ele>
        <time>2016-01-23T15:39:55Z</time>
      </trkpt>
      <trkpt lat="44.54384" lon="0.95341">
        <ele>129.92</ele>
        <time>2016-01-23T15:40:08Z</time>
      </trkpt>
      <trkpt lat="44.54379" lon="0.95392">
        <ele>132.32</ele>
        <time>2016-01-23T15:40:19Z</time>
      </trkpt>
      <trkpt lat="44.54362" lon="0.95415">
        <ele>135.68</ele>
        <time>2016-01-23T15:40:28Z</time>
      </trkpt>
      <trkpt lat="44.54341" lon="0.95429">
        <ele>140.97</ele>
        <time>2016-01-23T15:40:38Z</time>
      </trkpt>
      <trkpt lat="44.54333" lon="0.95433">
        <ele>142.41</ele>
        <time>2016-01-23T15:40:42Z</time>
      </trkpt>
      <trkpt lat="44.54323" lon="0.95434">
        <ele>144.34</ele>
        <time>2016-01-23T15:40:47Z</time>
      </trkpt>
      <trkpt lat="44.54321" lon="0.95434">
        <ele>144.82</ele>
        <time>2016-01-23T15:40:48Z</time>
      </trkpt>
      <trkpt lat="44.54319" lon="0.95435">
        <ele>145.3</ele>
        <time>2016-01-23T15:40:49Z</time>
      </trkpt>
      <trkpt lat="44.54317" lon="0.95436">
        <ele>145.3</ele>
        <time>2016-01-23T15:40:50Z</time>
      </trkpt>
      <trkpt lat="44.54314" lon="0.95436">
        <ele>145.3</ele>
        <time>2016-01-23T15:40:51Z</time>
      </trkpt>
      <trkpt lat="44.54311" lon="0.95436">
        <ele>145.3</ele>
        <time>2016-01-23T15:40:52Z</time>
      </trkpt>
      <trkpt lat="44.54309" lon="0.95435">
        <ele>144.82</ele>
        <time>2016-01-23T15:40:53Z</time>
      </trkpt>
      <trkpt lat="44.54275" lon="0.9545">
        <ele>141.93</ele>
        <time>2016-01-23T15:41:02Z</time>
      </trkpt>
      <trkpt lat="44.54208" lon="0.95489">
        <ele>137.61</ele>
        <time>2016-01-23T15:41:13Z</time>
      </trkpt>
      <trkpt lat="44.54167" lon="0.95516">
        <ele>140.01</ele>
        <time>2016-01-23T15:41:23Z</time>
      </trkpt>
      <trkpt lat="44.54139" lon="0.9552">
        <ele>140.97</ele>
        <time>2016-01-23T15:41:31Z</time>
      </trkpt>
      <trkpt lat="44.54131" lon="0.95516">
        <ele>140.49</ele>
        <time>2016-01-23T15:41:33Z</time>
      </trkpt>
      <trkpt lat="44.54127" lon="0.95513">
        <ele>140.97</ele>
        <time>2016-01-23T15:41:34Z</time>
      </trkpt>
      <trkpt lat="44.54123" lon="0.9551">
        <ele>140.49</ele>
        <time>2016-01-23T15:41:35Z</time>
      </trkpt>
      <trkpt lat="44.54115" lon="0.95503">
        <ele>140.01</ele>
        <time>2016-01-23T15:41:37Z</time>
      </trkpt>
      <trkpt lat="44.54111" lon="0.95498">
        <ele>140.01</ele>
        <time>2016-01-23T15:41:38Z</time>
      </trkpt>
      <trkpt lat="44.54108" lon="0.95494">
        <ele>139.53</ele>
        <time>2016-01-23T15:41:39Z</time>
      </trkpt>
      <trkpt lat="44.54104" lon="0.95489">
        <ele>139.53</ele>
        <time>2016-01-23T15:41:40Z</time>
      </trkpt>
      <trkpt lat="44.541" lon="0.95485">
        <ele>139.53</ele>
        <time>2016-01-23T15:41:41Z</time>
      </trkpt>
      <trkpt lat="44.54097" lon="0.95481">
        <ele>139.53</ele>
        <time>2016-01-23T15:41:42Z</time>
      </trkpt>
      <trkpt lat="44.54093" lon="0.95478">
        <ele>139.53</ele>
        <time>2016-01-23T15:41:43Z</time>
      </trkpt>
      <trkpt lat="44.54088" lon="0.95476">
        <ele>139.53</ele>
        <time>2016-01-23T15:41:44Z</time>
      </trkpt>
      <trkpt lat="44.54084" lon="0.95476">
        <ele>139.05</ele>
        <time>2016-01-23T15:41:45Z</time>
      </trkpt>
      <trkpt lat="44.5408" lon="0.95477">
        <ele>139.05</ele>
        <time>2016-01-23T15:41:46Z</time>
      </trkpt>
      <trkpt lat="44.54075" lon="0.9548">
        <ele>138.57</ele>
        <time>2016-01-23T15:41:47Z</time>
      </trkpt>
      <trkpt lat="44.54071" lon="0.95484">
        <ele>138.57</ele>
        <time>2016-01-23T15:41:48Z</time>
      </trkpt>
      <trkpt lat="44.54066" lon="0.9549">
        <ele>137.61</ele>
        <time>2016-01-23T15:41:49Z</time>
      </trkpt>
      <trkpt lat="44.54062" lon="0.95497">
        <ele>137.13</ele>
        <time>2016-01-23T15:41:50Z</time>
      </trkpt>
      <trkpt lat="44.54059" lon="0.95506">
        <ele>136.16</ele>
        <time>2016-01-23T15:41:51Z</time>
      </trkpt>
      <trkpt lat="44.54056" lon="0.95516">
        <ele>135.2</ele>
        <time>2016-01-23T15:41:52Z</time>
      </trkpt>
      <trkpt lat="44.54053" lon="0.95528">
        <ele>134.24</ele>
        <time>2016-01-23T15:41:53Z</time>
      </trkpt>
      <trkpt lat="44.54048" lon="0.95551">
        <ele>132.8</ele>
        <time>2016-01-23T15:41:55Z</time>
      </trkpt>
      <trkpt lat="44.54043" lon="0.95562">
        <ele>132.32</ele>
        <time>2016-01-23T15:41:56Z</time>
      </trkpt>
      <trkpt lat="44.54038" lon="0.95571">
        <ele>131.84</ele>
        <time>2016-01-23T15:41:57Z</time>
      </trkpt>
      <trkpt lat="44.54032" lon="0.95578">
        <ele>131.36</ele>
        <time>2016-01-23T15:41:58Z</time>
      </trkpt>
      <trkpt lat="44.54026" lon="0.95583">
        <ele>130.88</ele>
        <time>2016-01-23T15:41:59Z</time>
      </trkpt>
      <trkpt lat="44.54014" lon="0.95595">
        <ele>129.92</ele>
        <time>2016-01-23T15:42:01Z</time>
      </trkpt>
      <trkpt lat="44.53945" lon="0.95686">
        <ele>125.11</ele>
        <time>2016-01-23T15:42:12Z</time>
      </trkpt>
      <trkpt lat="44.53889" lon="0.95779">
        <ele>118.86</ele>
        <time>2016-01-23T15:42:21Z</time>
      </trkpt>
      <trkpt lat="44.53886" lon="0.95782">
        <ele>118.38</ele>
        <time>2016-01-23T15:42:22Z</time>
      </trkpt>
      <trkpt lat="44.53881" lon="0.95787">
        <ele>117.42</ele>
        <time>2016-01-23T15:42:30Z</time>
      </trkpt>
      <trkpt lat="44.53878" lon="0.95789">
        <ele>118.38</ele>
        <time>2016-01-23T15:42:42Z</time>
      </trkpt>
      <trkpt lat="44.53877" lon="0.95791">
        <ele>118.86</ele>
        <time>2016-01-23T15:42:43Z</time>
      </trkpt>
      <trkpt lat="44.53875" lon="0.95793">
        <ele>118.86</ele>
        <time>2016-01-23T15:42:44Z</time>
      </trkpt>
      <trkpt lat="44.53873" lon="0.95795">
        <ele>118.86</ele>
        <time>2016-01-23T15:42:45Z</time>
      </trkpt>
      <trkpt lat="44.53871" lon="0.95798">
        <ele>118.86</ele>
        <time>2016-01-23T15:42:46Z</time>
      </trkpt>
      <trkpt lat="44.53827" lon="0.95827">
        <ele>115.98</ele>
        <time>2016-01-23T15:42:56Z</time>
      </trkpt>
      <trkpt lat="44.53796" lon="0.95839">
        <ele>114.53</ele>
        <time>2016-01-23T15:43:02Z</time>
      </trkpt>
      <trkpt lat="44.53743" lon="0.95856">
        <ele>115.01</ele>
        <time>2016-01-23T15:43:15Z</time>
      </trkpt>
      <trkpt lat="44.537" lon="0.9585">
        <ele>119.34</ele>
        <time>2016-01-23T15:43:30Z</time>
      </trkpt>
      <trkpt lat="44.53668" lon="0.95838">
        <ele>123.67</ele>
        <time>2016-01-23T15:43:43Z</time>
      </trkpt>
      <trkpt lat="44.53649" lon="0.95829">
        <ele>124.63</ele>
        <time>2016-01-23T15:43:52Z</time>
      </trkpt>
      <trkpt lat="44.53622" lon="0.95817">
        <ele>127.51</ele>
        <time>2016-01-23T15:44:03Z</time>
      </trkpt>
      <trkpt lat="44.5362" lon="0.95816">
        <ele>127.51</ele>
        <time>2016-01-23T15:44:04Z</time>
      </trkpt>
      <trkpt lat="44.53606" lon="0.95813">
        <ele>129.43</ele>
        <time>2016-01-23T15:44:11Z</time>
      </trkpt>
      <trkpt lat="44.53605" lon="0.95812">
        <ele>129.43</ele>
        <time>2016-01-23T15:44:12Z</time>
      </trkpt>
      <trkpt lat="44.53603" lon="0.95811">
        <ele>129.92</ele>
        <time>2016-01-23T15:44:13Z</time>
      </trkpt>
      <trkpt lat="44.53597" lon="0.9581">
        <ele>129.92</ele>
        <time>2016-01-23T15:44:17Z</time>
      </trkpt>
      <trkpt lat="44.53595" lon="0.95811">
        <ele>129.92</ele>
        <time>2016-01-23T15:44:18Z</time>
      </trkpt>
      <trkpt lat="44.53594" lon="0.95813">
        <ele>129.92</ele>
        <time>2016-01-23T15:44:19Z</time>
      </trkpt>
      <trkpt lat="44.53593" lon="0.95815">
        <ele>129.92</ele>
        <time>2016-01-23T15:44:20Z</time>
      </trkpt>
      <trkpt lat="44.53592" lon="0.95818">
        <ele>130.4</ele>
        <time>2016-01-23T15:44:21Z</time>
      </trkpt>
      <trkpt lat="44.53592" lon="0.9582">
        <ele>130.4</ele>
        <time>2016-01-23T15:44:22Z</time>
      </trkpt>
      <trkpt lat="44.53591" lon="0.95822">
        <ele>130.4</ele>
        <time>2016-01-23T15:44:23Z</time>
      </trkpt>
      <trkpt lat="44.53591" lon="0.95824">
        <ele>130.88</ele>
        <time>2016-01-23T15:44:24Z</time>
      </trkpt>
      <trkpt lat="44.53591" lon="0.95826">
        <ele>130.88</ele>
        <time>2016-01-23T15:44:25Z</time>
      </trkpt>
      <trkpt lat="44.53584" lon="0.95859">
        <ele>131.36</ele>
        <time>2016-01-23T15:44:38Z</time>
      </trkpt>
      <trkpt lat="44.53584" lon="0.95861">
        <ele>131.36</ele>
        <time>2016-01-23T15:44:39Z</time>
      </trkpt>
      <trkpt lat="44.53583" lon="0.95863">
        <ele>131.84</ele>
        <time>2016-01-23T15:44:40Z</time>
      </trkpt>
      <trkpt lat="44.53583" lon="0.95866">
        <ele>131.84</ele>
        <time>2016-01-23T15:44:41Z</time>
      </trkpt>
      <trkpt lat="44.53582" lon="0.95869">
        <ele>131.84</ele>
        <time>2016-01-23T15:44:42Z</time>
      </trkpt>
      <trkpt lat="44.53582" lon="0.95872">
        <ele>131.84</ele>
        <time>2016-01-23T15:44:43Z</time>
      </trkpt>
      <trkpt lat="44.53582" lon="0.95874">
        <ele>131.84</ele>
        <time>2016-01-23T15:44:44Z</time>
      </trkpt>
      <trkpt lat="44.53578" lon="0.95908">
        <ele>135.2</ele>
        <time>2016-01-23T15:44:56Z</time>
      </trkpt>
      <trkpt lat="44.53571" lon="0.95926">
        <ele>137.13</ele>
        <time>2016-01-23T15:45:08Z</time>
      </trkpt>
      <trkpt lat="44.53562" lon="0.9595">
        <ele>140.01</ele>
        <time>2016-01-23T15:45:26Z</time>
      </trkpt>
      <trkpt lat="44.53558" lon="0.95962">
        <ele>140.01</ele>
        <time>2016-01-23T15:45:37Z</time>
      </trkpt>
      <trkpt lat="44.53554" lon="0.9597">
        <ele>140.97</ele>
        <time>2016-01-23T15:45:41Z</time>
      </trkpt>
      <trkpt lat="44.53553" lon="0.95972">
        <ele>140.97</ele>
        <time>2016-01-23T15:45:42Z</time>
      </trkpt>
      <trkpt lat="44.53552" lon="0.95975">
        <ele>141.45</ele>
        <time>2016-01-23T15:45:43Z</time>
      </trkpt>
      <trkpt lat="44.53539" lon="0.96007">
        <ele>142.41</ele>
        <time>2016-01-23T15:45:57Z</time>
      </trkpt>
      <trkpt lat="44.53531" lon="0.96035">
        <ele>141.45</ele>
        <time>2016-01-23T15:46:08Z</time>
      </trkpt>
      <trkpt lat="44.53523" lon="0.96066">
        <ele>141.93</ele>
        <time>2016-01-23T15:46:20Z</time>
      </trkpt>
      <trkpt lat="44.53516" lon="0.96084">
        <ele>141.93</ele>
        <time>2016-01-23T15:46:27Z</time>
      </trkpt>
      <trkpt lat="44.53504" lon="0.96107">
        <ele>143.37</ele>
        <time>2016-01-23T15:46:37Z</time>
      </trkpt>
      <trkpt lat="44.53491" lon="0.96148">
        <ele>144.82</ele>
        <time>2016-01-23T15:46:50Z</time>
      </trkpt>
      <trkpt lat="44.53479" lon="0.96186">
        <ele>144.34</ele>
        <time>2016-01-23T15:47:03Z</time>
      </trkpt>
      <trkpt lat="44.53475" lon="0.96232">
        <ele>144.34</ele>
        <time>2016-01-23T15:47:15Z</time>
      </trkpt>
      <trkpt lat="44.53476" lon="0.96268">
        <ele>146.74</ele>
        <time>2016-01-23T15:47:25Z</time>
      </trkpt>
      <trkpt lat="44.5348" lon="0.9632">
        <ele>146.26</ele>
        <time>2016-01-23T15:47:39Z</time>
      </trkpt>
      <trkpt lat="44.53477" lon="0.96354">
        <ele>145.3</ele>
        <time>2016-01-23T15:47:50Z</time>
      </trkpt>
      <trkpt lat="44.53473" lon="0.96358">
        <ele>147.7</ele>
        <time>2016-01-23T15:48:01Z</time>
      </trkpt>
      <trkpt lat="44.53473" lon="0.96359">
        <ele>149.14</ele>
        <time>2016-01-23T15:48:21Z</time>
      </trkpt>
      <trkpt lat="44.53473" lon="0.9636">
        <ele>149.62</ele>
        <time>2016-01-23T15:48:47Z</time>
      </trkpt>
      <trkpt lat="44.53474" lon="0.96361">
        <ele>152.03</ele>
        <time>2016-01-23T15:49:16Z</time>
      </trkpt>
      <trkpt lat="44.53475" lon="0.96359">
        <ele>151.54</ele>
        <time>2016-01-23T15:49:48Z</time>
      </trkpt>
      <trkpt lat="44.53469" lon="0.96368">
        <ele>149.62</ele>
        <time>2016-01-23T15:50:07Z</time>
      </trkpt>
      <trkpt lat="44.53458" lon="0.9639">
        <ele>151.06</ele>
        <time>2016-01-23T15:50:16Z</time>
      </trkpt>
      <trkpt lat="44.53453" lon="0.964">
        <ele>152.03</ele>
        <time>2016-01-23T15:50:20Z</time>
      </trkpt>
      <trkpt lat="44.53436" lon="0.96435">
        <ele>156.35</ele>
        <time>2016-01-23T15:50:32Z</time>
      </trkpt>
      <trkpt lat="44.53436" lon="0.96438">
        <ele>156.83</ele>
        <time>2016-01-23T15:50:33Z</time>
      </trkpt>
      <trkpt lat="44.53432" lon="0.9645">
        <ele>156.83</ele>
        <time>2016-01-23T15:50:37Z</time>
      </trkpt>
      <trkpt lat="44.53429" lon="0.96459">
        <ele>156.83</ele>
        <time>2016-01-23T15:50:40Z</time>
      </trkpt>
      <trkpt lat="44.53428" lon="0.96467">
        <ele>154.91</ele>
        <time>2016-01-23T15:50:44Z</time>
      </trkpt>
      <trkpt lat="44.53417" lon="0.9649">
        <ele>153.47</ele>
        <time>2016-01-23T15:50:58Z</time>
      </trkpt>
      <trkpt lat="44.53395" lon="0.96515">
        <ele>155.39</ele>
        <time>2016-01-23T15:51:08Z</time>
      </trkpt>
      <trkpt lat="44.53365" lon="0.96526">
        <ele>157.31</ele>
        <time>2016-01-23T15:51:19Z</time>
      </trkpt>
      <trkpt lat="44.53343" lon="0.96548">
        <ele>155.39</ele>
        <time>2016-01-23T15:51:29Z</time>
      </trkpt>
      <trkpt lat="44.53332" lon="0.96564">
        <ele>155.87</ele>
        <time>2016-01-23T15:51:37Z</time>
      </trkpt>
      <trkpt lat="44.5333" lon="0.96565">
        <ele>155.87</ele>
        <time>2016-01-23T15:51:38Z</time>
      </trkpt>
      <trkpt lat="44.53329" lon="0.96566">
        <ele>156.35</ele>
        <time>2016-01-23T15:51:39Z</time>
      </trkpt>
      <trkpt lat="44.53327" lon="0.96568">
        <ele>156.35</ele>
        <time>2016-01-23T15:51:40Z</time>
      </trkpt>
      <trkpt lat="44.53326" lon="0.96569">
        <ele>156.35</ele>
        <time>2016-01-23T15:51:41Z</time>
      </trkpt>
      <trkpt lat="44.53324" lon="0.96571">
        <ele>156.83</ele>
        <time>2016-01-23T15:51:42Z</time>
      </trkpt>
      <trkpt lat="44.53324" lon="0.96574">
        <ele>156.35</ele>
        <time>2016-01-23T15:51:44Z</time>
      </trkpt>
      <trkpt lat="44.53323" lon="0.96577">
        <ele>155.87</ele>
        <time>2016-01-23T15:51:45Z</time>
      </trkpt>
      <trkpt lat="44.53322" lon="0.9658">
        <ele>155.39</ele>
        <time>2016-01-23T15:51:46Z</time>
      </trkpt>
      <trkpt lat="44.5332" lon="0.96583">
        <ele>154.91</ele>
        <time>2016-01-23T15:51:47Z</time>
      </trkpt>
      <trkpt lat="44.53317" lon="0.96587">
        <ele>154.43</ele>
        <time>2016-01-23T15:51:48Z</time>
      </trkpt>
      <trkpt lat="44.53313" lon="0.96591">
        <ele>153.95</ele>
        <time>2016-01-23T15:51:49Z</time>
      </trkpt>
      <trkpt lat="44.5331" lon="0.96595">
        <ele>152.99</ele>
        <time>2016-01-23T15:51:50Z</time>
      </trkpt>
      <trkpt lat="44.53302" lon="0.96601">
        <ele>152.51</ele>
        <time>2016-01-23T15:51:52Z</time>
      </trkpt>
      <trkpt lat="44.53297" lon="0.96604">
        <ele>152.03</ele>
        <time>2016-01-23T15:51:53Z</time>
      </trkpt>
      <trkpt lat="44.53286" lon="0.96608">
        <ele>151.06</ele>
        <time>2016-01-23T15:51:55Z</time>
      </trkpt>
      <trkpt lat="44.53279" lon="0.9661">
        <ele>150.58</ele>
        <time>2016-01-23T15:51:56Z</time>
      </trkpt>
      <trkpt lat="44.53273" lon="0.96611">
        <ele>150.1</ele>
        <time>2016-01-23T15:51:57Z</time>
      </trkpt>
      <trkpt lat="44.53266" lon="0.96614">
        <ele>149.62</ele>
        <time>2016-01-23T15:51:58Z</time>
      </trkpt>
      <trkpt lat="44.5326" lon="0.96616">
        <ele>149.14</ele>
        <time>2016-01-23T15:51:59Z</time>
      </trkpt>
      <trkpt lat="44.53254" lon="0.96619">
        <ele>148.66</ele>
        <time>2016-01-23T15:52:00Z</time>
      </trkpt>
      <trkpt lat="44.53248" lon="0.96622">
        <ele>148.66</ele>
        <time>2016-01-23T15:52:01Z</time>
      </trkpt>
      <trkpt lat="44.53242" lon="0.96623">
        <ele>148.66</ele>
        <time>2016-01-23T15:52:02Z</time>
      </trkpt>
      <trkpt lat="44.53236" lon="0.96623">
        <ele>148.66</ele>
        <time>2016-01-23T15:52:03Z</time>
      </trkpt>
      <trkpt lat="44.53231" lon="0.96623">
        <ele>148.66</ele>
        <time>2016-01-23T15:52:04Z</time>
      </trkpt>
      <trkpt lat="44.53226" lon="0.96622">
        <ele>148.66</ele>
        <time>2016-01-23T15:52:05Z</time>
      </trkpt>
      <trkpt lat="44.53221" lon="0.96622">
        <ele>148.66</ele>
        <time>2016-01-23T15:52:06Z</time>
      </trkpt>
      <trkpt lat="44.53217" lon="0.96621">
        <ele>148.66</ele>
        <time>2016-01-23T15:52:07Z</time>
      </trkpt>
      <trkpt lat="44.53173" lon="0.96634">
        <ele>151.06</ele>
        <time>2016-01-23T15:52:19Z</time>
      </trkpt>
      <trkpt lat="44.53148" lon="0.96648">
        <ele>147.22</ele>
        <time>2016-01-23T15:52:29Z</time>
      </trkpt>
      <trkpt lat="44.53114" lon="0.96676">
        <ele>144.82</ele>
        <time>2016-01-23T15:52:39Z</time>
      </trkpt>
      <trkpt lat="44.53109" lon="0.9668">
        <ele>144.82</ele>
        <time>2016-01-23T15:52:40Z</time>
      </trkpt>
      <trkpt lat="44.53105" lon="0.96684">
        <ele>144.82</ele>
        <time>2016-01-23T15:52:41Z</time>
      </trkpt>
      <trkpt lat="44.53102" lon="0.96688">
        <ele>144.82</ele>
        <time>2016-01-23T15:52:42Z</time>
      </trkpt>
      <trkpt lat="44.531" lon="0.96693">
        <ele>145.3</ele>
        <time>2016-01-23T15:52:43Z</time>
      </trkpt>
      <trkpt lat="44.53098" lon="0.96698">
        <ele>145.3</ele>
        <time>2016-01-23T15:52:44Z</time>
      </trkpt>
      <trkpt lat="44.53081" lon="0.96742">
        <ele>142.89</ele>
        <time>2016-01-23T15:52:53Z</time>
      </trkpt>
      <trkpt lat="44.53057" lon="0.96758">
        <ele>139.53</ele>
        <time>2016-01-23T15:53:00Z</time>
      </trkpt>
      <trkpt lat="44.53025" lon="0.96761">
        <ele>139.05</ele>
        <time>2016-01-23T15:53:10Z</time>
      </trkpt>
      <trkpt lat="44.53009" lon="0.96764">
        <ele>139.05</ele>
        <time>2016-01-23T15:53:14Z</time>
      </trkpt>
      <trkpt lat="44.52972" lon="0.9676">
        <ele>142.89</ele>
        <time>2016-01-23T15:53:25Z</time>
      </trkpt>
      <trkpt lat="44.5295" lon="0.96754">
        <ele>143.85</ele>
        <time>2016-01-23T15:53:35Z</time>
      </trkpt>
      <trkpt lat="44.52946" lon="0.96751">
        <ele>143.85</ele>
        <time>2016-01-23T15:53:37Z</time>
      </trkpt>
      <trkpt lat="44.52944" lon="0.96751">
        <ele>144.34</ele>
        <time>2016-01-23T15:53:38Z</time>
      </trkpt>
      <trkpt lat="44.52943" lon="0.96749">
        <ele>144.82</ele>
        <time>2016-01-23T15:53:39Z</time>
      </trkpt>
      <trkpt lat="44.52941" lon="0.96747">
        <ele>145.3</ele>
        <time>2016-01-23T15:53:40Z</time>
      </trkpt>
      <trkpt lat="44.5294" lon="0.96746">
        <ele>146.26</ele>
        <time>2016-01-23T15:53:41Z</time>
      </trkpt>
      <trkpt lat="44.52938" lon="0.96744">
        <ele>147.22</ele>
        <time>2016-01-23T15:53:42Z</time>
      </trkpt>
      <trkpt lat="44.52937" lon="0.96743">
        <ele>147.7</ele>
        <time>2016-01-23T15:53:43Z</time>
      </trkpt>
      <trkpt lat="44.52935" lon="0.96741">
        <ele>148.66</ele>
        <time>2016-01-23T15:53:44Z</time>
      </trkpt>
      <trkpt lat="44.52933" lon="0.9674">
        <ele>149.14</ele>
        <time>2016-01-23T15:53:45Z</time>
      </trkpt>
      <trkpt lat="44.52932" lon="0.9674">
        <ele>149.62</ele>
        <time>2016-01-23T15:53:46Z</time>
      </trkpt>
      <trkpt lat="44.5293" lon="0.96738">
        <ele>150.58</ele>
        <time>2016-01-23T15:53:47Z</time>
      </trkpt>
      <trkpt lat="44.52906" lon="0.96724">
        <ele>159.72</ele>
        <time>2016-01-23T15:53:57Z</time>
      </trkpt>
      <trkpt lat="44.52904" lon="0.96723">
        <ele>160.2</ele>
        <time>2016-01-23T15:53:58Z</time>
      </trkpt>
      <trkpt lat="44.52887" lon="0.96715">
        <ele>162.12</ele>
        <time>2016-01-23T15:54:06Z</time>
      </trkpt>
      <trkpt lat="44.52884" lon="0.96715">
        <ele>162.12</ele>
        <time>2016-01-23T15:54:07Z</time>
      </trkpt>
      <trkpt lat="44.52881" lon="0.96714">
        <ele>162.12</ele>
        <time>2016-01-23T15:54:08Z</time>
      </trkpt>
      <trkpt lat="44.52878" lon="0.96712">
        <ele>162.12</ele>
        <time>2016-01-23T15:54:09Z</time>
      </trkpt>
      <trkpt lat="44.52875" lon="0.96713">
        <ele>161.64</ele>
        <time>2016-01-23T15:54:10Z</time>
      </trkpt>
      <trkpt lat="44.52873" lon="0.96713">
        <ele>161.64</ele>
        <time>2016-01-23T15:54:11Z</time>
      </trkpt>
      <trkpt lat="44.52869" lon="0.96712">
        <ele>161.16</ele>
        <time>2016-01-23T15:54:12Z</time>
      </trkpt>
      <trkpt lat="44.52837" lon="0.967">
        <ele>160.68</ele>
        <time>2016-01-23T15:54:23Z</time>
      </trkpt>
      <trkpt lat="44.52827" lon="0.96694">
        <ele>159.24</ele>
        <time>2016-01-23T15:54:27Z</time>
      </trkpt>
      <trkpt lat="44.52824" lon="0.96693">
        <ele>159.24</ele>
        <time>2016-01-23T15:54:28Z</time>
      </trkpt>
      <trkpt lat="44.5281" lon="0.96686">
        <ele>159.24</ele>
        <time>2016-01-23T15:54:33Z</time>
      </trkpt>
      <trkpt lat="44.52808" lon="0.96684">
        <ele>159.72</ele>
        <time>2016-01-23T15:54:34Z</time>
      </trkpt>
      <trkpt lat="44.52806" lon="0.96683">
        <ele>160.2</ele>
        <time>2016-01-23T15:54:35Z</time>
      </trkpt>
      <trkpt lat="44.52776" lon="0.96667">
        <ele>160.68</ele>
        <time>2016-01-23T15:54:46Z</time>
      </trkpt>
      <trkpt lat="44.52745" lon="0.96645">
        <ele>159.24</ele>
        <time>2016-01-23T15:54:56Z</time>
      </trkpt>
      <trkpt lat="44.52724" lon="0.96635">
        <ele>158.27</ele>
        <time>2016-01-23T15:55:02Z</time>
      </trkpt>
      <trkpt lat="44.52722" lon="0.96633">
        <ele>158.27</ele>
        <time>2016-01-23T15:55:03Z</time>
      </trkpt>
      <trkpt lat="44.52719" lon="0.96632">
        <ele>158.75</ele>
        <time>2016-01-23T15:55:04Z</time>
      </trkpt>
      <trkpt lat="44.52718" lon="0.96633">
        <ele>158.75</ele>
        <time>2016-01-23T15:55:05Z</time>
      </trkpt>
      <trkpt lat="44.52715" lon="0.96634">
        <ele>159.72</ele>
        <time>2016-01-23T15:55:14Z</time>
      </trkpt>
      <trkpt lat="44.52714" lon="0.96634">
        <ele>160.68</ele>
        <time>2016-01-23T15:55:31Z</time>
      </trkpt>
      <trkpt lat="44.52714" lon="0.96633">
        <ele>161.64</ele>
        <time>2016-01-23T15:55:50Z</time>
      </trkpt>
      <trkpt lat="44.52699" lon="0.96643">
        <ele>160.68</ele>
        <time>2016-01-23T15:56:04Z</time>
      </trkpt>
      <trkpt lat="44.52657" lon="0.96679">
        <ele>153.95</ele>
        <time>2016-01-23T15:56:11Z</time>
      </trkpt>
      <trkpt lat="44.52595" lon="0.96748">
        <ele>142.89</ele>
        <time>2016-01-23T15:56:20Z</time>
      </trkpt>
      <trkpt lat="44.5256" lon="0.96789">
        <ele>135.68</ele>
        <time>2016-01-23T15:56:25Z</time>
      </trkpt>
      <trkpt lat="44.52553" lon="0.96796">
        <ele>134.24</ele>
        <time>2016-01-23T15:56:26Z</time>
      </trkpt>
      <trkpt lat="44.52546" lon="0.96801">
        <ele>132.8</ele>
        <time>2016-01-23T15:56:27Z</time>
      </trkpt>
      <trkpt lat="44.52541" lon="0.96803">
        <ele>131.84</ele>
        <time>2016-01-23T15:56:28Z</time>
      </trkpt>
      <trkpt lat="44.52536" lon="0.96803">
        <ele>130.4</ele>
        <time>2016-01-23T15:56:29Z</time>
      </trkpt>
      <trkpt lat="44.52532" lon="0.968">
        <ele>129.92</ele>
        <time>2016-01-23T15:56:30Z</time>
      </trkpt>
      <trkpt lat="44.52529" lon="0.96795">
        <ele>128.47</ele>
        <time>2016-01-23T15:56:31Z</time>
      </trkpt>
      <trkpt lat="44.52527" lon="0.9679">
        <ele>127.51</ele>
        <time>2016-01-23T15:56:32Z</time>
      </trkpt>
      <trkpt lat="44.52526" lon="0.96783">
        <ele>126.07</ele>
        <time>2016-01-23T15:56:33Z</time>
      </trkpt>
      <trkpt lat="44.52525" lon="0.96776">
        <ele>124.63</ele>
        <time>2016-01-23T15:56:34Z</time>
      </trkpt>
      <trkpt lat="44.52524" lon="0.96768">
        <ele>123.67</ele>
        <time>2016-01-23T15:56:35Z</time>
      </trkpt>
      <trkpt lat="44.52516" lon="0.96736">
        <ele>120.78</ele>
        <time>2016-01-23T15:56:39Z</time>
      </trkpt>
      <trkpt lat="44.5251" lon="0.96712">
        <ele>119.34</ele>
        <time>2016-01-23T15:56:42Z</time>
      </trkpt>
      <trkpt lat="44.52505" lon="0.96697">
        <ele>118.38</ele>
        <time>2016-01-23T15:56:44Z</time>
      </trkpt>
      <trkpt lat="44.52488" lon="0.9665">
        <ele>115.98</ele>
        <time>2016-01-23T15:56:50Z</time>
      </trkpt>
      <trkpt lat="44.52468" lon="0.96601">
        <ele>114.05</ele>
        <time>2016-01-23T15:56:56Z</time>
      </trkpt>
      <trkpt lat="44.52457" lon="0.96572">
        <ele>114.05</ele>
        <time>2016-01-23T15:56:59Z</time>
      </trkpt>
      <trkpt lat="44.5245" lon="0.96549">
        <ele>114.05</ele>
        <time>2016-01-23T15:57:01Z</time>
      </trkpt>
      <trkpt lat="44.52447" lon="0.96538">
        <ele>114.05</ele>
        <time>2016-01-23T15:57:02Z</time>
      </trkpt>
      <trkpt lat="44.52444" lon="0.96527">
        <ele>114.05</ele>
        <time>2016-01-23T15:57:03Z</time>
      </trkpt>
      <trkpt lat="44.52418" lon="0.96392">
        <ele>113.09</ele>
        <time>2016-01-23T15:57:16Z</time>
      </trkpt>
      <trkpt lat="44.52413" lon="0.96378">
        <ele>113.57</ele>
        <time>2016-01-23T15:57:18Z</time>
      </trkpt>
      <trkpt lat="44.52399" lon="0.96328">
        <ele>115.01</ele>
        <time>2016-01-23T15:57:26Z</time>
      </trkpt>
      <trkpt lat="44.52398" lon="0.96321">
        <ele>115.01</ele>
        <time>2016-01-23T15:57:27Z</time>
      </trkpt>
      <trkpt lat="44.52384" lon="0.96276">
        <ele>115.01</ele>
        <time>2016-01-23T15:57:33Z</time>
      </trkpt>
      <trkpt lat="44.52379" lon="0.96268">
        <ele>115.01</ele>
        <time>2016-01-23T15:57:34Z</time>
      </trkpt>
      <trkpt lat="44.52358" lon="0.96237">
        <ele>113.09</ele>
        <time>2016-01-23T15:57:38Z</time>
      </trkpt>
      <trkpt lat="44.52355" lon="0.96228">
        <ele>112.61</ele>
        <time>2016-01-23T15:57:39Z</time>
      </trkpt>
      <trkpt lat="44.52354" lon="0.96218">
        <ele>112.61</ele>
        <time>2016-01-23T15:57:40Z</time>
      </trkpt>
      <trkpt lat="44.52353" lon="0.96209">
        <ele>112.13</ele>
        <time>2016-01-23T15:57:41Z</time>
      </trkpt>
      <trkpt lat="44.52354" lon="0.96199">
        <ele>111.65</ele>
        <time>2016-01-23T15:57:42Z</time>
      </trkpt>
      <trkpt lat="44.52355" lon="0.96189">
        <ele>111.17</ele>
        <time>2016-01-23T15:57:43Z</time>
      </trkpt>
      <trkpt lat="44.52357" lon="0.96179">
        <ele>111.17</ele>
        <time>2016-01-23T15:57:44Z</time>
      </trkpt>
      <trkpt lat="44.52357" lon="0.9617">
        <ele>110.69</ele>
        <time>2016-01-23T15:57:45Z</time>
      </trkpt>
      <trkpt lat="44.52357" lon="0.96161">
        <ele>110.69</ele>
        <time>2016-01-23T15:57:46Z</time>
      </trkpt>
      <trkpt lat="44.52356" lon="0.96143">
        <ele>109.73</ele>
        <time>2016-01-23T15:57:48Z</time>
      </trkpt>
      <trkpt lat="44.52354" lon="0.96134">
        <ele>109.25</ele>
        <time>2016-01-23T15:57:49Z</time>
      </trkpt>
      <trkpt lat="44.52352" lon="0.96126">
        <ele>109.25</ele>
        <time>2016-01-23T15:57:50Z</time>
      </trkpt>
      <trkpt lat="44.52349" lon="0.96118">
        <ele>109.25</ele>
        <time>2016-01-23T15:57:51Z</time>
      </trkpt>
      <trkpt lat="44.52346" lon="0.96111">
        <ele>109.25</ele>
        <time>2016-01-23T15:57:52Z</time>
      </trkpt>
      <trkpt lat="44.52342" lon="0.96104">
        <ele>108.77</ele>
        <time>2016-01-23T15:57:53Z</time>
      </trkpt>
      <trkpt lat="44.52337" lon="0.96099">
        <ele>108.77</ele>
        <time>2016-01-23T15:57:54Z</time>
      </trkpt>
      <trkpt lat="44.52333" lon="0.96094">
        <ele>108.77</ele>
        <time>2016-01-23T15:57:55Z</time>
      </trkpt>
      <trkpt lat="44.52319" lon="0.96078">
        <ele>108.77</ele>
        <time>2016-01-23T15:57:58Z</time>
      </trkpt>
      <trkpt lat="44.52292" lon="0.96056">
        <ele>108.29</ele>
        <time>2016-01-23T15:58:03Z</time>
      </trkpt>
      <trkpt lat="44.52287" lon="0.96053">
        <ele>108.29</ele>
        <time>2016-01-23T15:58:04Z</time>
      </trkpt>
      <trkpt lat="44.52274" lon="0.96049">
        <ele>108.29</ele>
        <time>2016-01-23T15:58:06Z</time>
      </trkpt>
      <trkpt lat="44.52245" lon="0.96044">
        <ele>106.84</ele>
        <time>2016-01-23T15:58:11Z</time>
      </trkpt>
      <trkpt lat="44.52239" lon="0.96041">
        <ele>106.36</ele>
        <time>2016-01-23T15:58:12Z</time>
      </trkpt>
      <trkpt lat="44.52233" lon="0.96038">
        <ele>105.4</ele>
        <time>2016-01-23T15:58:13Z</time>
      </trkpt>
      <trkpt lat="44.52211" lon="0.96027">
        <ele>103.48</ele>
        <time>2016-01-23T15:58:16Z</time>
      </trkpt>
      <trkpt lat="44.52182" lon="0.96006">
        <ele>100.6</ele>
        <time>2016-01-23T15:58:20Z</time>
      </trkpt>
      <trkpt lat="44.52142" lon="0.95969">
        <ele>95.79</ele>
        <time>2016-01-23T15:58:26Z</time>
      </trkpt>
      <trkpt lat="44.52137" lon="0.95963">
        <ele>95.31</ele>
        <time>2016-01-23T15:58:27Z</time>
      </trkpt>
      <trkpt lat="44.52108" lon="0.95925">
        <ele>91.94</ele>
        <time>2016-01-23T15:58:33Z</time>
      </trkpt>
      <trkpt lat="44.52092" lon="0.95907">
        <ele>90.5</ele>
        <time>2016-01-23T15:58:36Z</time>
      </trkpt>
      <trkpt lat="44.52086" lon="0.95899">
        <ele>90.02</ele>
        <time>2016-01-23T15:58:37Z</time>
      </trkpt>
      <trkpt lat="44.52081" lon="0.9589">
        <ele>89.54</ele>
        <time>2016-01-23T15:58:38Z</time>
      </trkpt>
      <trkpt lat="44.52062" lon="0.95851">
        <ele>88.1</ele>
        <time>2016-01-23T15:58:42Z</time>
      </trkpt>
      <trkpt lat="44.52056" lon="0.95843">
        <ele>88.1</ele>
        <time>2016-01-23T15:58:43Z</time>
      </trkpt>
      <trkpt lat="44.52052" lon="0.95834">
        <ele>87.62</ele>
        <time>2016-01-23T15:58:44Z</time>
      </trkpt>
      <trkpt lat="44.52047" lon="0.95825">
        <ele>87.14</ele>
        <time>2016-01-23T15:58:45Z</time>
      </trkpt>
      <trkpt lat="44.52043" lon="0.95815">
        <ele>87.14</ele>
        <time>2016-01-23T15:58:46Z</time>
      </trkpt>
      <trkpt lat="44.5203" lon="0.95778">
        <ele>86.18</ele>
        <time>2016-01-23T15:58:50Z</time>
      </trkpt>
      <trkpt lat="44.52029" lon="0.95769">
        <ele>86.18</ele>
        <time>2016-01-23T15:58:51Z</time>
      </trkpt>
      <trkpt lat="44.52011" lon="0.95676">
        <ele>86.66</ele>
        <time>2016-01-23T15:59:02Z</time>
      </trkpt>
      <trkpt lat="44.52009" lon="0.95673">
        <ele>86.66</ele>
        <time>2016-01-23T15:59:03Z</time>
      </trkpt>
      <trkpt lat="44.52007" lon="0.95671">
        <ele>87.14</ele>
        <time>2016-01-23T15:59:04Z</time>
      </trkpt>
      <trkpt lat="44.52006" lon="0.9567">
        <ele>87.14</ele>
        <time>2016-01-23T15:59:05Z</time>
      </trkpt>
      <trkpt lat="44.52004" lon="0.95668">
        <ele>88.1</ele>
        <time>2016-01-23T15:59:11Z</time>
      </trkpt>
      <trkpt lat="44.52" lon="0.95669">
        <ele>88.58</ele>
        <time>2016-01-23T15:59:13Z</time>
      </trkpt>
      <trkpt lat="44.51998" lon="0.95671">
        <ele>88.58</ele>
        <time>2016-01-23T15:59:14Z</time>
      </trkpt>
      <trkpt lat="44.51974" lon="0.95685">
        <ele>88.58</ele>
        <time>2016-01-23T15:59:21Z</time>
      </trkpt>
      <trkpt lat="44.51969" lon="0.95685">
        <ele>88.58</ele>
        <time>2016-01-23T15:59:22Z</time>
      </trkpt>
      <trkpt lat="44.51955" lon="0.95687">
        <ele>88.1</ele>
        <time>2016-01-23T15:59:25Z</time>
      </trkpt>
      <trkpt lat="44.51951" lon="0.9569">
        <ele>88.1</ele>
        <time>2016-01-23T15:59:26Z</time>
      </trkpt>
      <trkpt lat="44.51938" lon="0.95699">
        <ele>88.58</ele>
        <time>2016-01-23T15:59:29Z</time>
      </trkpt>
      <trkpt lat="44.51935" lon="0.95703">
        <ele>88.58</ele>
        <time>2016-01-23T15:59:30Z</time>
      </trkpt>
      <trkpt lat="44.51932" lon="0.95707">
        <ele>88.58</ele>
        <time>2016-01-23T15:59:31Z</time>
      </trkpt>
      <trkpt lat="44.51929" lon="0.95711">
        <ele>88.1</ele>
        <time>2016-01-23T15:59:32Z</time>
      </trkpt>
      <trkpt lat="44.51927" lon="0.95715">
        <ele>88.1</ele>
        <time>2016-01-23T15:59:33Z</time>
      </trkpt>
      <trkpt lat="44.51925" lon="0.9572">
        <ele>87.62</ele>
        <time>2016-01-23T15:59:34Z</time>
      </trkpt>
      <trkpt lat="44.51923" lon="0.95725">
        <ele>87.14</ele>
        <time>2016-01-23T15:59:35Z</time>
      </trkpt>
      <trkpt lat="44.51917" lon="0.95739">
        <ele>87.14</ele>
        <time>2016-01-23T15:59:38Z</time>
      </trkpt>
      <trkpt lat="44.51913" lon="0.95741">
        <ele>87.14</ele>
        <time>2016-01-23T15:59:39Z</time>
      </trkpt>
      <trkpt lat="44.51909" lon="0.95741">
        <ele>87.14</ele>
        <time>2016-01-23T15:59:40Z</time>
      </trkpt>
      <trkpt lat="44.519" lon="0.9574">
        <ele>87.62</ele>
        <time>2016-01-23T15:59:42Z</time>
      </trkpt>
      <trkpt lat="44.51895" lon="0.95739">
        <ele>87.62</ele>
        <time>2016-01-23T15:59:43Z</time>
      </trkpt>
      <trkpt lat="44.51891" lon="0.95738">
        <ele>87.62</ele>
        <time>2016-01-23T15:59:44Z</time>
      </trkpt>
      <trkpt lat="44.51875" lon="0.95734">
        <ele>87.62</ele>
        <time>2016-01-23T15:59:47Z</time>
      </trkpt>
      <trkpt lat="44.51864" lon="0.95729">
        <ele>87.62</ele>
        <time>2016-01-23T15:59:49Z</time>
      </trkpt>
      <trkpt lat="44.51859" lon="0.95726">
        <ele>87.62</ele>
        <time>2016-01-23T15:59:50Z</time>
      </trkpt>
      <trkpt lat="44.51851" lon="0.95719">
        <ele>88.1</ele>
        <time>2016-01-23T15:59:52Z</time>
      </trkpt>
      <trkpt lat="44.51841" lon="0.95708">
        <ele>88.1</ele>
        <time>2016-01-23T15:59:55Z</time>
      </trkpt>
      <trkpt lat="44.51834" lon="0.95699">
        <ele>88.58</ele>
        <time>2016-01-23T15:59:57Z</time>
      </trkpt>
      <trkpt lat="44.51802" lon="0.95644">
        <ele>89.06</ele>
        <time>2016-01-23T16:00:10Z</time>
      </trkpt>
      <trkpt lat="44.51791" lon="0.95609">
        <ele>90.5</ele>
        <time>2016-01-23T16:00:18Z</time>
      </trkpt>
      <trkpt lat="44.51766" lon="0.95554">
        <ele>98.67</ele>
        <time>2016-01-23T16:00:31Z</time>
      </trkpt>
      <trkpt lat="44.51759" lon="0.95538">
        <ele>99.15</ele>
        <time>2016-01-23T16:00:35Z</time>
      </trkpt>
      <trkpt lat="44.51757" lon="0.95535">
        <ele>99.15</ele>
        <time>2016-01-23T16:00:36Z</time>
      </trkpt>
      <trkpt lat="44.51756" lon="0.95531">
        <ele>99.63</ele>
        <time>2016-01-23T16:00:37Z</time>
      </trkpt>
      <trkpt lat="44.51749" lon="0.95521">
        <ele>99.63</ele>
        <time>2016-01-23T16:00:40Z</time>
      </trkpt>
      <trkpt lat="44.51746" lon="0.95521">
        <ele>99.63</ele>
        <time>2016-01-23T16:00:41Z</time>
      </trkpt>
      <trkpt lat="44.51744" lon="0.95523">
        <ele>100.11</ele>
        <time>2016-01-23T16:00:42Z</time>
      </trkpt>
      <trkpt lat="44.5172" lon="0.95558">
        <ele>99.15</ele>
        <time>2016-01-23T16:00:54Z</time>
      </trkpt>
      <trkpt lat="44.51697" lon="0.95599">
        <ele>101.56</ele>
        <time>2016-01-23T16:01:07Z</time>
      </trkpt>
      <trkpt lat="44.51676" lon="0.95651">
        <ele>101.56</ele>
        <time>2016-01-23T16:01:21Z</time>
      </trkpt>
      <trkpt lat="44.51657" lon="0.95708">
        <ele>103.48</ele>
        <time>2016-01-23T16:01:35Z</time>
      </trkpt>
      <trkpt lat="44.51631" lon="0.95757">
        <ele>104.92</ele>
        <time>2016-01-23T16:01:48Z</time>
      </trkpt>
      <trkpt lat="44.51631" lon="0.95761">
        <ele>104.92</ele>
        <time>2016-01-23T16:01:49Z</time>
      </trkpt>
      <trkpt lat="44.51646" lon="0.95807">
        <ele>103</ele>
        <time>2016-01-23T16:01:58Z</time>
      </trkpt>
      <trkpt lat="44.51647" lon="0.95812">
        <ele>103</ele>
        <time>2016-01-23T16:01:59Z</time>
      </trkpt>
      <trkpt lat="44.51654" lon="0.95834">
        <ele>101.08</ele>
        <time>2016-01-23T16:02:03Z</time>
      </trkpt>
      <trkpt lat="44.51656" lon="0.95882">
        <ele>95.79</ele>
        <time>2016-01-23T16:02:14Z</time>
      </trkpt>
      <trkpt lat="44.51649" lon="0.95899">
        <ele>93.87</ele>
        <time>2016-01-23T16:02:18Z</time>
      </trkpt>
      <trkpt lat="44.51643" lon="0.95907">
        <ele>93.39</ele>
        <time>2016-01-23T16:02:21Z</time>
      </trkpt>
      <trkpt lat="44.51627" lon="0.95923">
        <ele>92.9</ele>
        <time>2016-01-23T16:02:29Z</time>
      </trkpt>
      <trkpt lat="44.51594" lon="0.95947">
        <ele>96.75</ele>
        <time>2016-01-23T16:02:42Z</time>
      </trkpt>
      <trkpt lat="44.51575" lon="0.95961">
        <ele>99.15</ele>
        <time>2016-01-23T16:02:51Z</time>
      </trkpt>
      <trkpt lat="44.51563" lon="0.95968">
        <ele>100.11</ele>
        <time>2016-01-23T16:02:56Z</time>
      </trkpt>
      <trkpt lat="44.51552" lon="0.95974">
        <ele>100.6</ele>
        <time>2016-01-23T16:03:01Z</time>
      </trkpt>
      <trkpt lat="44.51525" lon="0.95999">
        <ele>103</ele>
        <time>2016-01-23T16:03:11Z</time>
      </trkpt>
      <trkpt lat="44.51521" lon="0.96011">
        <ele>106.36</ele>
        <time>2016-01-23T16:03:15Z</time>
      </trkpt>
      <trkpt lat="44.51521" lon="0.96024">
        <ele>109.73</ele>
        <time>2016-01-23T16:03:20Z</time>
      </trkpt>
      <trkpt lat="44.51518" lon="0.96047">
        <ele>115.98</ele>
        <time>2016-01-23T16:03:27Z</time>
      </trkpt>
      <trkpt lat="44.51522" lon="0.96078">
        <ele>120.3</ele>
        <time>2016-01-23T16:03:37Z</time>
      </trkpt>
      <trkpt lat="44.51529" lon="0.96105">
        <ele>118.86</ele>
        <time>2016-01-23T16:03:44Z</time>
      </trkpt>
      <trkpt lat="44.51546" lon="0.9616">
        <ele>109.25</ele>
        <time>2016-01-23T16:03:55Z</time>
      </trkpt>
      <trkpt lat="44.51546" lon="0.96183">
        <ele>103</ele>
        <time>2016-01-23T16:04:01Z</time>
      </trkpt>
      <trkpt lat="44.5153" lon="0.96221">
        <ele>99.63</ele>
        <time>2016-01-23T16:04:11Z</time>
      </trkpt>
      <trkpt lat="44.51519" lon="0.96239">
        <ele>100.11</ele>
        <time>2016-01-23T16:04:21Z</time>
      </trkpt>
      <trkpt lat="44.51517" lon="0.96246">
        <ele>103</ele>
        <time>2016-01-23T16:04:45Z</time>
      </trkpt>
      <trkpt lat="44.51517" lon="0.96247">
        <ele>103.48</ele>
        <time>2016-01-23T16:05:06Z</time>
      </trkpt>
      <trkpt lat="44.51516" lon="0.96246">
        <ele>102.04</ele>
        <time>2016-01-23T16:05:28Z</time>
      </trkpt>
      <trkpt lat="44.51515" lon="0.96248">
        <ele>103.96</ele>
        <time>2016-01-23T16:05:58Z</time>
      </trkpt>
      <trkpt lat="44.51514" lon="0.96248">
        <ele>104.92</ele>
        <time>2016-01-23T16:06:19Z</time>
      </trkpt>
      <trkpt lat="44.51513" lon="0.96247">
        <ele>106.36</ele>
        <time>2016-01-23T16:06:41Z</time>
      </trkpt>
      <trkpt lat="44.51512" lon="0.96248">
        <ele>105.88</ele>
        <time>2016-01-23T16:06:48Z</time>
      </trkpt>
      <trkpt lat="44.51493" lon="0.96269">
        <ele>105.88</ele>
        <time>2016-01-23T16:07:01Z</time>
      </trkpt>
      <trkpt lat="44.51483" lon="0.96277">
        <ele>105.4</ele>
        <time>2016-01-23T16:07:05Z</time>
      </trkpt>
      <trkpt lat="44.51471" lon="0.963">
        <ele>106.84</ele>
        <time>2016-01-23T16:07:11Z</time>
      </trkpt>
      <trkpt lat="44.5145" lon="0.96335">
        <ele>108.77</ele>
        <time>2016-01-23T16:07:22Z</time>
      </trkpt>
      <trkpt lat="44.51428" lon="0.9637">
        <ele>109.73</ele>
        <time>2016-01-23T16:07:33Z</time>
      </trkpt>
      <trkpt lat="44.51393" lon="0.96419">
        <ele>113.57</ele>
        <time>2016-01-23T16:07:47Z</time>
      </trkpt>
      <trkpt lat="44.51372" lon="0.96454">
        <ele>112.13</ele>
        <time>2016-01-23T16:07:57Z</time>
      </trkpt>
      <trkpt lat="44.51347" lon="0.96494">
        <ele>114.05</ele>
        <time>2016-01-23T16:08:09Z</time>
      </trkpt>
      <trkpt lat="44.51321" lon="0.96537">
        <ele>115.98</ele>
        <time>2016-01-23T16:08:22Z</time>
      </trkpt>
      <trkpt lat="44.51306" lon="0.9656">
        <ele>116.94</ele>
        <time>2016-01-23T16:08:30Z</time>
      </trkpt>
      <trkpt lat="44.51281" lon="0.96603">
        <ele>118.86</ele>
        <time>2016-01-23T16:08:44Z</time>
      </trkpt>
      <trkpt lat="44.51257" lon="0.96641">
        <ele>121.74</ele>
        <time>2016-01-23T16:08:58Z</time>
      </trkpt>
      <trkpt lat="44.51256" lon="0.96643">
        <ele>121.74</ele>
        <time>2016-01-23T16:08:59Z</time>
      </trkpt>
      <trkpt lat="44.51254" lon="0.96653">
        <ele>122.22</ele>
        <time>2016-01-23T16:09:05Z</time>
      </trkpt>
      <trkpt lat="44.5124" lon="0.96685">
        <ele>125.11</ele>
        <time>2016-01-23T16:09:18Z</time>
      </trkpt>
      <trkpt lat="44.5122" lon="0.9673">
        <ele>127.51</ele>
        <time>2016-01-23T16:09:32Z</time>
      </trkpt>
      <trkpt lat="44.51197" lon="0.96771">
        <ele>128.95</ele>
        <time>2016-01-23T16:09:45Z</time>
      </trkpt>
      <trkpt lat="44.51172" lon="0.96812">
        <ele>128.95</ele>
        <time>2016-01-23T16:09:59Z</time>
      </trkpt>
      <trkpt lat="44.51153" lon="0.9685">
        <ele>129.43</ele>
        <time>2016-01-23T16:10:10Z</time>
      </trkpt>
      <trkpt lat="44.51154" lon="0.96902">
        <ele>129.92</ele>
        <time>2016-01-23T16:10:22Z</time>
      </trkpt>
      <trkpt lat="44.51156" lon="0.96947">
        <ele>130.4</ele>
        <time>2016-01-23T16:10:33Z</time>
      </trkpt>
      <trkpt lat="44.51154" lon="0.96949">
        <ele>130.4</ele>
        <time>2016-01-23T16:10:34Z</time>
      </trkpt>
      <trkpt lat="44.51152" lon="0.96951">
        <ele>130.4</ele>
        <time>2016-01-23T16:10:35Z</time>
      </trkpt>
      <trkpt lat="44.51121" lon="0.96986">
        <ele>133.28</ele>
        <time>2016-01-23T16:10:49Z</time>
      </trkpt>
      <trkpt lat="44.51082" lon="0.97033">
        <ele>137.13</ele>
        <time>2016-01-23T16:11:07Z</time>
      </trkpt>
      <trkpt lat="44.51047" lon="0.97044">
        <ele>140.01</ele>
        <time>2016-01-23T16:11:21Z</time>
      </trkpt>
      <trkpt lat="44.51022" lon="0.97058">
        <ele>142.89</ele>
        <time>2016-01-23T16:11:32Z</time>
      </trkpt>
      <trkpt lat="44.50976" lon="0.97093">
        <ele>145.78</ele>
        <time>2016-01-23T16:11:49Z</time>
      </trkpt>
      <trkpt lat="44.50939" lon="0.97123">
        <ele>150.58</ele>
        <time>2016-01-23T16:12:03Z</time>
      </trkpt>
      <trkpt lat="44.50911" lon="0.97148">
        <ele>152.51</ele>
        <time>2016-01-23T16:12:14Z</time>
      </trkpt>
      <trkpt lat="44.5091" lon="0.9715">
        <ele>152.99</ele>
        <time>2016-01-23T16:12:15Z</time>
      </trkpt>
      <trkpt lat="44.50908" lon="0.97151">
        <ele>152.99</ele>
        <time>2016-01-23T16:12:16Z</time>
      </trkpt>
      <trkpt lat="44.50906" lon="0.97153">
        <ele>153.47</ele>
        <time>2016-01-23T16:12:17Z</time>
      </trkpt>
      <trkpt lat="44.50905" lon="0.97155">
        <ele>153.47</ele>
        <time>2016-01-23T16:12:18Z</time>
      </trkpt>
      <trkpt lat="44.50903" lon="0.97157">
        <ele>153.47</ele>
        <time>2016-01-23T16:12:19Z</time>
      </trkpt>
      <trkpt lat="44.50901" lon="0.97159">
        <ele>153.47</ele>
        <time>2016-01-23T16:12:20Z</time>
      </trkpt>
      <trkpt lat="44.50863" lon="0.972">
        <ele>151.06</ele>
        <time>2016-01-23T16:12:34Z</time>
      </trkpt>
      <trkpt lat="44.50831" lon="0.97241">
        <ele>148.18</ele>
        <time>2016-01-23T16:12:44Z</time>
      </trkpt>
      <trkpt lat="44.50831" lon="0.97241">
        <ele>146.74</ele>
        <time>2016-01-23T16:12:55Z</time>
      </trkpt>
      <trkpt lat="44.50831" lon="0.9724">
        <ele>146.74</ele>
        <time>2016-01-23T16:13:20Z</time>
      </trkpt>
      <trkpt lat="44.5083" lon="0.97241">
        <ele>147.7</ele>
        <time>2016-01-23T16:13:44Z</time>
      </trkpt>
      <trkpt lat="44.5083" lon="0.9724">
        <ele>146.26</ele>
        <time>2016-01-23T16:14:10Z</time>
      </trkpt>
      <trkpt lat="44.5083" lon="0.9724">
        <ele>146.74</ele>
        <time>2016-01-23T16:14:37Z</time>
      </trkpt>
      <trkpt lat="44.50829" lon="0.97241">
        <ele>146.26</ele>
        <time>2016-01-23T16:14:49Z</time>
      </trkpt>
      <trkpt lat="44.50827" lon="0.9724">
        <ele>146.26</ele>
        <time>2016-01-23T16:14:50Z</time>
      </trkpt>
      <trkpt lat="44.50783" lon="0.97221">
        <ele>144.82</ele>
        <time>2016-01-23T16:15:00Z</time>
      </trkpt>
      <trkpt lat="44.50741" lon="0.97213">
        <ele>143.37</ele>
        <time>2016-01-23T16:15:07Z</time>
      </trkpt>
      <trkpt lat="44.50679" lon="0.97194">
        <ele>139.53</ele>
        <time>2016-01-23T16:15:19Z</time>
      </trkpt>
      <trkpt lat="44.50676" lon="0.97195">
        <ele>139.53</ele>
        <time>2016-01-23T16:15:20Z</time>
      </trkpt>
      <trkpt lat="44.50655" lon="0.97192">
        <ele>138.57</ele>
        <time>2016-01-23T16:15:26Z</time>
      </trkpt>
      <trkpt lat="44.50637" lon="0.97182">
        <ele>136.64</ele>
        <time>2016-01-23T16:15:30Z</time>
      </trkpt>
      <trkpt lat="44.50618" lon="0.97163">
        <ele>135.68</ele>
        <time>2016-01-23T16:15:35Z</time>
      </trkpt>
      <trkpt lat="44.50601" lon="0.9715">
        <ele>135.68</ele>
        <time>2016-01-23T16:15:39Z</time>
      </trkpt>
      <trkpt lat="44.50527" lon="0.97125">
        <ele>133.28</ele>
        <time>2016-01-23T16:15:55Z</time>
      </trkpt>
      <trkpt lat="44.50477" lon="0.97122">
        <ele>132.8</ele>
        <time>2016-01-23T16:16:08Z</time>
      </trkpt>
      <trkpt lat="44.50438" lon="0.97123">
        <ele>132.32</ele>
        <time>2016-01-23T16:16:17Z</time>
      </trkpt>
      <trkpt lat="44.50434" lon="0.97122">
        <ele>132.8</ele>
        <time>2016-01-23T16:16:18Z</time>
      </trkpt>
      <trkpt lat="44.50429" lon="0.97122">
        <ele>132.8</ele>
        <time>2016-01-23T16:16:19Z</time>
      </trkpt>
      <trkpt lat="44.50424" lon="0.97122">
        <ele>132.8</ele>
        <time>2016-01-23T16:16:20Z</time>
      </trkpt>
      <trkpt lat="44.5042" lon="0.97122">
        <ele>132.8</ele>
        <time>2016-01-23T16:16:21Z</time>
      </trkpt>
      <trkpt lat="44.50415" lon="0.97122">
        <ele>132.8</ele>
        <time>2016-01-23T16:16:22Z</time>
      </trkpt>
      <trkpt lat="44.50397" lon="0.97124">
        <ele>133.76</ele>
        <time>2016-01-23T16:16:26Z</time>
      </trkpt>
      <trkpt lat="44.50384" lon="0.97124">
        <ele>134.72</ele>
        <time>2016-01-23T16:16:29Z</time>
      </trkpt>
      <trkpt lat="44.50321" lon="0.9713">
        <ele>132.32</ele>
        <time>2016-01-23T16:16:41Z</time>
      </trkpt>
      <trkpt lat="44.50293" lon="0.97131">
        <ele>132.32</ele>
        <time>2016-01-23T16:16:47Z</time>
      </trkpt>
      <trkpt lat="44.50271" lon="0.97132">
        <ele>133.76</ele>
        <time>2016-01-23T16:16:54Z</time>
      </trkpt>
      <trkpt lat="44.5027" lon="0.97131">
        <ele>134.24</ele>
        <time>2016-01-23T16:16:55Z</time>
      </trkpt>
      <trkpt lat="44.50269" lon="0.97129">
        <ele>134.24</ele>
        <time>2016-01-23T16:16:56Z</time>
      </trkpt>
      <trkpt lat="44.50269" lon="0.97127">
        <ele>134.24</ele>
        <time>2016-01-23T16:16:57Z</time>
      </trkpt>
      <trkpt lat="44.50268" lon="0.97125">
        <ele>134.24</ele>
        <time>2016-01-23T16:16:58Z</time>
      </trkpt>
      <trkpt lat="44.50269" lon="0.97119">
        <ele>134.72</ele>
        <time>2016-01-23T16:17:10Z</time>
      </trkpt>
      <trkpt lat="44.50268" lon="0.97121">
        <ele>135.2</ele>
        <time>2016-01-23T16:17:34Z</time>
      </trkpt>
      <trkpt lat="44.50267" lon="0.9712">
        <ele>135.2</ele>
        <time>2016-01-23T16:17:53Z</time>
      </trkpt>
      <trkpt lat="44.50266" lon="0.97119">
        <ele>135.68</ele>
        <time>2016-01-23T16:17:56Z</time>
      </trkpt>
      <trkpt lat="44.50265" lon="0.97119">
        <ele>135.68</ele>
        <time>2016-01-23T16:17:57Z</time>
      </trkpt>
      <trkpt lat="44.50264" lon="0.97119">
        <ele>135.68</ele>
        <time>2016-01-23T16:17:58Z</time>
      </trkpt>
      <trkpt lat="44.50262" lon="0.97119">
        <ele>135.68</ele>
        <time>2016-01-23T16:17:59Z</time>
      </trkpt>
      <trkpt lat="44.50259" lon="0.9712">
        <ele>135.68</ele>
        <time>2016-01-23T16:18:00Z</time>
      </trkpt>
      <trkpt lat="44.50257" lon="0.97119">
        <ele>135.68</ele>
        <time>2016-01-23T16:18:01Z</time>
      </trkpt>
      <trkpt lat="44.50222" lon="0.97112">
        <ele>135.68</ele>
        <time>2016-01-23T16:18:13Z</time>
      </trkpt>
      <trkpt lat="44.50182" lon="0.97101">
        <ele>139.53</ele>
        <time>2016-01-23T16:18:25Z</time>
      </trkpt>
      <trkpt lat="44.50149" lon="0.97093">
        <ele>145.78</ele>
        <time>2016-01-23T16:18:35Z</time>
      </trkpt>
      <trkpt lat="44.50106" lon="0.9708">
        <ele>150.1</ele>
        <time>2016-01-23T16:18:48Z</time>
      </trkpt>
      <trkpt lat="44.50063" lon="0.97076">
        <ele>147.22</ele>
        <time>2016-01-23T16:19:02Z</time>
      </trkpt>
      <trkpt lat="44.50062" lon="0.97076">
        <ele>146.26</ele>
        <time>2016-01-23T16:19:11Z</time>
      </trkpt>
      <trkpt lat="44.50059" lon="0.97078">
        <ele>145.78</ele>
        <time>2016-01-23T16:19:25Z</time>
      </trkpt>
      <trkpt lat="44.5006" lon="0.97078">
        <ele>145.78</ele>
        <time>2016-01-23T16:19:36Z</time>
      </trkpt>
      <trkpt lat="44.5006" lon="0.9708">
        <ele>145.78</ele>
        <time>2016-01-23T16:19:37Z</time>
      </trkpt>
      <trkpt lat="44.5006" lon="0.97082">
        <ele>145.78</ele>
        <time>2016-01-23T16:19:38Z</time>
      </trkpt>
      <trkpt lat="44.50062" lon="0.97122">
        <ele>145.78</ele>
        <time>2016-01-23T16:19:48Z</time>
      </trkpt>
      <trkpt lat="44.50062" lon="0.9718">
        <ele>149.14</ele>
        <time>2016-01-23T16:20:02Z</time>
      </trkpt>
      <trkpt lat="44.50064" lon="0.97196">
        <ele>149.62</ele>
        <time>2016-01-23T16:20:08Z</time>
      </trkpt>
      <trkpt lat="44.50064" lon="0.97198">
        <ele>149.62</ele>
        <time>2016-01-23T16:20:09Z</time>
      </trkpt>
      <trkpt lat="44.5006" lon="0.97224">
        <ele>153.95</ele>
        <time>2016-01-23T16:20:19Z</time>
      </trkpt>
      <trkpt lat="44.50045" lon="0.9724">
        <ele>152.99</ele>
        <time>2016-01-23T16:20:25Z</time>
      </trkpt>
      <trkpt lat="44.50028" lon="0.97258">
        <ele>150.1</ele>
        <time>2016-01-23T16:20:34Z</time>
      </trkpt>
      <trkpt lat="44.50026" lon="0.97261">
        <ele>150.58</ele>
        <time>2016-01-23T16:20:49Z</time>
      </trkpt>
      <trkpt lat="44.50026" lon="0.9726">
        <ele>149.14</ele>
        <time>2016-01-23T16:21:16Z</time>
      </trkpt>
      <trkpt lat="44.50028" lon="0.97259">
        <ele>150.58</ele>
        <time>2016-01-23T16:21:44Z</time>
      </trkpt>
      <trkpt lat="44.5003" lon="0.97261">
        <ele>150.1</ele>
        <time>2016-01-23T16:22:16Z</time>
      </trkpt>
      <trkpt lat="44.5003" lon="0.97262">
        <ele>150.58</ele>
        <time>2016-01-23T16:22:43Z</time>
      </trkpt>
      <trkpt lat="44.50029" lon="0.97263">
        <ele>150.58</ele>
        <time>2016-01-23T16:22:46Z</time>
      </trkpt>
      <trkpt lat="44.50027" lon="0.97265">
        <ele>151.54</ele>
        <time>2016-01-23T16:22:53Z</time>
      </trkpt>
      <trkpt lat="44.50026" lon="0.97265">
        <ele>151.06</ele>
        <time>2016-01-23T16:23:02Z</time>
      </trkpt>
      <trkpt lat="44.50018" lon="0.97271">
        <ele>148.66</ele>
        <time>2016-01-23T16:23:13Z</time>
      </trkpt>
      <trkpt lat="44.50017" lon="0.97271">
        <ele>148.18</ele>
        <time>2016-01-23T16:23:14Z</time>
      </trkpt>
      <trkpt lat="44.50011" lon="0.97269">
        <ele>146.26</ele>
        <time>2016-01-23T16:23:28Z</time>
      </trkpt>
      <trkpt lat="44.50011" lon="0.97269">
        <ele>146.26</ele>
        <time>2016-01-23T16:23:33Z</time>
      </trkpt>
      <trkpt lat="44.49999" lon="0.9727">
        <ele>144.34</ele>
        <time>2016-01-23T16:23:41Z</time>
      </trkpt>
      <trkpt lat="44.49969" lon="0.97275">
        <ele>145.3</ele>
        <time>2016-01-23T16:23:53Z</time>
      </trkpt>
      <trkpt lat="44.49966" lon="0.97275">
        <ele>145.3</ele>
        <time>2016-01-23T16:23:59Z</time>
      </trkpt>
      <trkpt lat="44.49943" lon="0.97275">
        <ele>139.05</ele>
        <time>2016-01-23T16:24:08Z</time>
      </trkpt>
      <trkpt lat="44.49924" lon="0.97261">
        <ele>128.95</ele>
        <time>2016-01-23T16:24:17Z</time>
      </trkpt>
      <trkpt lat="44.49908" lon="0.9724">
        <ele>122.71</ele>
        <time>2016-01-23T16:24:28Z</time>
      </trkpt>
      <trkpt lat="44.49897" lon="0.97209">
        <ele>115.5</ele>
        <time>2016-01-23T16:24:40Z</time>
      </trkpt>
      <trkpt lat="44.49873" lon="0.97212">
        <ele>110.21</ele>
        <time>2016-01-23T16:24:47Z</time>
      </trkpt>
      <trkpt lat="44.49868" lon="0.97212">
        <ele>109.73</ele>
        <time>2016-01-23T16:24:48Z</time>
      </trkpt>
      <trkpt lat="44.49844" lon="0.97209">
        <ele>107.32</ele>
        <time>2016-01-23T16:24:52Z</time>
      </trkpt>
      <trkpt lat="44.4982" lon="0.97198">
        <ele>103.96</ele>
        <time>2016-01-23T16:24:57Z</time>
      </trkpt>
      <trkpt lat="44.49818" lon="0.97195">
        <ele>103.48</ele>
        <time>2016-01-23T16:24:58Z</time>
      </trkpt>
      <trkpt lat="44.49816" lon="0.97191">
        <ele>103</ele>
        <time>2016-01-23T16:24:59Z</time>
      </trkpt>
      <trkpt lat="44.49816" lon="0.97188">
        <ele>102.52</ele>
        <time>2016-01-23T16:25:00Z</time>
      </trkpt>
      <trkpt lat="44.49816" lon="0.97185">
        <ele>102.52</ele>
        <time>2016-01-23T16:25:01Z</time>
      </trkpt>
      <trkpt lat="44.49817" lon="0.97182">
        <ele>102.04</ele>
        <time>2016-01-23T16:25:02Z</time>
      </trkpt>
      <trkpt lat="44.49819" lon="0.97178">
        <ele>101.56</ele>
        <time>2016-01-23T16:25:03Z</time>
      </trkpt>
      <trkpt lat="44.49819" lon="0.97175">
        <ele>101.56</ele>
        <time>2016-01-23T16:25:04Z</time>
      </trkpt>
      <trkpt lat="44.49819" lon="0.97171">
        <ele>101.56</ele>
        <time>2016-01-23T16:25:05Z</time>
      </trkpt>
      <trkpt lat="44.49819" lon="0.97168">
        <ele>101.08</ele>
        <time>2016-01-23T16:25:06Z</time>
      </trkpt>
      <trkpt lat="44.49818" lon="0.97166">
        <ele>101.08</ele>
        <time>2016-01-23T16:25:07Z</time>
      </trkpt>
      <trkpt lat="44.49818" lon="0.97164">
        <ele>102.52</ele>
        <time>2016-01-23T16:25:20Z</time>
      </trkpt>
      <trkpt lat="44.49817" lon="0.97161">
        <ele>102.52</ele>
        <time>2016-01-23T16:25:21Z</time>
      </trkpt>
      <trkpt lat="44.49817" lon="0.97157">
        <ele>103</ele>
        <time>2016-01-23T16:25:22Z</time>
      </trkpt>
      <trkpt lat="44.49818" lon="0.97153">
        <ele>103</ele>
        <time>2016-01-23T16:25:23Z</time>
      </trkpt>
      <trkpt lat="44.49817" lon="0.9715">
        <ele>103</ele>
        <time>2016-01-23T16:25:24Z</time>
      </trkpt>
      <trkpt lat="44.49816" lon="0.97146">
        <ele>102.52</ele>
        <time>2016-01-23T16:25:25Z</time>
      </trkpt>
      <trkpt lat="44.49812" lon="0.9714">
        <ele>102.04</ele>
        <time>2016-01-23T16:25:27Z</time>
      </trkpt>
      <trkpt lat="44.4981" lon="0.97137">
        <ele>102.04</ele>
        <time>2016-01-23T16:25:28Z</time>
      </trkpt>
      <trkpt lat="44.49808" lon="0.97134">
        <ele>101.56</ele>
        <time>2016-01-23T16:25:29Z</time>
      </trkpt>
      <trkpt lat="44.49803" lon="0.9714">
        <ele>100.11</ele>
        <time>2016-01-23T16:25:32Z</time>
      </trkpt>
      <trkpt lat="44.49802" lon="0.97146">
        <ele>99.15</ele>
        <time>2016-01-23T16:25:33Z</time>
      </trkpt>
      <trkpt lat="44.498" lon="0.97153">
        <ele>98.67</ele>
        <time>2016-01-23T16:25:34Z</time>
      </trkpt>
      <trkpt lat="44.49797" lon="0.9716">
        <ele>97.71</ele>
        <time>2016-01-23T16:25:35Z</time>
      </trkpt>
      <trkpt lat="44.49794" lon="0.97167">
        <ele>97.23</ele>
        <time>2016-01-23T16:25:36Z</time>
      </trkpt>
      <trkpt lat="44.4979" lon="0.97172">
        <ele>96.75</ele>
        <time>2016-01-23T16:25:37Z</time>
      </trkpt>
      <trkpt lat="44.49786" lon="0.97176">
        <ele>96.27</ele>
        <time>2016-01-23T16:25:38Z</time>
      </trkpt>
      <trkpt lat="44.49781" lon="0.9718">
        <ele>95.79</ele>
        <time>2016-01-23T16:25:39Z</time>
      </trkpt>
      <trkpt lat="44.49777" lon="0.97183">
        <ele>94.83</ele>
        <time>2016-01-23T16:25:40Z</time>
      </trkpt>
      <trkpt lat="44.49761" lon="0.97192">
        <ele>93.39</ele>
        <time>2016-01-23T16:25:43Z</time>
      </trkpt>
      <trkpt lat="44.49731" lon="0.97217">
        <ele>89.54</ele>
        <time>2016-01-23T16:25:49Z</time>
      </trkpt>
      <trkpt lat="44.49726" lon="0.97222">
        <ele>89.06</ele>
        <time>2016-01-23T16:25:50Z</time>
      </trkpt>
      <trkpt lat="44.49722" lon="0.97224">
        <ele>88.1</ele>
        <time>2016-01-23T16:25:51Z</time>
      </trkpt>
      <trkpt lat="44.49723" lon="0.97213">
        <ele>86.18</ele>
        <time>2016-01-23T16:25:55Z</time>
      </trkpt>
      <trkpt lat="44.49734" lon="0.972">
        <ele>85.21</ele>
        <time>2016-01-23T16:25:59Z</time>
      </trkpt>
      <trkpt lat="44.49744" lon="0.97182">
        <ele>84.25</ele>
        <time>2016-01-23T16:26:04Z</time>
      </trkpt>
      <trkpt lat="44.49739" lon="0.97166">
        <ele>82.81</ele>
        <time>2016-01-23T16:26:08Z</time>
      </trkpt>
      <trkpt lat="44.49723" lon="0.97163">
        <ele>83.77</ele>
        <time>2016-01-23T16:26:14Z</time>
      </trkpt>
      <trkpt lat="44.49709" lon="0.97169">
        <ele>84.73</ele>
        <time>2016-01-23T16:26:24Z</time>
      </trkpt>
      <trkpt lat="44.49705" lon="0.97173">
        <ele>84.73</ele>
        <time>2016-01-23T16:26:36Z</time>
      </trkpt>
      <trkpt lat="44.49705" lon="0.97176">
        <ele>84.25</ele>
        <time>2016-01-23T16:26:45Z</time>
      </trkpt>
      <trkpt lat="44.49703" lon="0.97181">
        <ele>84.73</ele>
        <time>2016-01-23T16:26:58Z</time>
      </trkpt>
      <trkpt lat="44.49702" lon="0.97181">
        <ele>85.21</ele>
        <time>2016-01-23T16:27:07Z</time>
      </trkpt>
      <trkpt lat="44.49701" lon="0.97182">
        <ele>85.21</ele>
        <time>2016-01-23T16:27:09Z</time>
      </trkpt>
      <trkpt lat="44.49694" lon="0.97188">
        <ele>82.33</ele>
        <time>2016-01-23T16:27:22Z</time>
      </trkpt>
      <trkpt lat="44.49695" lon="0.97195">
        <ele>80.89</ele>
        <time>2016-01-23T16:27:36Z</time>
      </trkpt>
      <trkpt lat="44.49693" lon="0.97202">
        <ele>79.45</ele>
        <time>2016-01-23T16:27:47Z</time>
      </trkpt>
      <trkpt lat="44.49695" lon="0.97225">
        <ele>75.12</ele>
        <time>2016-01-23T16:27:58Z</time>
      </trkpt>
      <trkpt lat="44.49695" lon="0.97225">
        <ele>74.64</ele>
        <time>2016-01-23T16:27:59Z</time>
      </trkpt>
      <trkpt lat="44.49692" lon="0.97222">
        <ele>73.2</ele>
        <time>2016-01-23T16:28:02Z</time>
      </trkpt>
      <trkpt lat="44.49685" lon="0.97214">
        <ele>70.31</ele>
        <time>2016-01-23T16:28:11Z</time>
      </trkpt>
      <trkpt lat="44.49685" lon="0.97215">
        <ele>69.83</ele>
        <time>2016-01-23T16:28:37Z</time>
      </trkpt>
      <trkpt lat="44.49684" lon="0.97215">
        <ele>70.31</ele>
        <time>2016-01-23T16:28:55Z</time>
      </trkpt>
      <trkpt lat="44.49684" lon="0.97214">
        <ele>70.31</ele>
        <time>2016-01-23T16:29:21Z</time>
      </trkpt>
      <trkpt lat="44.49685" lon="0.97213">
        <ele>70.31</ele>
        <time>2016-01-23T16:29:41Z</time>
      </trkpt>
      <trkpt lat="44.49685" lon="0.97213">
        <ele>70.31</ele>
        <time>2016-01-23T16:30:03Z</time>
      </trkpt>
      <trkpt lat="44.49685" lon="0.97213">
        <ele>69.83</ele>
        <time>2016-01-23T16:30:26Z</time>
      </trkpt>
      <trkpt lat="44.49684" lon="0.97211">
        <ele>70.31</ele>
        <time>2016-01-23T16:30:46Z</time>
      </trkpt>
      <trkpt lat="44.4968" lon="0.97198">
        <ele>69.35</ele>
        <time>2016-01-23T16:30:52Z</time>
      </trkpt>
      <trkpt lat="44.49666" lon="0.97151">
        <ele>66.47</ele>
        <time>2016-01-23T16:31:03Z</time>
      </trkpt>
      <trkpt lat="44.49652" lon="0.97106">
        <ele>65.03</ele>
        <time>2016-01-23T16:31:12Z</time>
      </trkpt>
      <trkpt lat="44.49631" lon="0.97048">
        <ele>63.58</ele>
        <time>2016-01-23T16:31:23Z</time>
      </trkpt>
      <trkpt lat="44.49602" lon="0.96971">
        <ele>64.07</ele>
        <time>2016-01-23T16:31:37Z</time>
      </trkpt>
      <trkpt lat="44.49588" lon="0.96938">
        <ele>65.03</ele>
        <time>2016-01-23T16:31:43Z</time>
      </trkpt>
      <trkpt lat="44.49583" lon="0.96927">
        <ele>65.03</ele>
        <time>2016-01-23T16:31:45Z</time>
      </trkpt>
      <trkpt lat="44.49577" lon="0.96911">
        <ele>65.03</ele>
        <time>2016-01-23T16:31:48Z</time>
      </trkpt>
      <trkpt lat="44.49568" lon="0.9689">
        <ele>64.55</ele>
        <time>2016-01-23T16:31:52Z</time>
      </trkpt>
      <trkpt lat="44.4956" lon="0.96868">
        <ele>65.03</ele>
        <time>2016-01-23T16:31:56Z</time>
      </trkpt>
      <trkpt lat="44.49554" lon="0.96853">
        <ele>65.51</ele>
        <time>2016-01-23T16:31:59Z</time>
      </trkpt>
      <trkpt lat="44.49544" lon="0.96827">
        <ele>65.51</ele>
        <time>2016-01-23T16:32:04Z</time>
      </trkpt>
      <trkpt lat="44.49539" lon="0.96809">
        <ele>65.51</ele>
        <time>2016-01-23T16:32:07Z</time>
      </trkpt>
      <trkpt lat="44.49537" lon="0.96801">
        <ele>65.51</ele>
        <time>2016-01-23T16:32:08Z</time>
      </trkpt>
      <trkpt lat="44.49534" lon="0.96795">
        <ele>65.51</ele>
        <time>2016-01-23T16:32:09Z</time>
      </trkpt>
      <trkpt lat="44.49532" lon="0.96788">
        <ele>65.51</ele>
        <time>2016-01-23T16:32:10Z</time>
      </trkpt>
      <trkpt lat="44.4953" lon="0.96782">
        <ele>65.51</ele>
        <time>2016-01-23T16:32:11Z</time>
      </trkpt>
      <trkpt lat="44.49522" lon="0.96764">
        <ele>65.99</ele>
        <time>2016-01-23T16:32:14Z</time>
      </trkpt>
      <trkpt lat="44.4952" lon="0.96758">
        <ele>65.99</ele>
        <time>2016-01-23T16:32:15Z</time>
      </trkpt>
      <trkpt lat="44.49517" lon="0.96752">
        <ele>65.99</ele>
        <time>2016-01-23T16:32:16Z</time>
      </trkpt>
      <trkpt lat="44.49496" lon="0.967">
        <ele>66.47</ele>
        <time>2016-01-23T16:32:25Z</time>
      </trkpt>
      <trkpt lat="44.49493" lon="0.96695">
        <ele>66.47</ele>
        <time>2016-01-23T16:32:26Z</time>
      </trkpt>
      <trkpt lat="44.49482" lon="0.96667">
        <ele>66.95</ele>
        <time>2016-01-23T16:32:31Z</time>
      </trkpt>
      <trkpt lat="44.49433" lon="0.96552">
        <ele>67.91</ele>
        <time>2016-01-23T16:32:51Z</time>
      </trkpt>
      <trkpt lat="44.49428" lon="0.96542">
        <ele>67.91</ele>
        <time>2016-01-23T16:32:53Z</time>
      </trkpt>
      <trkpt lat="44.49426" lon="0.96537">
        <ele>67.91</ele>
        <time>2016-01-23T16:32:54Z</time>
      </trkpt>
      <trkpt lat="44.49403" lon="0.96486">
        <ele>67.91</ele>
        <time>2016-01-23T16:33:06Z</time>
      </trkpt>
      <trkpt lat="44.494" lon="0.96479">
        <ele>68.87</ele>
        <time>2016-01-23T16:33:16Z</time>
      </trkpt>
      <trkpt lat="44.49398" lon="0.96478">
        <ele>69.83</ele>
        <time>2016-01-23T16:33:33Z</time>
      </trkpt>
      <trkpt lat="44.49396" lon="0.96473">
        <ele>70.31</ele>
        <time>2016-01-23T16:33:44Z</time>
      </trkpt>
      <trkpt lat="44.49395" lon="0.96466">
        <ele>69.83</ele>
        <time>2016-01-23T16:33:47Z</time>
      </trkpt>
      <trkpt lat="44.49393" lon="0.96464">
        <ele>69.83</ele>
        <time>2016-01-23T16:33:48Z</time>
      </trkpt>
      <trkpt lat="44.49392" lon="0.96462">
        <ele>69.35</ele>
        <time>2016-01-23T16:33:49Z</time>
      </trkpt>
      <trkpt lat="44.49391" lon="0.96459">
        <ele>69.35</ele>
        <time>2016-01-23T16:33:50Z</time>
      </trkpt>
      <trkpt lat="44.4939" lon="0.96456">
        <ele>69.35</ele>
        <time>2016-01-23T16:33:51Z</time>
      </trkpt>
      <trkpt lat="44.49389" lon="0.96453">
        <ele>69.35</ele>
        <time>2016-01-23T16:33:52Z</time>
      </trkpt>
      <trkpt lat="44.49388" lon="0.96449">
        <ele>69.35</ele>
        <time>2016-01-23T16:33:53Z</time>
      </trkpt>
      <trkpt lat="44.49365" lon="0.96395">
        <ele>68.87</ele>
        <time>2016-01-23T16:34:06Z</time>
      </trkpt>
      <trkpt lat="44.49337" lon="0.96332">
        <ele>68.39</ele>
        <time>2016-01-23T16:34:20Z</time>
      </trkpt>
      <trkpt lat="44.49334" lon="0.96327">
        <ele>68.39</ele>
        <time>2016-01-23T16:34:21Z</time>
      </trkpt>
      <trkpt lat="44.49333" lon="0.96322">
        <ele>68.39</ele>
        <time>2016-01-23T16:34:22Z</time>
      </trkpt>
      <trkpt lat="44.49331" lon="0.96317">
        <ele>68.39</ele>
        <time>2016-01-23T16:34:23Z</time>
      </trkpt>
      <trkpt lat="44.49329" lon="0.96312">
        <ele>67.91</ele>
        <time>2016-01-23T16:34:24Z</time>
      </trkpt>
      <trkpt lat="44.49287" lon="0.96208">
        <ele>69.35</ele>
        <time>2016-01-23T16:34:43Z</time>
      </trkpt>
      <trkpt lat="44.49268" lon="0.96162">
        <ele>69.35</ele>
        <time>2016-01-23T16:34:51Z</time>
      </trkpt>
      <trkpt lat="44.49227" lon="0.96067">
        <ele>68.87</ele>
        <time>2016-01-23T16:35:08Z</time>
      </trkpt>
      <trkpt lat="44.49192" lon="0.95987">
        <ele>68.87</ele>
        <time>2016-01-23T16:35:22Z</time>
      </trkpt>
      <trkpt lat="44.49155" lon="0.959">
        <ele>67.91</ele>
        <time>2016-01-23T16:35:38Z</time>
      </trkpt>
      <trkpt lat="44.49114" lon="0.958">
        <ele>66.95</ele>
        <time>2016-01-23T16:35:56Z</time>
      </trkpt>
      <trkpt lat="44.49081" lon="0.95724">
        <ele>66.47</ele>
        <time>2016-01-23T16:36:10Z</time>
      </trkpt>
      <trkpt lat="44.49045" lon="0.95637">
        <ele>66.47</ele>
        <time>2016-01-23T16:36:26Z</time>
      </trkpt>
      <trkpt lat="44.49011" lon="0.9555">
        <ele>66.47</ele>
        <time>2016-01-23T16:36:41Z</time>
      </trkpt>
      <trkpt lat="44.48985" lon="0.9544">
        <ele>66.95</ele>
        <time>2016-01-23T16:36:59Z</time>
      </trkpt>
      <trkpt lat="44.48973" lon="0.95342">
        <ele>67.43</ele>
        <time>2016-01-23T16:37:15Z</time>
      </trkpt>
      <trkpt lat="44.48968" lon="0.95286">
        <ele>67.91</ele>
        <time>2016-01-23T16:37:24Z</time>
      </trkpt>
      <trkpt lat="44.48957" lon="0.95167">
        <ele>68.39</ele>
        <time>2016-01-23T16:37:43Z</time>
      </trkpt>
      <trkpt lat="44.48955" lon="0.95143">
        <ele>68.39</ele>
        <time>2016-01-23T16:37:47Z</time>
      </trkpt>
      <trkpt lat="44.48953" lon="0.95125">
        <ele>68.87</ele>
        <time>2016-01-23T16:37:50Z</time>
      </trkpt>
      <trkpt lat="44.48949" lon="0.95075">
        <ele>68.87</ele>
        <time>2016-01-23T16:38:00Z</time>
      </trkpt>
      <trkpt lat="44.48941" lon="0.94988">
        <ele>70.31</ele>
        <time>2016-01-23T16:38:15Z</time>
      </trkpt>
      <trkpt lat="44.48939" lon="0.94976">
        <ele>70.31</ele>
        <time>2016-01-23T16:38:17Z</time>
      </trkpt>
      <trkpt lat="44.48931" lon="0.94884">
        <ele>69.83</ele>
        <time>2016-01-23T16:38:32Z</time>
      </trkpt>
      <trkpt lat="44.48922" lon="0.94785">
        <ele>69.35</ele>
        <time>2016-01-23T16:38:48Z</time>
      </trkpt>
      <trkpt lat="44.48913" lon="0.94682">
        <ele>69.83</ele>
        <time>2016-01-23T16:39:05Z</time>
      </trkpt>
      <trkpt lat="44.48913" lon="0.94676">
        <ele>69.83</ele>
        <time>2016-01-23T16:39:06Z</time>
      </trkpt>
      <trkpt lat="44.48906" lon="0.94602">
        <ele>71.27</ele>
        <time>2016-01-23T16:39:20Z</time>
      </trkpt>
      <trkpt lat="44.48905" lon="0.94591">
        <ele>70.79</ele>
        <time>2016-01-23T16:39:24Z</time>
      </trkpt>
      <trkpt lat="44.48895" lon="0.94561">
        <ele>67.91</ele>
        <time>2016-01-23T16:39:32Z</time>
      </trkpt>
      <trkpt lat="44.48891" lon="0.94556">
        <ele>66.95</ele>
        <time>2016-01-23T16:39:34Z</time>
      </trkpt>
      <trkpt lat="44.48888" lon="0.94556">
        <ele>66.47</ele>
        <time>2016-01-23T16:39:35Z</time>
      </trkpt>
      <trkpt lat="44.48886" lon="0.94556">
        <ele>66.47</ele>
        <time>2016-01-23T16:39:36Z</time>
      </trkpt>
      <trkpt lat="44.48885" lon="0.94556">
        <ele>66.47</ele>
        <time>2016-01-23T16:39:37Z</time>
      </trkpt>
      <trkpt lat="44.48884" lon="0.94555">
        <ele>66.47</ele>
        <time>2016-01-23T16:39:38Z</time>
      </trkpt>
      <trkpt lat="44.48882" lon="0.94555">
        <ele>66.95</ele>
        <time>2016-01-23T16:39:39Z</time>
      </trkpt>
      <trkpt lat="44.48879" lon="0.94556">
        <ele>66.95</ele>
        <time>2016-01-23T16:39:40Z</time>
      </trkpt>
      <trkpt lat="44.48863" lon="0.94568">
        <ele>66.95</ele>
        <time>2016-01-23T16:39:45Z</time>
      </trkpt>
      <trkpt lat="44.48845" lon="0.94581">
        <ele>66.47</ele>
        <time>2016-01-23T16:39:49Z</time>
      </trkpt>
      <trkpt lat="44.4884" lon="0.94585">
        <ele>66.47</ele>
        <time>2016-01-23T16:39:50Z</time>
      </trkpt>
      <trkpt lat="44.48829" lon="0.94591">
        <ele>65.51</ele>
        <time>2016-01-23T16:39:52Z</time>
      </trkpt>
      <trkpt lat="44.48824" lon="0.94592">
        <ele>65.51</ele>
        <time>2016-01-23T16:39:53Z</time>
      </trkpt>
      <trkpt lat="44.48813" lon="0.94593">
        <ele>65.51</ele>
        <time>2016-01-23T16:39:55Z</time>
      </trkpt>
      <trkpt lat="44.48798" lon="0.94589">
        <ele>65.51</ele>
        <time>2016-01-23T16:39:58Z</time>
      </trkpt>
      <trkpt lat="44.4877" lon="0.94567">
        <ele>65.03</ele>
        <time>2016-01-23T16:40:04Z</time>
      </trkpt>
      <trkpt lat="44.48763" lon="0.94557">
        <ele>65.51</ele>
        <time>2016-01-23T16:40:06Z</time>
      </trkpt>
      <trkpt lat="44.48741" lon="0.94525">
        <ele>65.51</ele>
        <time>2016-01-23T16:40:13Z</time>
      </trkpt>
      <trkpt lat="44.48737" lon="0.94524">
        <ele>65.51</ele>
        <time>2016-01-23T16:40:14Z</time>
      </trkpt>
      <trkpt lat="44.48733" lon="0.94523">
        <ele>65.51</ele>
        <time>2016-01-23T16:40:15Z</time>
      </trkpt>
      <trkpt lat="44.48725" lon="0.94526">
        <ele>65.99</ele>
        <time>2016-01-23T16:40:19Z</time>
      </trkpt>
      <trkpt lat="44.48724" lon="0.94532">
        <ele>66.95</ele>
        <time>2016-01-23T16:40:21Z</time>
      </trkpt>
      <trkpt lat="44.4871" lon="0.94532">
        <ele>66.95</ele>
        <time>2016-01-23T16:40:27Z</time>
      </trkpt>
      <trkpt lat="44.48707" lon="0.94532">
        <ele>66.95</ele>
        <time>2016-01-23T16:40:28Z</time>
      </trkpt>
      <trkpt lat="44.48704" lon="0.94532">
        <ele>66.95</ele>
        <time>2016-01-23T16:40:29Z</time>
      </trkpt>
      <trkpt lat="44.487" lon="0.94533">
        <ele>66.95</ele>
        <time>2016-01-23T16:40:30Z</time>
      </trkpt>
      <trkpt lat="44.48697" lon="0.94535">
        <ele>66.95</ele>
        <time>2016-01-23T16:40:31Z</time>
      </trkpt>
      <trkpt lat="44.48694" lon="0.94537">
        <ele>66.47</ele>
        <time>2016-01-23T16:40:32Z</time>
      </trkpt>
      <trkpt lat="44.4869" lon="0.94539">
        <ele>66.47</ele>
        <time>2016-01-23T16:40:33Z</time>
      </trkpt>
      <trkpt lat="44.48687" lon="0.9454">
        <ele>65.99</ele>
        <time>2016-01-23T16:40:34Z</time>
      </trkpt>
      <trkpt lat="44.48683" lon="0.9454">
        <ele>65.99</ele>
        <time>2016-01-23T16:40:35Z</time>
      </trkpt>
      <trkpt lat="44.4868" lon="0.94538">
        <ele>65.51</ele>
        <time>2016-01-23T16:40:36Z</time>
      </trkpt>
      <trkpt lat="44.48676" lon="0.94535">
        <ele>65.51</ele>
        <time>2016-01-23T16:40:37Z</time>
      </trkpt>
      <trkpt lat="44.48672" lon="0.94532">
        <ele>65.51</ele>
        <time>2016-01-23T16:40:38Z</time>
      </trkpt>
      <trkpt lat="44.48669" lon="0.94529">
        <ele>65.51</ele>
        <time>2016-01-23T16:40:39Z</time>
      </trkpt>
      <trkpt lat="44.48665" lon="0.94526">
        <ele>65.51</ele>
        <time>2016-01-23T16:40:40Z</time>
      </trkpt>
      <trkpt lat="44.48662" lon="0.94523">
        <ele>65.51</ele>
        <time>2016-01-23T16:40:41Z</time>
      </trkpt>
      <trkpt lat="44.48658" lon="0.9452">
        <ele>65.51</ele>
        <time>2016-01-23T16:40:42Z</time>
      </trkpt>
      <trkpt lat="44.48649" lon="0.94511">
        <ele>65.51</ele>
        <time>2016-01-23T16:40:45Z</time>
      </trkpt>
      <trkpt lat="44.48639" lon="0.94499">
        <ele>65.03</ele>
        <time>2016-01-23T16:40:48Z</time>
      </trkpt>
      <trkpt lat="44.48629" lon="0.94486">
        <ele>64.55</ele>
        <time>2016-01-23T16:40:51Z</time>
      </trkpt>
      <trkpt lat="44.48625" lon="0.94483">
        <ele>64.55</ele>
        <time>2016-01-23T16:40:52Z</time>
      </trkpt>
      <trkpt lat="44.48621" lon="0.94481">
        <ele>64.55</ele>
        <time>2016-01-23T16:40:53Z</time>
      </trkpt>
      <trkpt lat="44.48617" lon="0.94481">
        <ele>64.55</ele>
        <time>2016-01-23T16:40:54Z</time>
      </trkpt>
      <trkpt lat="44.48612" lon="0.94481">
        <ele>65.03</ele>
        <time>2016-01-23T16:40:55Z</time>
      </trkpt>
      <trkpt lat="44.48607" lon="0.94481">
        <ele>65.03</ele>
        <time>2016-01-23T16:40:56Z</time>
      </trkpt>
      <trkpt lat="44.48603" lon="0.94481">
        <ele>65.03</ele>
        <time>2016-01-23T16:40:57Z</time>
      </trkpt>
      <trkpt lat="44.48598" lon="0.94481">
        <ele>65.51</ele>
        <time>2016-01-23T16:40:58Z</time>
      </trkpt>
      <trkpt lat="44.48593" lon="0.94481">
        <ele>65.03</ele>
        <time>2016-01-23T16:40:59Z</time>
      </trkpt>
      <trkpt lat="44.48552" lon="0.94451">
        <ele>65.03</ele>
        <time>2016-01-23T16:41:11Z</time>
      </trkpt>
      <trkpt lat="44.48531" lon="0.94418">
        <ele>65.03</ele>
        <time>2016-01-23T16:41:21Z</time>
      </trkpt>
      <trkpt lat="44.48528" lon="0.94417">
        <ele>65.03</ele>
        <time>2016-01-23T16:41:22Z</time>
      </trkpt>
      <trkpt lat="44.48524" lon="0.94418">
        <ele>65.51</ele>
        <time>2016-01-23T16:41:23Z</time>
      </trkpt>
      <trkpt lat="44.4852" lon="0.94419">
        <ele>65.03</ele>
        <time>2016-01-23T16:41:24Z</time>
      </trkpt>
      <trkpt lat="44.48469" lon="0.94438">
        <ele>64.07</ele>
        <time>2016-01-23T16:41:35Z</time>
      </trkpt>
      <trkpt lat="44.48445" lon="0.94441">
        <ele>64.55</ele>
        <time>2016-01-23T16:41:41Z</time>
      </trkpt>
      <trkpt lat="44.48443" lon="0.94443">
        <ele>65.03</ele>
        <time>2016-01-23T16:41:42Z</time>
      </trkpt>
      <trkpt lat="44.48442" lon="0.94446">
        <ele>65.03</ele>
        <time>2016-01-23T16:41:43Z</time>
      </trkpt>
      <trkpt lat="44.48441" lon="0.94448">
        <ele>65.03</ele>
        <time>2016-01-23T16:41:44Z</time>
      </trkpt>
      <trkpt lat="44.4844" lon="0.94448">
        <ele>65.51</ele>
        <time>2016-01-23T16:41:55Z</time>
      </trkpt>
      <trkpt lat="44.4844" lon="0.9445">
        <ele>66.47</ele>
        <time>2016-01-23T16:42:14Z</time>
      </trkpt>
      <trkpt lat="44.48439" lon="0.94455">
        <ele>67.43</ele>
        <time>2016-01-23T16:42:26Z</time>
      </trkpt>
      <trkpt lat="44.48439" lon="0.94457">
        <ele>67.43</ele>
        <time>2016-01-23T16:42:29Z</time>
      </trkpt>
      <trkpt lat="44.48439" lon="0.94459">
        <ele>67.91</ele>
        <time>2016-01-23T16:42:30Z</time>
      </trkpt>
      <trkpt lat="44.48435" lon="0.94474">
        <ele>67.43</ele>
        <time>2016-01-23T16:42:35Z</time>
      </trkpt>
      <trkpt lat="44.48427" lon="0.94476">
        <ele>67.43</ele>
        <time>2016-01-23T16:42:38Z</time>
      </trkpt>
      <trkpt lat="44.48423" lon="0.94476">
        <ele>67.43</ele>
        <time>2016-01-23T16:42:39Z</time>
      </trkpt>
      <trkpt lat="44.48405" lon="0.94474">
        <ele>67.43</ele>
        <time>2016-01-23T16:42:45Z</time>
      </trkpt>
      <trkpt lat="44.48402" lon="0.94472">
        <ele>67.43</ele>
        <time>2016-01-23T16:42:46Z</time>
      </trkpt>
      <trkpt lat="44.48401" lon="0.94469">
        <ele>67.43</ele>
        <time>2016-01-23T16:42:47Z</time>
      </trkpt>
      <trkpt lat="44.484" lon="0.94465">
        <ele>67.43</ele>
        <time>2016-01-23T16:42:48Z</time>
      </trkpt>
      <trkpt lat="44.484" lon="0.94462">
        <ele>67.43</ele>
        <time>2016-01-23T16:42:49Z</time>
      </trkpt>
      <trkpt lat="44.484" lon="0.94458">
        <ele>66.95</ele>
        <time>2016-01-23T16:42:50Z</time>
      </trkpt>
      <trkpt lat="44.484" lon="0.94455">
        <ele>66.95</ele>
        <time>2016-01-23T16:42:51Z</time>
      </trkpt>
      <trkpt lat="44.484" lon="0.94452">
        <ele>66.95</ele>
        <time>2016-01-23T16:42:52Z</time>
      </trkpt>
      <trkpt lat="44.48394" lon="0.94409">
        <ele>66.95</ele>
        <time>2016-01-23T16:43:04Z</time>
      </trkpt>
      <trkpt lat="44.4839" lon="0.94394">
        <ele>66.95</ele>
        <time>2016-01-23T16:43:14Z</time>
      </trkpt>
      <trkpt lat="44.48389" lon="0.94394">
        <ele>65.99</ele>
        <time>2016-01-23T16:43:29Z</time>
      </trkpt>
      <trkpt lat="44.4839" lon="0.94394">
        <ele>65.99</ele>
        <time>2016-01-23T16:43:41Z</time>
      </trkpt>
      <trkpt lat="44.48388" lon="0.94392">
        <ele>65.99</ele>
        <time>2016-01-23T16:43:42Z</time>
      </trkpt>
      <trkpt lat="44.48386" lon="0.94391">
        <ele>65.99</ele>
        <time>2016-01-23T16:43:43Z</time>
      </trkpt>
      <trkpt lat="44.48353" lon="0.94397">
        <ele>65.99</ele>
        <time>2016-01-23T16:43:54Z</time>
      </trkpt>
      <trkpt lat="44.48349" lon="0.94398">
        <ele>65.99</ele>
        <time>2016-01-23T16:43:55Z</time>
      </trkpt>
      <trkpt lat="44.483" lon="0.9441">
        <ele>67.91</ele>
        <time>2016-01-23T16:44:08Z</time>
      </trkpt>
      <trkpt lat="44.48247" lon="0.94424">
        <ele>67.43</ele>
        <time>2016-01-23T16:44:23Z</time>
      </trkpt>
      <trkpt lat="44.48241" lon="0.94427">
        <ele>67.43</ele>
        <time>2016-01-23T16:44:25Z</time>
      </trkpt>
      <trkpt lat="44.4824" lon="0.94431">
        <ele>67.43</ele>
        <time>2016-01-23T16:44:26Z</time>
      </trkpt>
      <trkpt lat="44.4824" lon="0.94436">
        <ele>67.43</ele>
        <time>2016-01-23T16:44:27Z</time>
      </trkpt>
      <trkpt lat="44.48242" lon="0.94473">
        <ele>66.47</ele>
        <time>2016-01-23T16:44:34Z</time>
      </trkpt>
      <trkpt lat="44.48239" lon="0.94477">
        <ele>65.99</ele>
        <time>2016-01-23T16:44:35Z</time>
      </trkpt>
      <trkpt lat="44.48236" lon="0.9448">
        <ele>65.99</ele>
        <time>2016-01-23T16:44:36Z</time>
      </trkpt>
      <trkpt lat="44.48232" lon="0.94482">
        <ele>65.99</ele>
        <time>2016-01-23T16:44:37Z</time>
      </trkpt>
      <trkpt lat="44.48228" lon="0.94484">
        <ele>66.47</ele>
        <time>2016-01-23T16:44:38Z</time>
      </trkpt>
      <trkpt lat="44.48196" lon="0.94498">
        <ele>66.95</ele>
        <time>2016-01-23T16:44:45Z</time>
      </trkpt>
      <trkpt lat="44.48191" lon="0.945">
        <ele>66.47</ele>
        <time>2016-01-23T16:44:46Z</time>
      </trkpt>
      <trkpt lat="44.48187" lon="0.94502">
        <ele>66.47</ele>
        <time>2016-01-23T16:44:47Z</time>
      </trkpt>
      <trkpt lat="44.48182" lon="0.94504">
        <ele>66.47</ele>
        <time>2016-01-23T16:44:48Z</time>
      </trkpt>
      <trkpt lat="44.48178" lon="0.94506">
        <ele>66.95</ele>
        <time>2016-01-23T16:44:49Z</time>
      </trkpt>
      <trkpt lat="44.48173" lon="0.94508">
        <ele>66.47</ele>
        <time>2016-01-23T16:44:50Z</time>
      </trkpt>
      <trkpt lat="44.48165" lon="0.94511">
        <ele>67.43</ele>
        <time>2016-01-23T16:44:52Z</time>
      </trkpt>
      <trkpt lat="44.48161" lon="0.94513">
        <ele>67.43</ele>
        <time>2016-01-23T16:44:53Z</time>
      </trkpt>
      <trkpt lat="44.48143" lon="0.94524">
        <ele>67.43</ele>
        <time>2016-01-23T16:45:03Z</time>
      </trkpt>
      <trkpt lat="44.48116" lon="0.94541">
        <ele>66.47</ele>
        <time>2016-01-23T16:45:11Z</time>
      </trkpt>
      <trkpt lat="44.48097" lon="0.94557">
        <ele>66.95</ele>
        <time>2016-01-23T16:45:21Z</time>
      </trkpt>
      <trkpt lat="44.48098" lon="0.94556">
        <ele>66.95</ele>
        <time>2016-01-23T16:45:33Z</time>
      </trkpt>
      <trkpt lat="44.48098" lon="0.94558">
        <ele>66.95</ele>
        <time>2016-01-23T16:45:34Z</time>
      </trkpt>
      <trkpt lat="44.48098" lon="0.94563">
        <ele>67.43</ele>
        <time>2016-01-23T16:45:35Z</time>
      </trkpt>
      <trkpt lat="44.48099" lon="0.94568">
        <ele>67.91</ele>
        <time>2016-01-23T16:45:36Z</time>
      </trkpt>
      <trkpt lat="44.48101" lon="0.94575">
        <ele>67.91</ele>
        <time>2016-01-23T16:45:37Z</time>
      </trkpt>
      <trkpt lat="44.48104" lon="0.94581">
        <ele>67.91</ele>
        <time>2016-01-23T16:45:38Z</time>
      </trkpt>
      <trkpt lat="44.48119" lon="0.94623">
        <ele>67.43</ele>
        <time>2016-01-23T16:45:45Z</time>
      </trkpt>
      <trkpt lat="44.48121" lon="0.94629">
        <ele>66.95</ele>
        <time>2016-01-23T16:45:46Z</time>
      </trkpt>
      <trkpt lat="44.48132" lon="0.94661">
        <ele>65.51</ele>
        <time>2016-01-23T16:45:52Z</time>
      </trkpt>
      <trkpt lat="44.48133" lon="0.94667">
        <ele>65.51</ele>
        <time>2016-01-23T16:45:53Z</time>
      </trkpt>
      <trkpt lat="44.48133" lon="0.94673">
        <ele>65.51</ele>
        <time>2016-01-23T16:45:54Z</time>
      </trkpt>
      <trkpt lat="44.4813" lon="0.94677">
        <ele>65.51</ele>
        <time>2016-01-23T16:45:55Z</time>
      </trkpt>
      <trkpt lat="44.48127" lon="0.9468">
        <ele>65.99</ele>
        <time>2016-01-23T16:45:56Z</time>
      </trkpt>
      <trkpt lat="44.48123" lon="0.94683">
        <ele>65.99</ele>
        <time>2016-01-23T16:45:57Z</time>
      </trkpt>
      <trkpt lat="44.48119" lon="0.94686">
        <ele>65.99</ele>
        <time>2016-01-23T16:45:58Z</time>
      </trkpt>
      <trkpt lat="44.48115" lon="0.94689">
        <ele>66.47</ele>
        <time>2016-01-23T16:45:59Z</time>
      </trkpt>
      <trkpt lat="44.4807" lon="0.94726">
        <ele>65.51</ele>
        <time>2016-01-23T16:46:10Z</time>
      </trkpt>
      <trkpt lat="44.48012" lon="0.94771">
        <ele>63.1</ele>
        <time>2016-01-23T16:46:25Z</time>
      </trkpt>
      <trkpt lat="44.4801" lon="0.94768">
        <ele>62.62</ele>
        <time>2016-01-23T16:46:26Z</time>
      </trkpt>
      <trkpt lat="44.48005" lon="0.94758">
        <ele>62.62</ele>
        <time>2016-01-23T16:46:28Z</time>
      </trkpt>
      <trkpt lat="44.47984" lon="0.94701">
        <ele>65.51</ele>
        <time>2016-01-23T16:46:40Z</time>
      </trkpt>
      <trkpt lat="44.47979" lon="0.94686">
        <ele>66.95</ele>
        <time>2016-01-23T16:46:43Z</time>
      </trkpt>
      <trkpt lat="44.47977" lon="0.9468">
        <ele>66.95</ele>
        <time>2016-01-23T16:46:44Z</time>
      </trkpt>
      <trkpt lat="44.47958" lon="0.94629">
        <ele>65.99</ele>
        <time>2016-01-23T16:46:53Z</time>
      </trkpt>
      <trkpt lat="44.47956" lon="0.94623">
        <ele>65.99</ele>
        <time>2016-01-23T16:46:54Z</time>
      </trkpt>
      <trkpt lat="44.47954" lon="0.94618">
        <ele>65.51</ele>
        <time>2016-01-23T16:46:55Z</time>
      </trkpt>
      <trkpt lat="44.47936" lon="0.94551">
        <ele>64.55</ele>
        <time>2016-01-23T16:47:07Z</time>
      </trkpt>
      <trkpt lat="44.47934" lon="0.94545">
        <ele>64.55</ele>
        <time>2016-01-23T16:47:08Z</time>
      </trkpt>
      <trkpt lat="44.47932" lon="0.94539">
        <ele>64.55</ele>
        <time>2016-01-23T16:47:09Z</time>
      </trkpt>
      <trkpt lat="44.47931" lon="0.94534">
        <ele>65.03</ele>
        <time>2016-01-23T16:47:10Z</time>
      </trkpt>
      <trkpt lat="44.47929" lon="0.94528">
        <ele>65.03</ele>
        <time>2016-01-23T16:47:11Z</time>
      </trkpt>
      <trkpt lat="44.47908" lon="0.94461">
        <ele>64.55</ele>
        <time>2016-01-23T16:47:25Z</time>
      </trkpt>
      <trkpt lat="44.47889" lon="0.94398">
        <ele>64.07</ele>
        <time>2016-01-23T16:47:38Z</time>
      </trkpt>
      <trkpt lat="44.47883" lon="0.94384">
        <ele>64.07</ele>
        <time>2016-01-23T16:47:41Z</time>
      </trkpt>
      <trkpt lat="44.47857" lon="0.94316">
        <ele>63.1</ele>
        <time>2016-01-23T16:47:55Z</time>
      </trkpt>
      <trkpt lat="44.47845" lon="0.94289">
        <ele>63.1</ele>
        <time>2016-01-23T16:48:01Z</time>
      </trkpt>
      <trkpt lat="44.4782" lon="0.94228">
        <ele>61.66</ele>
        <time>2016-01-23T16:48:14Z</time>
      </trkpt>
      <trkpt lat="44.47811" lon="0.94221">
        <ele>61.66</ele>
        <time>2016-01-23T16:48:17Z</time>
      </trkpt>
      <trkpt lat="44.47802" lon="0.94199">
        <ele>61.66</ele>
        <time>2016-01-23T16:48:23Z</time>
      </trkpt>
      <trkpt lat="44.47772" lon="0.94147">
        <ele>61.18</ele>
        <time>2016-01-23T16:48:34Z</time>
      </trkpt>
      <trkpt lat="44.47724" lon="0.94103">
        <ele>61.18</ele>
        <time>2016-01-23T16:48:48Z</time>
      </trkpt>
      <trkpt lat="44.47715" lon="0.94095">
        <ele>60.7</ele>
        <time>2016-01-23T16:48:51Z</time>
      </trkpt>
      <trkpt lat="44.47677" lon="0.94062">
        <ele>60.7</ele>
        <time>2016-01-23T16:49:04Z</time>
      </trkpt>
      <trkpt lat="44.47629" lon="0.94032">
        <ele>59.74</ele>
        <time>2016-01-23T16:49:21Z</time>
      </trkpt>
      <trkpt lat="44.47623" lon="0.94028">
        <ele>59.74</ele>
        <time>2016-01-23T16:49:24Z</time>
      </trkpt>
      <trkpt lat="44.47617" lon="0.94024">
        <ele>59.74</ele>
        <time>2016-01-23T16:49:28Z</time>
      </trkpt>
      <trkpt lat="44.47587" lon="0.93999">
        <ele>59.74</ele>
        <time>2016-01-23T16:49:41Z</time>
      </trkpt>
      <trkpt lat="44.47555" lon="0.93968">
        <ele>60.7</ele>
        <time>2016-01-23T16:49:52Z</time>
      </trkpt>
      <trkpt lat="44.47526" lon="0.93958">
        <ele>61.66</ele>
        <time>2016-01-23T16:50:02Z</time>
      </trkpt>
      <trkpt lat="44.47506" lon="0.93929">
        <ele>61.66</ele>
        <time>2016-01-23T16:50:11Z</time>
      </trkpt>
      <trkpt lat="44.47491" lon="0.93897">
        <ele>61.18</ele>
        <time>2016-01-23T16:50:19Z</time>
      </trkpt>
      <trkpt lat="44.47489" lon="0.93895">
        <ele>61.66</ele>
        <time>2016-01-23T16:50:20Z</time>
      </trkpt>
      <trkpt lat="44.47487" lon="0.93894">
        <ele>61.66</ele>
        <time>2016-01-23T16:50:21Z</time>
      </trkpt>
      <trkpt lat="44.47486" lon="0.93893">
        <ele>60.7</ele>
        <time>2016-01-23T16:50:33Z</time>
      </trkpt>
      <trkpt lat="44.47485" lon="0.93894">
        <ele>60.7</ele>
        <time>2016-01-23T16:50:34Z</time>
      </trkpt>
      <trkpt lat="44.47483" lon="0.93895">
        <ele>60.7</ele>
        <time>2016-01-23T16:50:35Z</time>
      </trkpt>
      <trkpt lat="44.47481" lon="0.93896">
        <ele>60.7</ele>
        <time>2016-01-23T16:50:36Z</time>
      </trkpt>
      <trkpt lat="44.47479" lon="0.93898">
        <ele>60.7</ele>
        <time>2016-01-23T16:50:37Z</time>
      </trkpt>
      <trkpt lat="44.47436" lon="0.93929">
        <ele>65.03</ele>
        <time>2016-01-23T16:50:51Z</time>
      </trkpt>
      <trkpt lat="44.47404" lon="0.93954">
        <ele>69.35</ele>
        <time>2016-01-23T16:51:02Z</time>
      </trkpt>
      <trkpt lat="44.47395" lon="0.93959">
        <ele>70.79</ele>
        <time>2016-01-23T16:51:07Z</time>
      </trkpt>
      <trkpt lat="44.47395" lon="0.93957">
        <ele>71.27</ele>
        <time>2016-01-23T16:51:08Z</time>
      </trkpt>
      <trkpt lat="44.47395" lon="0.93955">
        <ele>71.76</ele>
        <time>2016-01-23T16:51:09Z</time>
      </trkpt>
      <trkpt lat="44.47395" lon="0.93953">
        <ele>72.24</ele>
        <time>2016-01-23T16:51:10Z</time>
      </trkpt>
      <trkpt lat="44.47394" lon="0.93949">
        <ele>72.72</ele>
        <time>2016-01-23T16:51:11Z</time>
      </trkpt>
      <trkpt lat="44.47393" lon="0.93945">
        <ele>73.2</ele>
        <time>2016-01-23T16:51:12Z</time>
      </trkpt>
      <trkpt lat="44.4738" lon="0.93886">
        <ele>74.16</ele>
        <time>2016-01-23T16:51:25Z</time>
      </trkpt>
      <trkpt lat="44.47363" lon="0.9383">
        <ele>70.79</ele>
        <time>2016-01-23T16:51:37Z</time>
      </trkpt>
      <trkpt lat="44.47359" lon="0.93824">
        <ele>71.76</ele>
        <time>2016-01-23T16:51:40Z</time>
      </trkpt>
      <trkpt lat="44.47344" lon="0.93793">
        <ele>70.31</ele>
        <time>2016-01-23T16:51:50Z</time>
      </trkpt>
      <trkpt lat="44.47343" lon="0.93789">
        <ele>69.83</ele>
        <time>2016-01-23T16:51:51Z</time>
      </trkpt>
      <trkpt lat="44.47322" lon="0.93741">
        <ele>69.35</ele>
        <time>2016-01-23T16:52:03Z</time>
      </trkpt>
      <trkpt lat="44.47301" lon="0.93698">
        <ele>69.35</ele>
        <time>2016-01-23T16:52:14Z</time>
      </trkpt>
      <trkpt lat="44.47295" lon="0.93679">
        <ele>68.87</ele>
        <time>2016-01-23T16:52:18Z</time>
      </trkpt>
      <trkpt lat="44.47291" lon="0.93675">
        <ele>68.87</ele>
        <time>2016-01-23T16:52:19Z</time>
      </trkpt>
      <trkpt lat="44.47286" lon="0.93667">
        <ele>68.39</ele>
        <time>2016-01-23T16:52:21Z</time>
      </trkpt>
      <trkpt lat="44.47284" lon="0.93663">
        <ele>68.39</ele>
        <time>2016-01-23T16:52:22Z</time>
      </trkpt>
      <trkpt lat="44.47256" lon="0.93626">
        <ele>69.35</ele>
        <time>2016-01-23T16:52:32Z</time>
      </trkpt>
      <trkpt lat="44.47235" lon="0.93579">
        <ele>69.35</ele>
        <time>2016-01-23T16:52:42Z</time>
      </trkpt>
      <trkpt lat="44.47231" lon="0.93571">
        <ele>69.35</ele>
        <time>2016-01-23T16:52:44Z</time>
      </trkpt>
      <trkpt lat="44.47229" lon="0.93563">
        <ele>69.35</ele>
        <time>2016-01-23T16:52:46Z</time>
      </trkpt>
      <trkpt lat="44.47224" lon="0.93514">
        <ele>68.39</ele>
        <time>2016-01-23T16:52:56Z</time>
      </trkpt>
      <trkpt lat="44.47214" lon="0.93451">
        <ele>68.87</ele>
        <time>2016-01-23T16:53:10Z</time>
      </trkpt>
      <trkpt lat="44.47214" lon="0.93448">
        <ele>68.87</ele>
        <time>2016-01-23T16:53:11Z</time>
      </trkpt>
      <trkpt lat="44.47213" lon="0.93445">
        <ele>68.87</ele>
        <time>2016-01-23T16:53:12Z</time>
      </trkpt>
      <trkpt lat="44.47213" lon="0.93443">
        <ele>69.35</ele>
        <time>2016-01-23T16:53:13Z</time>
      </trkpt>
      <trkpt lat="44.47212" lon="0.93441">
        <ele>69.35</ele>
        <time>2016-01-23T16:53:14Z</time>
      </trkpt>
      <trkpt lat="44.47211" lon="0.93438">
        <ele>68.87</ele>
        <time>2016-01-23T16:53:15Z</time>
      </trkpt>
      <trkpt lat="44.47211" lon="0.93435">
        <ele>68.87</ele>
        <time>2016-01-23T16:53:16Z</time>
      </trkpt>
      <trkpt lat="44.47211" lon="0.93433">
        <ele>68.87</ele>
        <time>2016-01-23T16:53:17Z</time>
      </trkpt>
      <trkpt lat="44.47211" lon="0.9343">
        <ele>68.87</ele>
        <time>2016-01-23T16:53:18Z</time>
      </trkpt>
      <trkpt lat="44.4721" lon="0.93428">
        <ele>68.87</ele>
        <time>2016-01-23T16:53:19Z</time>
      </trkpt>
      <trkpt lat="44.47209" lon="0.93426">
        <ele>68.87</ele>
        <time>2016-01-23T16:53:20Z</time>
      </trkpt>
      <trkpt lat="44.47209" lon="0.93424">
        <ele>68.87</ele>
        <time>2016-01-23T16:53:21Z</time>
      </trkpt>
      <trkpt lat="44.47208" lon="0.93421">
        <ele>68.87</ele>
        <time>2016-01-23T16:53:31Z</time>
      </trkpt>
      <trkpt lat="44.47206" lon="0.9342">
        <ele>66.95</ele>
        <time>2016-01-23T16:54:17Z</time>
      </trkpt>
      <trkpt lat="44.47207" lon="0.9342">
        <ele>67.43</ele>
        <time>2016-01-23T16:54:44Z</time>
      </trkpt>
      <trkpt lat="44.47208" lon="0.9342">
        <ele>67.43</ele>
        <time>2016-01-23T16:55:06Z</time>
      </trkpt>
    </trkseg>
  </trk>
</gpx>